<?xml version="1.0" encoding="UTF-8" standalone="no" ?>
<gpx xmlns="http://www.topografix.com/GPX/1/1" xmlns:xsi="http://www.w3.org/2001/XMLSchema-instance" xsi:schemaLocation="http://www.topografix.com/GPX/1/1 http://www.topografix.com/GPX/1/1/gpx.xsd" version="1.1" creator="VisuGPX - https://www.visugpx.com">
  <metadata>
    <name>Pic St Michel</name>
    <desc><![CDATA[A développer,A développer, A développer, A développer, A développer, A développer, A développer, A développer, A développer.]]></desc>
  </metadata>
  <trk>
    <name><![CDATA[Pic St Michel]]></name>
    <trkseg>
      <trkpt lat="45.10603" lon="5.60075">
        <ele>1431</ele>
        <time>2013-02-20T15:18:47Z</time>
      </trkpt>
      <trkpt lat="45.10608" lon="5.60063">
        <ele>1435</ele>
        <time>2013-02-20T15:18:58Z</time>
      </trkpt>
      <trkpt lat="45.10603" lon="5.60059">
        <ele>1437</ele>
        <time>2013-02-20T15:19:04Z</time>
      </trkpt>
      <trkpt lat="45.10602" lon="5.60055">
        <ele>1438.599975586</ele>
        <time>2013-02-20T15:19:07Z</time>
      </trkpt>
      <trkpt lat="45.10603" lon="5.60055">
        <ele>1438.400024414</ele>
        <time>2013-02-20T15:19:08Z</time>
      </trkpt>
      <trkpt lat="45.10599" lon="5.60045">
        <ele>1442.599975586</ele>
        <time>2013-02-20T15:19:12Z</time>
      </trkpt>
      <trkpt lat="45.10595" lon="5.60018">
        <ele>1453.400024414</ele>
        <time>2013-02-20T15:19:48Z</time>
      </trkpt>
      <trkpt lat="45.10605" lon="5.59966">
        <ele>1464.800048828</ele>
        <time>2013-02-20T15:20:49Z</time>
      </trkpt>
      <trkpt lat="45.10612" lon="5.59946">
        <ele>1467.400024414</ele>
        <time>2013-02-20T15:21:35Z</time>
      </trkpt>
      <trkpt lat="45.10617" lon="5.59941">
        <ele>1468</ele>
        <time>2013-02-20T15:22:12Z</time>
      </trkpt>
      <trkpt lat="45.10619" lon="5.59941">
        <ele>1467.800048828</ele>
        <time>2013-02-20T15:22:16Z</time>
      </trkpt>
      <trkpt lat="45.1061" lon="5.59981">
        <ele>1462</ele>
        <time>2013-02-20T15:22:52Z</time>
      </trkpt>
      <trkpt lat="45.10599" lon="5.6006">
        <ele>1437.199951172</ele>
        <time>2013-02-20T15:22:55Z</time>
      </trkpt>
      <trkpt lat="45.10597" lon="5.60064">
        <ele>1435.599975586</ele>
        <time>2013-02-20T15:22:56Z</time>
      </trkpt>
      <trkpt lat="45.10589" lon="5.60114">
        <ele>1413.800048828</ele>
        <time>2013-02-20T15:22:59Z</time>
      </trkpt>
      <trkpt lat="45.10586" lon="5.60122">
        <ele>1410.199951172</ele>
        <time>2013-02-20T15:23:01Z</time>
      </trkpt>
      <trkpt lat="45.10585" lon="5.6013">
        <ele>1406.199951172</ele>
        <time>2013-02-20T15:23:03Z</time>
      </trkpt>
      <trkpt lat="45.1058" lon="5.60142">
        <ele>1400.400024414</ele>
        <time>2013-02-20T15:23:06Z</time>
      </trkpt>
      <trkpt lat="45.10576" lon="5.60162">
        <ele>1391</ele>
        <time>2013-02-20T15:23:07Z</time>
      </trkpt>
      <trkpt lat="45.1057" lon="5.60191">
        <ele>1377.599975586</ele>
        <time>2013-02-20T15:23:10Z</time>
      </trkpt>
      <trkpt lat="45.10566" lon="5.60201">
        <ele>1373.400024414</ele>
        <time>2013-02-20T15:23:12Z</time>
      </trkpt>
      <trkpt lat="45.10565" lon="5.60206">
        <ele>1371.199951172</ele>
        <time>2013-02-20T15:23:13Z</time>
      </trkpt>
      <trkpt lat="45.10559" lon="5.6024">
        <ele>1355</ele>
        <time>2013-02-20T15:23:16Z</time>
      </trkpt>
      <trkpt lat="45.10556" lon="5.60253">
        <ele>1349.199951172</ele>
        <time>2013-02-20T15:23:17Z</time>
      </trkpt>
      <trkpt lat="45.10549" lon="5.60283">
        <ele>1337.199951172</ele>
        <time>2013-02-20T15:23:19Z</time>
      </trkpt>
      <trkpt lat="45.10545" lon="5.60298">
        <ele>1331</ele>
        <time>2013-02-20T15:23:21Z</time>
      </trkpt>
      <trkpt lat="45.10544" lon="5.60303">
        <ele>1329</ele>
        <time>2013-02-20T15:23:22Z</time>
      </trkpt>
      <trkpt lat="45.10538" lon="5.60307">
        <ele>1327.599975586</ele>
        <time>2013-02-20T15:23:25Z</time>
      </trkpt>
      <trkpt lat="45.10537" lon="5.60308">
        <ele>1327.199951172</ele>
        <time>2013-02-20T15:23:26Z</time>
      </trkpt>
      <trkpt lat="45.10535" lon="5.6031">
        <ele>1326.400024414</ele>
        <time>2013-02-20T15:23:27Z</time>
      </trkpt>
      <trkpt lat="45.10532" lon="5.60317">
        <ele>1323.599975586</ele>
        <time>2013-02-20T15:23:30Z</time>
      </trkpt>
      <trkpt lat="45.10532" lon="5.6032">
        <ele>1322.800048828</ele>
        <time>2013-02-20T15:23:31Z</time>
      </trkpt>
      <trkpt lat="45.10526" lon="5.60328">
        <ele>1319.599975586</ele>
        <time>2013-02-20T15:23:36Z</time>
      </trkpt>
      <trkpt lat="45.10519" lon="5.60326">
        <ele>1320.800048828</ele>
        <time>2013-02-20T15:23:42Z</time>
      </trkpt>
      <trkpt lat="45.10517" lon="5.60319">
        <ele>1323.800048828</ele>
        <time>2013-02-20T15:23:46Z</time>
      </trkpt>
      <trkpt lat="45.10514" lon="5.60319">
        <ele>1324</ele>
        <time>2013-02-20T15:23:53Z</time>
      </trkpt>
      <trkpt lat="45.1051" lon="5.60316">
        <ele>1325.599975586</ele>
        <time>2013-02-20T15:23:57Z</time>
      </trkpt>
      <trkpt lat="45.10509" lon="5.60315">
        <ele>1326</ele>
        <time>2013-02-20T15:23:58Z</time>
      </trkpt>
      <trkpt lat="45.10504" lon="5.60315">
        <ele>1326.599975586</ele>
        <time>2013-02-20T15:24:04Z</time>
      </trkpt>
      <trkpt lat="45.10502" lon="5.60314">
        <ele>1327</ele>
        <time>2013-02-20T15:24:07Z</time>
      </trkpt>
      <trkpt lat="45.105" lon="5.60313">
        <ele>1327.400024414</ele>
        <time>2013-02-20T15:24:09Z</time>
      </trkpt>
      <trkpt lat="45.10493" lon="5.60314">
        <ele>1327.400024414</ele>
        <time>2013-02-20T15:24:16Z</time>
      </trkpt>
      <trkpt lat="45.10492" lon="5.60315">
        <ele>1327.400024414</ele>
        <time>2013-02-20T15:24:18Z</time>
      </trkpt>
      <trkpt lat="45.10491" lon="5.60314">
        <ele>1327.599975586</ele>
        <time>2013-02-20T15:24:20Z</time>
      </trkpt>
      <trkpt lat="45.10489" lon="5.60313">
        <ele>1328.400024414</ele>
        <time>2013-02-20T15:24:23Z</time>
      </trkpt>
      <trkpt lat="45.10488" lon="5.60313">
        <ele>1328.400024414</ele>
        <time>2013-02-20T15:24:24Z</time>
      </trkpt>
      <trkpt lat="45.10485" lon="5.60313">
        <ele>1328.400024414</ele>
        <time>2013-02-20T15:24:28Z</time>
      </trkpt>
      <trkpt lat="45.10483" lon="5.60313">
        <ele>1328.800048828</ele>
        <time>2013-02-20T15:24:30Z</time>
      </trkpt>
      <trkpt lat="45.10481" lon="5.60316">
        <ele>1327.599975586</ele>
        <time>2013-02-20T15:24:32Z</time>
      </trkpt>
      <trkpt lat="45.10479" lon="5.60319">
        <ele>1326.199951172</ele>
        <time>2013-02-20T15:24:34Z</time>
      </trkpt>
      <trkpt lat="45.10475" lon="5.60323">
        <ele>1325.199951172</ele>
        <time>2013-02-20T15:24:37Z</time>
      </trkpt>
      <trkpt lat="45.10474" lon="5.60322">
        <ele>1325.599975586</ele>
        <time>2013-02-20T15:24:38Z</time>
      </trkpt>
      <trkpt lat="45.10471" lon="5.60324">
        <ele>1325</ele>
        <time>2013-02-20T15:24:41Z</time>
      </trkpt>
      <trkpt lat="45.10469" lon="5.60324">
        <ele>1324.800048828</ele>
        <time>2013-02-20T15:24:42Z</time>
      </trkpt>
      <trkpt lat="45.10465" lon="5.60325">
        <ele>1324.800048828</ele>
        <time>2013-02-20T15:24:47Z</time>
      </trkpt>
      <trkpt lat="45.10459" lon="5.60324">
        <ele>1325.800048828</ele>
        <time>2013-02-20T15:24:54Z</time>
      </trkpt>
      <trkpt lat="45.10455" lon="5.60323">
        <ele>1326.199951172</ele>
        <time>2013-02-20T15:24:58Z</time>
      </trkpt>
      <trkpt lat="45.10455" lon="5.60323">
        <ele>1326.599975586</ele>
        <time>2013-02-20T15:24:59Z</time>
      </trkpt>
      <trkpt lat="45.10453" lon="5.60321">
        <ele>1327.400024414</ele>
        <time>2013-02-20T15:25:02Z</time>
      </trkpt>
      <trkpt lat="45.10451" lon="5.60321">
        <ele>1327.400024414</ele>
        <time>2013-02-20T15:25:04Z</time>
      </trkpt>
      <trkpt lat="45.10447" lon="5.60319">
        <ele>1328.800048828</ele>
        <time>2013-02-20T15:25:10Z</time>
      </trkpt>
      <trkpt lat="45.10444" lon="5.60321">
        <ele>1328.199951172</ele>
        <time>2013-02-20T15:25:16Z</time>
      </trkpt>
      <trkpt lat="45.10443" lon="5.60323">
        <ele>1327.199951172</ele>
        <time>2013-02-20T15:25:17Z</time>
      </trkpt>
      <trkpt lat="45.10439" lon="5.60329">
        <ele>1325</ele>
        <time>2013-02-20T15:25:20Z</time>
      </trkpt>
      <trkpt lat="45.10433" lon="5.6033">
        <ele>1325.199951172</ele>
        <time>2013-02-20T15:25:25Z</time>
      </trkpt>
      <trkpt lat="45.10425" lon="5.60329">
        <ele>1325.800048828</ele>
        <time>2013-02-20T15:25:30Z</time>
      </trkpt>
      <trkpt lat="45.1042" lon="5.60331">
        <ele>1325.599975586</ele>
        <time>2013-02-20T15:25:34Z</time>
      </trkpt>
      <trkpt lat="45.10418" lon="5.60332">
        <ele>1325.400024414</ele>
        <time>2013-02-20T15:25:35Z</time>
      </trkpt>
      <trkpt lat="45.10411" lon="5.60329">
        <ele>1327.400024414</ele>
        <time>2013-02-20T15:25:40Z</time>
      </trkpt>
      <trkpt lat="45.10407" lon="5.60329">
        <ele>1328</ele>
        <time>2013-02-20T15:25:43Z</time>
      </trkpt>
      <trkpt lat="45.10403" lon="5.60329">
        <ele>1328.599975586</ele>
        <time>2013-02-20T15:25:46Z</time>
      </trkpt>
      <trkpt lat="45.10398" lon="5.60328">
        <ele>1329.599975586</ele>
        <time>2013-02-20T15:25:51Z</time>
      </trkpt>
      <trkpt lat="45.1039" lon="5.60329">
        <ele>1330</ele>
        <time>2013-02-20T15:25:56Z</time>
      </trkpt>
      <trkpt lat="45.10385" lon="5.60327">
        <ele>1331.800048828</ele>
        <time>2013-02-20T15:26:01Z</time>
      </trkpt>
      <trkpt lat="45.10383" lon="5.60326">
        <ele>1332</ele>
        <time>2013-02-20T15:26:02Z</time>
      </trkpt>
      <trkpt lat="45.10378" lon="5.60325">
        <ele>1333.199951172</ele>
        <time>2013-02-20T15:26:06Z</time>
      </trkpt>
      <trkpt lat="45.10376" lon="5.60323">
        <ele>1334</ele>
        <time>2013-02-20T15:26:08Z</time>
      </trkpt>
      <trkpt lat="45.10372" lon="5.60324">
        <ele>1334.400024414</ele>
        <time>2013-02-20T15:26:11Z</time>
      </trkpt>
      <trkpt lat="45.10366" lon="5.60321">
        <ele>1336</ele>
        <time>2013-02-20T15:26:17Z</time>
      </trkpt>
      <trkpt lat="45.10363" lon="5.6032">
        <ele>1336.800048828</ele>
        <time>2013-02-20T15:26:20Z</time>
      </trkpt>
      <trkpt lat="45.10359" lon="5.60322">
        <ele>1336.400024414</ele>
        <time>2013-02-20T15:26:23Z</time>
      </trkpt>
      <trkpt lat="45.10356" lon="5.60322">
        <ele>1337</ele>
        <time>2013-02-20T15:26:25Z</time>
      </trkpt>
      <trkpt lat="45.10354" lon="5.60321">
        <ele>1337.599975586</ele>
        <time>2013-02-20T15:26:27Z</time>
      </trkpt>
      <trkpt lat="45.1035" lon="5.60319">
        <ele>1338.599975586</ele>
        <time>2013-02-20T15:26:30Z</time>
      </trkpt>
      <trkpt lat="45.10348" lon="5.60319">
        <ele>1338.800048828</ele>
        <time>2013-02-20T15:26:31Z</time>
      </trkpt>
      <trkpt lat="45.10341" lon="5.60316">
        <ele>1340.599975586</ele>
        <time>2013-02-20T15:26:35Z</time>
      </trkpt>
      <trkpt lat="45.1034" lon="5.60316">
        <ele>1340.800048828</ele>
        <time>2013-02-20T15:26:36Z</time>
      </trkpt>
      <trkpt lat="45.10333" lon="5.60313">
        <ele>1342.599975586</ele>
        <time>2013-02-20T15:26:41Z</time>
      </trkpt>
      <trkpt lat="45.10325" lon="5.60314">
        <ele>1343.400024414</ele>
        <time>2013-02-20T15:26:46Z</time>
      </trkpt>
      <trkpt lat="45.10321" lon="5.60314">
        <ele>1343.800048828</ele>
        <time>2013-02-20T15:26:50Z</time>
      </trkpt>
      <trkpt lat="45.1032" lon="5.60313">
        <ele>1344.199951172</ele>
        <time>2013-02-20T15:26:51Z</time>
      </trkpt>
      <trkpt lat="45.10314" lon="5.60314">
        <ele>1344.800048828</ele>
        <time>2013-02-20T15:26:54Z</time>
      </trkpt>
      <trkpt lat="45.10312" lon="5.60315">
        <ele>1344.599975586</ele>
        <time>2013-02-20T15:26:55Z</time>
      </trkpt>
      <trkpt lat="45.10306" lon="5.60317">
        <ele>1344.800048828</ele>
        <time>2013-02-20T15:26:58Z</time>
      </trkpt>
      <trkpt lat="45.10304" lon="5.60318">
        <ele>1344.800048828</ele>
        <time>2013-02-20T15:26:59Z</time>
      </trkpt>
      <trkpt lat="45.10299" lon="5.60319">
        <ele>1345.400024414</ele>
        <time>2013-02-20T15:27:04Z</time>
      </trkpt>
      <trkpt lat="45.10297" lon="5.60319">
        <ele>1345.599975586</ele>
        <time>2013-02-20T15:27:05Z</time>
      </trkpt>
      <trkpt lat="45.1029" lon="5.60318">
        <ele>1346.599975586</ele>
        <time>2013-02-20T15:27:10Z</time>
      </trkpt>
      <trkpt lat="45.10289" lon="5.6032">
        <ele>1346.400024414</ele>
        <time>2013-02-20T15:27:11Z</time>
      </trkpt>
      <trkpt lat="45.10283" lon="5.60321">
        <ele>1346.800048828</ele>
        <time>2013-02-20T15:27:15Z</time>
      </trkpt>
      <trkpt lat="45.10283" lon="5.6032">
        <ele>1347</ele>
        <time>2013-02-20T15:27:16Z</time>
      </trkpt>
      <trkpt lat="45.10279" lon="5.6032">
        <ele>1347.800048828</ele>
        <time>2013-02-20T15:27:19Z</time>
      </trkpt>
      <trkpt lat="45.10276" lon="5.60321">
        <ele>1347.800048828</ele>
        <time>2013-02-20T15:27:21Z</time>
      </trkpt>
      <trkpt lat="45.10273" lon="5.60322">
        <ele>1348.199951172</ele>
        <time>2013-02-20T15:27:24Z</time>
      </trkpt>
      <trkpt lat="45.1027" lon="5.60322">
        <ele>1348.400024414</ele>
        <time>2013-02-20T15:27:26Z</time>
      </trkpt>
      <trkpt lat="45.10266" lon="5.60322">
        <ele>1349</ele>
        <time>2013-02-20T15:27:29Z</time>
      </trkpt>
      <trkpt lat="45.1026" lon="5.60319">
        <ele>1350.599975586</ele>
        <time>2013-02-20T15:27:35Z</time>
      </trkpt>
      <trkpt lat="45.10258" lon="5.60318">
        <ele>1351</ele>
        <time>2013-02-20T15:27:36Z</time>
      </trkpt>
      <trkpt lat="45.10253" lon="5.60316">
        <ele>1352</ele>
        <time>2013-02-20T15:27:40Z</time>
      </trkpt>
      <trkpt lat="45.10245" lon="5.60318">
        <ele>1352.199951172</ele>
        <time>2013-02-20T15:27:45Z</time>
      </trkpt>
      <trkpt lat="45.1024" lon="5.60313">
        <ele>1353.400024414</ele>
        <time>2013-02-20T15:27:50Z</time>
      </trkpt>
      <trkpt lat="45.10234" lon="5.60312">
        <ele>1353.800048828</ele>
        <time>2013-02-20T15:27:55Z</time>
      </trkpt>
      <trkpt lat="45.1023" lon="5.60311">
        <ele>1354.199951172</ele>
        <time>2013-02-20T15:27:59Z</time>
      </trkpt>
      <trkpt lat="45.10225" lon="5.60309">
        <ele>1355</ele>
        <time>2013-02-20T15:28:03Z</time>
      </trkpt>
      <trkpt lat="45.10222" lon="5.60309">
        <ele>1355</ele>
        <time>2013-02-20T15:28:05Z</time>
      </trkpt>
      <trkpt lat="45.10216" lon="5.60306">
        <ele>1355.800048828</ele>
        <time>2013-02-20T15:28:10Z</time>
      </trkpt>
      <trkpt lat="45.1021" lon="5.60307">
        <ele>1355.800048828</ele>
        <time>2013-02-20T15:28:16Z</time>
      </trkpt>
      <trkpt lat="45.10208" lon="5.60306">
        <ele>1356.199951172</ele>
        <time>2013-02-20T15:28:18Z</time>
      </trkpt>
      <trkpt lat="45.10204" lon="5.60306">
        <ele>1356.400024414</ele>
        <time>2013-02-20T15:28:22Z</time>
      </trkpt>
      <trkpt lat="45.10201" lon="5.60308">
        <ele>1356</ele>
        <time>2013-02-20T15:28:24Z</time>
      </trkpt>
      <trkpt lat="45.10197" lon="5.60308">
        <ele>1356.199951172</ele>
        <time>2013-02-20T15:28:27Z</time>
      </trkpt>
      <trkpt lat="45.10192" lon="5.60308">
        <ele>1356.400024414</ele>
        <time>2013-02-20T15:28:32Z</time>
      </trkpt>
      <trkpt lat="45.1019" lon="5.60307">
        <ele>1356.599975586</ele>
        <time>2013-02-20T15:28:33Z</time>
      </trkpt>
      <trkpt lat="45.10186" lon="5.60306">
        <ele>1357</ele>
        <time>2013-02-20T15:28:37Z</time>
      </trkpt>
      <trkpt lat="45.10185" lon="5.60307">
        <ele>1356.800048828</ele>
        <time>2013-02-20T15:28:39Z</time>
      </trkpt>
      <trkpt lat="45.10183" lon="5.60306">
        <ele>1357.199951172</ele>
        <time>2013-02-20T15:28:42Z</time>
      </trkpt>
      <trkpt lat="45.10179" lon="5.60306">
        <ele>1357.400024414</ele>
        <time>2013-02-20T15:28:46Z</time>
      </trkpt>
      <trkpt lat="45.10177" lon="5.60306">
        <ele>1357.400024414</ele>
        <time>2013-02-20T15:28:47Z</time>
      </trkpt>
      <trkpt lat="45.10174" lon="5.60306">
        <ele>1357.599975586</ele>
        <time>2013-02-20T15:28:52Z</time>
      </trkpt>
      <trkpt lat="45.10169" lon="5.60307">
        <ele>1357.400024414</ele>
        <time>2013-02-20T15:28:57Z</time>
      </trkpt>
      <trkpt lat="45.10166" lon="5.60308">
        <ele>1357.199951172</ele>
        <time>2013-02-20T15:29:01Z</time>
      </trkpt>
      <trkpt lat="45.10163" lon="5.60309">
        <ele>1357.199951172</ele>
        <time>2013-02-20T15:29:05Z</time>
      </trkpt>
      <trkpt lat="45.1016" lon="5.60309">
        <ele>1357.400024414</ele>
        <time>2013-02-20T15:29:09Z</time>
      </trkpt>
      <trkpt lat="45.10156" lon="5.60308">
        <ele>1357.599975586</ele>
        <time>2013-02-20T15:29:12Z</time>
      </trkpt>
      <trkpt lat="45.10155" lon="5.60308">
        <ele>1357.599975586</ele>
        <time>2013-02-20T15:29:14Z</time>
      </trkpt>
      <trkpt lat="45.10154" lon="5.6031">
        <ele>1357.400024414</ele>
        <time>2013-02-20T15:29:15Z</time>
      </trkpt>
      <trkpt lat="45.10153" lon="5.6031">
        <ele>1357.400024414</ele>
        <time>2013-02-20T15:29:17Z</time>
      </trkpt>
      <trkpt lat="45.10148" lon="5.6031">
        <ele>1357.599975586</ele>
        <time>2013-02-20T15:29:21Z</time>
      </trkpt>
      <trkpt lat="45.10144" lon="5.60309">
        <ele>1357.800048828</ele>
        <time>2013-02-20T15:29:25Z</time>
      </trkpt>
      <trkpt lat="45.10141" lon="5.6031">
        <ele>1357.800048828</ele>
        <time>2013-02-20T15:29:28Z</time>
      </trkpt>
      <trkpt lat="45.1014" lon="5.60309">
        <ele>1358</ele>
        <time>2013-02-20T15:29:29Z</time>
      </trkpt>
      <trkpt lat="45.10137" lon="5.60308">
        <ele>1358.199951172</ele>
        <time>2013-02-20T15:29:32Z</time>
      </trkpt>
      <trkpt lat="45.10133" lon="5.60309">
        <ele>1358.199951172</ele>
        <time>2013-02-20T15:29:35Z</time>
      </trkpt>
      <trkpt lat="45.10128" lon="5.60308">
        <ele>1358.599975586</ele>
        <time>2013-02-20T15:29:41Z</time>
      </trkpt>
      <trkpt lat="45.10124" lon="5.6031">
        <ele>1358.199951172</ele>
        <time>2013-02-20T15:29:46Z</time>
      </trkpt>
      <trkpt lat="45.10119" lon="5.60311">
        <ele>1358.400024414</ele>
        <time>2013-02-20T15:29:50Z</time>
      </trkpt>
      <trkpt lat="45.10117" lon="5.60311">
        <ele>1358.400024414</ele>
        <time>2013-02-20T15:29:52Z</time>
      </trkpt>
      <trkpt lat="45.10114" lon="5.6031">
        <ele>1358.599975586</ele>
        <time>2013-02-20T15:29:55Z</time>
      </trkpt>
      <trkpt lat="45.10108" lon="5.60309">
        <ele>1359</ele>
        <time>2013-02-20T15:30:00Z</time>
      </trkpt>
      <trkpt lat="45.10107" lon="5.60309">
        <ele>1359</ele>
        <time>2013-02-20T15:30:01Z</time>
      </trkpt>
      <trkpt lat="45.10103" lon="5.6031">
        <ele>1359</ele>
        <time>2013-02-20T15:30:05Z</time>
      </trkpt>
      <trkpt lat="45.10101" lon="5.6031">
        <ele>1359.199951172</ele>
        <time>2013-02-20T15:30:06Z</time>
      </trkpt>
      <trkpt lat="45.10094" lon="5.60307">
        <ele>1359.800048828</ele>
        <time>2013-02-20T15:30:13Z</time>
      </trkpt>
      <trkpt lat="45.10093" lon="5.60308">
        <ele>1359.800048828</ele>
        <time>2013-02-20T15:30:14Z</time>
      </trkpt>
      <trkpt lat="45.1009" lon="5.60307">
        <ele>1359.800048828</ele>
        <time>2013-02-20T15:30:17Z</time>
      </trkpt>
      <trkpt lat="45.10089" lon="5.60307">
        <ele>1359.800048828</ele>
        <time>2013-02-20T15:30:18Z</time>
      </trkpt>
      <trkpt lat="45.10084" lon="5.60305">
        <ele>1360.199951172</ele>
        <time>2013-02-20T15:30:22Z</time>
      </trkpt>
      <trkpt lat="45.1008" lon="5.60303">
        <ele>1361</ele>
        <time>2013-02-20T15:30:25Z</time>
      </trkpt>
      <trkpt lat="45.10076" lon="5.60302">
        <ele>1362</ele>
        <time>2013-02-20T15:30:28Z</time>
      </trkpt>
      <trkpt lat="45.10069" lon="5.603">
        <ele>1363.800048828</ele>
        <time>2013-02-20T15:30:34Z</time>
      </trkpt>
      <trkpt lat="45.10061" lon="5.60299">
        <ele>1365.199951172</ele>
        <time>2013-02-20T15:30:40Z</time>
      </trkpt>
      <trkpt lat="45.10054" lon="5.60298">
        <ele>1366.800048828</ele>
        <time>2013-02-20T15:30:46Z</time>
      </trkpt>
      <trkpt lat="45.1005" lon="5.60297">
        <ele>1367.599975586</ele>
        <time>2013-02-20T15:30:49Z</time>
      </trkpt>
      <trkpt lat="45.10047" lon="5.60297">
        <ele>1368.199951172</ele>
        <time>2013-02-20T15:30:52Z</time>
      </trkpt>
      <trkpt lat="45.10039" lon="5.60295">
        <ele>1369.800048828</ele>
        <time>2013-02-20T15:30:58Z</time>
      </trkpt>
      <trkpt lat="45.10033" lon="5.60295">
        <ele>1371.199951172</ele>
        <time>2013-02-20T15:31:03Z</time>
      </trkpt>
      <trkpt lat="45.10023" lon="5.60295">
        <ele>1373</ele>
        <time>2013-02-20T15:31:11Z</time>
      </trkpt>
      <trkpt lat="45.10015" lon="5.60297">
        <ele>1374.400024414</ele>
        <time>2013-02-20T15:31:18Z</time>
      </trkpt>
      <trkpt lat="45.10007" lon="5.60298">
        <ele>1375.599975586</ele>
        <time>2013-02-20T15:31:24Z</time>
      </trkpt>
      <trkpt lat="45.09998" lon="5.60298">
        <ele>1377.199951172</ele>
        <time>2013-02-20T15:31:32Z</time>
      </trkpt>
      <trkpt lat="45.0999" lon="5.60298">
        <ele>1378</ele>
        <time>2013-02-20T15:31:39Z</time>
      </trkpt>
      <trkpt lat="45.09982" lon="5.60297">
        <ele>1379</ele>
        <time>2013-02-20T15:31:46Z</time>
      </trkpt>
      <trkpt lat="45.09976" lon="5.60296">
        <ele>1379.800048828</ele>
        <time>2013-02-20T15:31:51Z</time>
      </trkpt>
      <trkpt lat="45.09968" lon="5.60296">
        <ele>1380.599975586</ele>
        <time>2013-02-20T15:31:58Z</time>
      </trkpt>
      <trkpt lat="45.0996" lon="5.60296">
        <ele>1381.400024414</ele>
        <time>2013-02-20T15:32:05Z</time>
      </trkpt>
      <trkpt lat="45.09952" lon="5.60295">
        <ele>1382.400024414</ele>
        <time>2013-02-20T15:32:11Z</time>
      </trkpt>
      <trkpt lat="45.09943" lon="5.60295">
        <ele>1383.400024414</ele>
        <time>2013-02-20T15:32:18Z</time>
      </trkpt>
      <trkpt lat="45.09942" lon="5.60295">
        <ele>1383.400024414</ele>
        <time>2013-02-20T15:32:19Z</time>
      </trkpt>
      <trkpt lat="45.09937" lon="5.60294">
        <ele>1384</ele>
        <time>2013-02-20T15:32:23Z</time>
      </trkpt>
      <trkpt lat="45.0993" lon="5.60291">
        <ele>1385</ele>
        <time>2013-02-20T15:32:28Z</time>
      </trkpt>
      <trkpt lat="45.09926" lon="5.6029">
        <ele>1385.599975586</ele>
        <time>2013-02-20T15:32:32Z</time>
      </trkpt>
      <trkpt lat="45.09918" lon="5.60289">
        <ele>1386.400024414</ele>
        <time>2013-02-20T15:32:38Z</time>
      </trkpt>
      <trkpt lat="45.09909" lon="5.60289">
        <ele>1387.800048828</ele>
        <time>2013-02-20T15:32:46Z</time>
      </trkpt>
      <trkpt lat="45.09903" lon="5.60288">
        <ele>1388.800048828</ele>
        <time>2013-02-20T15:32:51Z</time>
      </trkpt>
      <trkpt lat="45.09895" lon="5.60287">
        <ele>1390</ele>
        <time>2013-02-20T15:32:58Z</time>
      </trkpt>
      <trkpt lat="45.09888" lon="5.60284">
        <ele>1391.199951172</ele>
        <time>2013-02-20T15:33:04Z</time>
      </trkpt>
      <trkpt lat="45.09882" lon="5.60283">
        <ele>1392.199951172</ele>
        <time>2013-02-20T15:33:10Z</time>
      </trkpt>
      <trkpt lat="45.09875" lon="5.60282">
        <ele>1393.199951172</ele>
        <time>2013-02-20T15:33:17Z</time>
      </trkpt>
      <trkpt lat="45.0987" lon="5.60282">
        <ele>1394</ele>
        <time>2013-02-20T15:33:22Z</time>
      </trkpt>
      <trkpt lat="45.09865" lon="5.60283">
        <ele>1394.599975586</ele>
        <time>2013-02-20T15:33:27Z</time>
      </trkpt>
      <trkpt lat="45.09859" lon="5.60284">
        <ele>1395.400024414</ele>
        <time>2013-02-20T15:33:32Z</time>
      </trkpt>
      <trkpt lat="45.09853" lon="5.60286">
        <ele>1396.199951172</ele>
        <time>2013-02-20T15:33:38Z</time>
      </trkpt>
      <trkpt lat="45.09847" lon="5.60288">
        <ele>1396.800048828</ele>
        <time>2013-02-20T15:33:44Z</time>
      </trkpt>
      <trkpt lat="45.09841" lon="5.6029">
        <ele>1397.400024414</ele>
        <time>2013-02-20T15:33:49Z</time>
      </trkpt>
      <trkpt lat="45.09835" lon="5.6029">
        <ele>1398.400024414</ele>
        <time>2013-02-20T15:33:55Z</time>
      </trkpt>
      <trkpt lat="45.09829" lon="5.6029">
        <ele>1399.599975586</ele>
        <time>2013-02-20T15:34:00Z</time>
      </trkpt>
      <trkpt lat="45.09823" lon="5.60293">
        <ele>1401</ele>
        <time>2013-02-20T15:34:05Z</time>
      </trkpt>
      <trkpt lat="45.0982" lon="5.60293">
        <ele>1401.599975586</ele>
        <time>2013-02-20T15:34:08Z</time>
      </trkpt>
      <trkpt lat="45.09814" lon="5.60293">
        <ele>1403</ele>
        <time>2013-02-20T15:34:13Z</time>
      </trkpt>
      <trkpt lat="45.09813" lon="5.60293">
        <ele>1403.599975586</ele>
        <time>2013-02-20T15:34:15Z</time>
      </trkpt>
      <trkpt lat="45.0981" lon="5.60293">
        <ele>1404.400024414</ele>
        <time>2013-02-20T15:34:18Z</time>
      </trkpt>
      <trkpt lat="45.09809" lon="5.60293">
        <ele>1404.800048828</ele>
        <time>2013-02-20T15:34:19Z</time>
      </trkpt>
      <trkpt lat="45.09805" lon="5.60292">
        <ele>1405.800048828</ele>
        <time>2013-02-20T15:34:22Z</time>
      </trkpt>
      <trkpt lat="45.09804" lon="5.60292">
        <ele>1406</ele>
        <time>2013-02-20T15:34:23Z</time>
      </trkpt>
      <trkpt lat="45.09799" lon="5.60294">
        <ele>1407</ele>
        <time>2013-02-20T15:34:27Z</time>
      </trkpt>
      <trkpt lat="45.09794" lon="5.60297">
        <ele>1407.800048828</ele>
        <time>2013-02-20T15:34:31Z</time>
      </trkpt>
      <trkpt lat="45.09786" lon="5.60299">
        <ele>1409.800048828</ele>
        <time>2013-02-20T15:34:38Z</time>
      </trkpt>
      <trkpt lat="45.09778" lon="5.60301">
        <ele>1411.400024414</ele>
        <time>2013-02-20T15:34:45Z</time>
      </trkpt>
      <trkpt lat="45.09777" lon="5.60301">
        <ele>1411.800048828</ele>
        <time>2013-02-20T15:34:47Z</time>
      </trkpt>
      <trkpt lat="45.09774" lon="5.60302">
        <ele>1412.199951172</ele>
        <time>2013-02-20T15:34:50Z</time>
      </trkpt>
      <trkpt lat="45.09773" lon="5.60302">
        <ele>1412.599975586</ele>
        <time>2013-02-20T15:34:51Z</time>
      </trkpt>
      <trkpt lat="45.09771" lon="5.60302">
        <ele>1413.199951172</ele>
        <time>2013-02-20T15:34:53Z</time>
      </trkpt>
      <trkpt lat="45.0977" lon="5.60302">
        <ele>1413.400024414</ele>
        <time>2013-02-20T15:34:54Z</time>
      </trkpt>
      <trkpt lat="45.09767" lon="5.60303">
        <ele>1414.199951172</ele>
        <time>2013-02-20T15:34:57Z</time>
      </trkpt>
      <trkpt lat="45.09765" lon="5.60302">
        <ele>1414.400024414</ele>
        <time>2013-02-20T15:34:58Z</time>
      </trkpt>
      <trkpt lat="45.0976" lon="5.60305">
        <ele>1415.599975586</ele>
        <time>2013-02-20T15:35:03Z</time>
      </trkpt>
      <trkpt lat="45.09754" lon="5.60304">
        <ele>1417</ele>
        <time>2013-02-20T15:35:08Z</time>
      </trkpt>
      <trkpt lat="45.0975" lon="5.60303">
        <ele>1418.199951172</ele>
        <time>2013-02-20T15:35:12Z</time>
      </trkpt>
      <trkpt lat="45.09748" lon="5.60304">
        <ele>1418.199951172</ele>
        <time>2013-02-20T15:35:13Z</time>
      </trkpt>
      <trkpt lat="45.09746" lon="5.60305">
        <ele>1418.400024414</ele>
        <time>2013-02-20T15:35:16Z</time>
      </trkpt>
      <trkpt lat="45.09739" lon="5.60304">
        <ele>1419</ele>
        <time>2013-02-20T15:35:22Z</time>
      </trkpt>
      <trkpt lat="45.09733" lon="5.60305">
        <ele>1419.400024414</ele>
        <time>2013-02-20T15:35:28Z</time>
      </trkpt>
      <trkpt lat="45.09726" lon="5.60304">
        <ele>1420.400024414</ele>
        <time>2013-02-20T15:35:35Z</time>
      </trkpt>
      <trkpt lat="45.09719" lon="5.60305">
        <ele>1420.800048828</ele>
        <time>2013-02-20T15:35:41Z</time>
      </trkpt>
      <trkpt lat="45.09712" lon="5.60304">
        <ele>1421.599975586</ele>
        <time>2013-02-20T15:35:48Z</time>
      </trkpt>
      <trkpt lat="45.09703" lon="5.60302">
        <ele>1422.599975586</ele>
        <time>2013-02-20T15:35:56Z</time>
      </trkpt>
      <trkpt lat="45.09697" lon="5.60301">
        <ele>1423.400024414</ele>
        <time>2013-02-20T15:36:02Z</time>
      </trkpt>
      <trkpt lat="45.09689" lon="5.603">
        <ele>1424</ele>
        <time>2013-02-20T15:36:08Z</time>
      </trkpt>
      <trkpt lat="45.09679" lon="5.60302">
        <ele>1424.800048828</ele>
        <time>2013-02-20T15:36:16Z</time>
      </trkpt>
      <trkpt lat="45.09673" lon="5.60302">
        <ele>1425.400024414</ele>
        <time>2013-02-20T15:36:21Z</time>
      </trkpt>
      <trkpt lat="45.09671" lon="5.60302">
        <ele>1425.599975586</ele>
        <time>2013-02-20T15:36:23Z</time>
      </trkpt>
      <trkpt lat="45.09663" lon="5.60302">
        <ele>1426.199951172</ele>
        <time>2013-02-20T15:36:30Z</time>
      </trkpt>
      <trkpt lat="45.09662" lon="5.60302">
        <ele>1426.199951172</ele>
        <time>2013-02-20T15:36:31Z</time>
      </trkpt>
      <trkpt lat="45.09656" lon="5.60301">
        <ele>1426.599975586</ele>
        <time>2013-02-20T15:36:37Z</time>
      </trkpt>
      <trkpt lat="45.09649" lon="5.603">
        <ele>1427</ele>
        <time>2013-02-20T15:36:43Z</time>
      </trkpt>
      <trkpt lat="45.09641" lon="5.60298">
        <ele>1427.599975586</ele>
        <time>2013-02-20T15:36:50Z</time>
      </trkpt>
      <trkpt lat="45.09633" lon="5.60296">
        <ele>1428.199951172</ele>
        <time>2013-02-20T15:36:57Z</time>
      </trkpt>
      <trkpt lat="45.09625" lon="5.60295">
        <ele>1428.599975586</ele>
        <time>2013-02-20T15:37:03Z</time>
      </trkpt>
      <trkpt lat="45.09617" lon="5.60293">
        <ele>1429.199951172</ele>
        <time>2013-02-20T15:37:10Z</time>
      </trkpt>
      <trkpt lat="45.09609" lon="5.60292">
        <ele>1429.599975586</ele>
        <time>2013-02-20T15:37:17Z</time>
      </trkpt>
      <trkpt lat="45.09605" lon="5.60292">
        <ele>1429.800048828</ele>
        <time>2013-02-20T15:37:21Z</time>
      </trkpt>
      <trkpt lat="45.09602" lon="5.60291">
        <ele>1430</ele>
        <time>2013-02-20T15:37:23Z</time>
      </trkpt>
      <trkpt lat="45.09595" lon="5.60289">
        <ele>1430.400024414</ele>
        <time>2013-02-20T15:37:30Z</time>
      </trkpt>
      <trkpt lat="45.09588" lon="5.60287">
        <ele>1430.800048828</ele>
        <time>2013-02-20T15:37:36Z</time>
      </trkpt>
      <trkpt lat="45.09587" lon="5.60287">
        <ele>1431</ele>
        <time>2013-02-20T15:37:37Z</time>
      </trkpt>
      <trkpt lat="45.09584" lon="5.60287">
        <ele>1431.199951172</ele>
        <time>2013-02-20T15:37:40Z</time>
      </trkpt>
      <trkpt lat="45.09581" lon="5.60286">
        <ele>1431.599975586</ele>
        <time>2013-02-20T15:37:43Z</time>
      </trkpt>
      <trkpt lat="45.09579" lon="5.60286">
        <ele>1431.800048828</ele>
        <time>2013-02-20T15:37:45Z</time>
      </trkpt>
      <trkpt lat="45.09576" lon="5.60286">
        <ele>1432.199951172</ele>
        <time>2013-02-20T15:37:47Z</time>
      </trkpt>
      <trkpt lat="45.09576" lon="5.60286">
        <ele>1432.400024414</ele>
        <time>2013-02-20T15:37:48Z</time>
      </trkpt>
      <trkpt lat="45.09571" lon="5.60287">
        <ele>1433</ele>
        <time>2013-02-20T15:37:52Z</time>
      </trkpt>
      <trkpt lat="45.0957" lon="5.60287">
        <ele>1433.400024414</ele>
        <time>2013-02-20T15:37:53Z</time>
      </trkpt>
      <trkpt lat="45.09562" lon="5.60285">
        <ele>1434.599975586</ele>
        <time>2013-02-20T15:37:59Z</time>
      </trkpt>
      <trkpt lat="45.09557" lon="5.60284">
        <ele>1435.599975586</ele>
        <time>2013-02-20T15:38:04Z</time>
      </trkpt>
      <trkpt lat="45.09551" lon="5.60283">
        <ele>1436.400024414</ele>
        <time>2013-02-20T15:38:08Z</time>
      </trkpt>
      <trkpt lat="45.0955" lon="5.60283">
        <ele>1436.599975586</ele>
        <time>2013-02-20T15:38:09Z</time>
      </trkpt>
      <trkpt lat="45.09543" lon="5.60282">
        <ele>1437.800048828</ele>
        <time>2013-02-20T15:38:15Z</time>
      </trkpt>
      <trkpt lat="45.0954" lon="5.60281">
        <ele>1438.199951172</ele>
        <time>2013-02-20T15:38:18Z</time>
      </trkpt>
      <trkpt lat="45.09537" lon="5.6028">
        <ele>1438.599975586</ele>
        <time>2013-02-20T15:38:20Z</time>
      </trkpt>
      <trkpt lat="45.09532" lon="5.60278">
        <ele>1439.599975586</ele>
        <time>2013-02-20T15:38:25Z</time>
      </trkpt>
      <trkpt lat="45.09531" lon="5.60278">
        <ele>1439.599975586</ele>
        <time>2013-02-20T15:38:26Z</time>
      </trkpt>
      <trkpt lat="45.09528" lon="5.60278">
        <ele>1440.199951172</ele>
        <time>2013-02-20T15:38:30Z</time>
      </trkpt>
      <trkpt lat="45.09526" lon="5.60279">
        <ele>1440.400024414</ele>
        <time>2013-02-20T15:38:31Z</time>
      </trkpt>
      <trkpt lat="45.09522" lon="5.60279">
        <ele>1441</ele>
        <time>2013-02-20T15:38:35Z</time>
      </trkpt>
      <trkpt lat="45.09515" lon="5.60279">
        <ele>1442.199951172</ele>
        <time>2013-02-20T15:38:41Z</time>
      </trkpt>
      <trkpt lat="45.09511" lon="5.60278">
        <ele>1442.800048828</ele>
        <time>2013-02-20T15:38:46Z</time>
      </trkpt>
      <trkpt lat="45.09506" lon="5.60278">
        <ele>1443.800048828</ele>
        <time>2013-02-20T15:38:51Z</time>
      </trkpt>
      <trkpt lat="45.09502" lon="5.60277">
        <ele>1444.400024414</ele>
        <time>2013-02-20T15:38:55Z</time>
      </trkpt>
      <trkpt lat="45.09499" lon="5.60277">
        <ele>1444.599975586</ele>
        <time>2013-02-20T15:38:57Z</time>
      </trkpt>
      <trkpt lat="45.09496" lon="5.60277">
        <ele>1445.199951172</ele>
        <time>2013-02-20T15:39:01Z</time>
      </trkpt>
      <trkpt lat="45.09493" lon="5.60276">
        <ele>1445.599975586</ele>
        <time>2013-02-20T15:39:04Z</time>
      </trkpt>
      <trkpt lat="45.09492" lon="5.60276">
        <ele>1445.599975586</ele>
        <time>2013-02-20T15:39:06Z</time>
      </trkpt>
      <trkpt lat="45.09489" lon="5.60275">
        <ele>1446.199951172</ele>
        <time>2013-02-20T15:39:09Z</time>
      </trkpt>
      <trkpt lat="45.09487" lon="5.60276">
        <ele>1446.400024414</ele>
        <time>2013-02-20T15:39:11Z</time>
      </trkpt>
      <trkpt lat="45.09483" lon="5.60278">
        <ele>1446.800048828</ele>
        <time>2013-02-20T15:39:15Z</time>
      </trkpt>
      <trkpt lat="45.09481" lon="5.60279">
        <ele>1447.199951172</ele>
        <time>2013-02-20T15:39:18Z</time>
      </trkpt>
      <trkpt lat="45.0948" lon="5.6028">
        <ele>1447.199951172</ele>
        <time>2013-02-20T15:39:19Z</time>
      </trkpt>
      <trkpt lat="45.09478" lon="5.6028">
        <ele>1447.599975586</ele>
        <time>2013-02-20T15:39:22Z</time>
      </trkpt>
      <trkpt lat="45.09478" lon="5.6028">
        <ele>1447.599975586</ele>
        <time>2013-02-20T15:39:24Z</time>
      </trkpt>
      <trkpt lat="45.09477" lon="5.6028">
        <ele>1447.599975586</ele>
        <time>2013-02-20T15:39:39Z</time>
      </trkpt>
      <trkpt lat="45.09476" lon="5.60279">
        <ele>1447.800048828</ele>
        <time>2013-02-20T15:40:07Z</time>
      </trkpt>
      <trkpt lat="45.09476" lon="5.6028">
        <ele>1447.800048828</ele>
        <time>2013-02-20T15:40:12Z</time>
      </trkpt>
      <trkpt lat="45.09476" lon="5.6028">
        <ele>1447.800048828</ele>
        <time>2013-02-20T15:40:20Z</time>
      </trkpt>
      <trkpt lat="45.0947" lon="5.60284">
        <ele>1448.800048828</ele>
        <time>2013-02-20T15:41:17Z</time>
      </trkpt>
      <trkpt lat="45.09467" lon="5.60283">
        <ele>1449.199951172</ele>
        <time>2013-02-20T15:41:19Z</time>
      </trkpt>
      <trkpt lat="45.09464" lon="5.60284">
        <ele>1449.599975586</ele>
        <time>2013-02-20T15:41:22Z</time>
      </trkpt>
      <trkpt lat="45.0946" lon="5.60284">
        <ele>1450.199951172</ele>
        <time>2013-02-20T15:41:24Z</time>
      </trkpt>
      <trkpt lat="45.09457" lon="5.60287">
        <ele>1450.599975586</ele>
        <time>2013-02-20T15:41:27Z</time>
      </trkpt>
      <trkpt lat="45.09449" lon="5.6029">
        <ele>1452</ele>
        <time>2013-02-20T15:41:34Z</time>
      </trkpt>
      <trkpt lat="45.09443" lon="5.60296">
        <ele>1453.199951172</ele>
        <time>2013-02-20T15:41:40Z</time>
      </trkpt>
      <trkpt lat="45.09437" lon="5.603">
        <ele>1454.199951172</ele>
        <time>2013-02-20T15:41:45Z</time>
      </trkpt>
      <trkpt lat="45.09435" lon="5.60302">
        <ele>1454.599975586</ele>
        <time>2013-02-20T15:41:48Z</time>
      </trkpt>
      <trkpt lat="45.09431" lon="5.60302">
        <ele>1455.199951172</ele>
        <time>2013-02-20T15:41:50Z</time>
      </trkpt>
      <trkpt lat="45.09429" lon="5.60304">
        <ele>1455.800048828</ele>
        <time>2013-02-20T15:41:53Z</time>
      </trkpt>
      <trkpt lat="45.09428" lon="5.60304">
        <ele>1456</ele>
        <time>2013-02-20T15:41:54Z</time>
      </trkpt>
      <trkpt lat="45.09427" lon="5.60304">
        <ele>1456</ele>
        <time>2013-02-20T15:41:55Z</time>
      </trkpt>
      <trkpt lat="45.09423" lon="5.60306">
        <ele>1457</ele>
        <time>2013-02-20T15:41:59Z</time>
      </trkpt>
      <trkpt lat="45.09421" lon="5.60307">
        <ele>1457.400024414</ele>
        <time>2013-02-20T15:42:01Z</time>
      </trkpt>
      <trkpt lat="45.09416" lon="5.60309">
        <ele>1458.199951172</ele>
        <time>2013-02-20T15:42:06Z</time>
      </trkpt>
      <trkpt lat="45.09412" lon="5.60312">
        <ele>1459</ele>
        <time>2013-02-20T15:42:10Z</time>
      </trkpt>
      <trkpt lat="45.09409" lon="5.60313">
        <ele>1459.400024414</ele>
        <time>2013-02-20T15:42:12Z</time>
      </trkpt>
      <trkpt lat="45.09409" lon="5.60315">
        <ele>1459.599975586</ele>
        <time>2013-02-20T15:42:14Z</time>
      </trkpt>
      <trkpt lat="45.09404" lon="5.60323">
        <ele>1461</ele>
        <time>2013-02-20T15:42:21Z</time>
      </trkpt>
      <trkpt lat="45.09402" lon="5.60328">
        <ele>1461.599975586</ele>
        <time>2013-02-20T15:42:25Z</time>
      </trkpt>
      <trkpt lat="45.09402" lon="5.60328">
        <ele>1461.599975586</ele>
        <time>2013-02-20T15:42:26Z</time>
      </trkpt>
      <trkpt lat="45.09401" lon="5.60334">
        <ele>1462.400024414</ele>
        <time>2013-02-20T15:42:30Z</time>
      </trkpt>
      <trkpt lat="45.09399" lon="5.60338">
        <ele>1463.199951172</ele>
        <time>2013-02-20T15:42:34Z</time>
      </trkpt>
      <trkpt lat="45.09399" lon="5.60344">
        <ele>1464</ele>
        <time>2013-02-20T15:42:38Z</time>
      </trkpt>
      <trkpt lat="45.09398" lon="5.60351">
        <ele>1465</ele>
        <time>2013-02-20T15:42:41Z</time>
      </trkpt>
      <trkpt lat="45.09395" lon="5.60359">
        <ele>1466.599975586</ele>
        <time>2013-02-20T15:42:46Z</time>
      </trkpt>
      <trkpt lat="45.09394" lon="5.60362">
        <ele>1467.400024414</ele>
        <time>2013-02-20T15:42:49Z</time>
      </trkpt>
      <trkpt lat="45.09393" lon="5.60363">
        <ele>1467.599975586</ele>
        <time>2013-02-20T15:42:50Z</time>
      </trkpt>
      <trkpt lat="45.09392" lon="5.6037">
        <ele>1468.800048828</ele>
        <time>2013-02-20T15:42:55Z</time>
      </trkpt>
      <trkpt lat="45.09392" lon="5.6037">
        <ele>1468.800048828</ele>
        <time>2013-02-20T15:42:56Z</time>
      </trkpt>
      <trkpt lat="45.09391" lon="5.60374">
        <ele>1469.599975586</ele>
        <time>2013-02-20T15:43:00Z</time>
      </trkpt>
      <trkpt lat="45.09391" lon="5.60376">
        <ele>1469.599975586</ele>
        <time>2013-02-20T15:43:01Z</time>
      </trkpt>
      <trkpt lat="45.09391" lon="5.60382">
        <ele>1470.599975586</ele>
        <time>2013-02-20T15:43:06Z</time>
      </trkpt>
      <trkpt lat="45.0939" lon="5.60387">
        <ele>1471.400024414</ele>
        <time>2013-02-20T15:43:09Z</time>
      </trkpt>
      <trkpt lat="45.0939" lon="5.60391">
        <ele>1472</ele>
        <time>2013-02-20T15:43:11Z</time>
      </trkpt>
      <trkpt lat="45.09389" lon="5.60394">
        <ele>1472.599975586</ele>
        <time>2013-02-20T15:43:13Z</time>
      </trkpt>
      <trkpt lat="45.09389" lon="5.60396">
        <ele>1473</ele>
        <time>2013-02-20T15:43:15Z</time>
      </trkpt>
      <trkpt lat="45.09387" lon="5.60402">
        <ele>1474</ele>
        <time>2013-02-20T15:43:20Z</time>
      </trkpt>
      <trkpt lat="45.09384" lon="5.60404">
        <ele>1474.599975586</ele>
        <time>2013-02-20T15:43:24Z</time>
      </trkpt>
      <trkpt lat="45.09381" lon="5.60408">
        <ele>1475.599975586</ele>
        <time>2013-02-20T15:43:30Z</time>
      </trkpt>
      <trkpt lat="45.0938" lon="5.60413">
        <ele>1476.400024414</ele>
        <time>2013-02-20T15:43:36Z</time>
      </trkpt>
      <trkpt lat="45.09378" lon="5.60417">
        <ele>1477.199951172</ele>
        <time>2013-02-20T15:43:40Z</time>
      </trkpt>
      <trkpt lat="45.09376" lon="5.60421">
        <ele>1478.199951172</ele>
        <time>2013-02-20T15:43:44Z</time>
      </trkpt>
      <trkpt lat="45.09375" lon="5.60422">
        <ele>1478.599975586</ele>
        <time>2013-02-20T15:43:45Z</time>
      </trkpt>
      <trkpt lat="45.09374" lon="5.60427">
        <ele>1479.800048828</ele>
        <time>2013-02-20T15:43:51Z</time>
      </trkpt>
      <trkpt lat="45.09373" lon="5.6043">
        <ele>1480.400024414</ele>
        <time>2013-02-20T15:43:56Z</time>
      </trkpt>
      <trkpt lat="45.09372" lon="5.60433">
        <ele>1481.199951172</ele>
        <time>2013-02-20T15:44:01Z</time>
      </trkpt>
      <trkpt lat="45.09373" lon="5.60437">
        <ele>1482</ele>
        <time>2013-02-20T15:44:04Z</time>
      </trkpt>
      <trkpt lat="45.09373" lon="5.60438">
        <ele>1482.199951172</ele>
        <time>2013-02-20T15:44:05Z</time>
      </trkpt>
      <trkpt lat="45.09371" lon="5.6044">
        <ele>1482.800048828</ele>
        <time>2013-02-20T15:44:08Z</time>
      </trkpt>
      <trkpt lat="45.0937" lon="5.60444">
        <ele>1483.800048828</ele>
        <time>2013-02-20T15:44:13Z</time>
      </trkpt>
      <trkpt lat="45.0937" lon="5.60449">
        <ele>1484.800048828</ele>
        <time>2013-02-20T15:44:17Z</time>
      </trkpt>
      <trkpt lat="45.09367" lon="5.60452">
        <ele>1485.800048828</ele>
        <time>2013-02-20T15:44:21Z</time>
      </trkpt>
      <trkpt lat="45.09367" lon="5.60455">
        <ele>1486.400024414</ele>
        <time>2013-02-20T15:44:25Z</time>
      </trkpt>
      <trkpt lat="45.09366" lon="5.60457">
        <ele>1487</ele>
        <time>2013-02-20T15:44:26Z</time>
      </trkpt>
      <trkpt lat="45.09365" lon="5.60461">
        <ele>1488</ele>
        <time>2013-02-20T15:44:29Z</time>
      </trkpt>
      <trkpt lat="45.09367" lon="5.60464">
        <ele>1488.400024414</ele>
        <time>2013-02-20T15:44:32Z</time>
      </trkpt>
      <trkpt lat="45.09367" lon="5.60466">
        <ele>1488.800048828</ele>
        <time>2013-02-20T15:44:33Z</time>
      </trkpt>
      <trkpt lat="45.09366" lon="5.60466">
        <ele>1488.800048828</ele>
        <time>2013-02-20T15:44:34Z</time>
      </trkpt>
      <trkpt lat="45.09366" lon="5.60469">
        <ele>1489.599975586</ele>
        <time>2013-02-20T15:44:37Z</time>
      </trkpt>
      <trkpt lat="45.09366" lon="5.60472">
        <ele>1490.199951172</ele>
        <time>2013-02-20T15:44:39Z</time>
      </trkpt>
      <trkpt lat="45.09363" lon="5.60481">
        <ele>1492.400024414</ele>
        <time>2013-02-20T15:44:44Z</time>
      </trkpt>
      <trkpt lat="45.09363" lon="5.60483">
        <ele>1492.800048828</ele>
        <time>2013-02-20T15:44:45Z</time>
      </trkpt>
      <trkpt lat="45.09363" lon="5.60486">
        <ele>1493.400024414</ele>
        <time>2013-02-20T15:44:48Z</time>
      </trkpt>
      <trkpt lat="45.09361" lon="5.60489">
        <ele>1494.199951172</ele>
        <time>2013-02-20T15:44:50Z</time>
      </trkpt>
      <trkpt lat="45.09358" lon="5.60493">
        <ele>1495.400024414</ele>
        <time>2013-02-20T15:44:53Z</time>
      </trkpt>
      <trkpt lat="45.09358" lon="5.60495">
        <ele>1495.800048828</ele>
        <time>2013-02-20T15:44:54Z</time>
      </trkpt>
      <trkpt lat="45.09354" lon="5.60501">
        <ele>1497.400024414</ele>
        <time>2013-02-20T15:44:59Z</time>
      </trkpt>
      <trkpt lat="45.09353" lon="5.60506">
        <ele>1498.599975586</ele>
        <time>2013-02-20T15:45:04Z</time>
      </trkpt>
      <trkpt lat="45.09353" lon="5.60507">
        <ele>1498.800048828</ele>
        <time>2013-02-20T15:45:05Z</time>
      </trkpt>
      <trkpt lat="45.09353" lon="5.60509">
        <ele>1499.199951172</ele>
        <time>2013-02-20T15:45:07Z</time>
      </trkpt>
      <trkpt lat="45.09353" lon="5.6051">
        <ele>1499.400024414</ele>
        <time>2013-02-20T15:45:08Z</time>
      </trkpt>
      <trkpt lat="45.09353" lon="5.60511">
        <ele>1499.599975586</ele>
        <time>2013-02-20T15:45:09Z</time>
      </trkpt>
      <trkpt lat="45.09353" lon="5.60512">
        <ele>1500</ele>
        <time>2013-02-20T15:45:12Z</time>
      </trkpt>
      <trkpt lat="45.09352" lon="5.60514">
        <ele>1500.599975586</ele>
        <time>2013-02-20T15:45:16Z</time>
      </trkpt>
      <trkpt lat="45.0935" lon="5.60517">
        <ele>1501.199951172</ele>
        <time>2013-02-20T15:45:20Z</time>
      </trkpt>
      <trkpt lat="45.0935" lon="5.60519">
        <ele>1501.800048828</ele>
        <time>2013-02-20T15:45:24Z</time>
      </trkpt>
      <trkpt lat="45.09348" lon="5.6052">
        <ele>1502.199951172</ele>
        <time>2013-02-20T15:45:25Z</time>
      </trkpt>
      <trkpt lat="45.09349" lon="5.60524">
        <ele>1502.800048828</ele>
        <time>2013-02-20T15:45:27Z</time>
      </trkpt>
      <trkpt lat="45.0935" lon="5.60524">
        <ele>1502.800048828</ele>
        <time>2013-02-20T15:45:28Z</time>
      </trkpt>
      <trkpt lat="45.0935" lon="5.60527">
        <ele>1503.599975586</ele>
        <time>2013-02-20T15:45:32Z</time>
      </trkpt>
      <trkpt lat="45.0935" lon="5.60529">
        <ele>1503.800048828</ele>
        <time>2013-02-20T15:45:33Z</time>
      </trkpt>
      <trkpt lat="45.09351" lon="5.60531">
        <ele>1504.199951172</ele>
        <time>2013-02-20T15:45:37Z</time>
      </trkpt>
      <trkpt lat="45.0935" lon="5.60533">
        <ele>1504.800048828</ele>
        <time>2013-02-20T15:45:40Z</time>
      </trkpt>
      <trkpt lat="45.09349" lon="5.60534">
        <ele>1505</ele>
        <time>2013-02-20T15:45:42Z</time>
      </trkpt>
      <trkpt lat="45.09347" lon="5.60536">
        <ele>1505.800048828</ele>
        <time>2013-02-20T15:45:44Z</time>
      </trkpt>
      <trkpt lat="45.09348" lon="5.60539">
        <ele>1506.400024414</ele>
        <time>2013-02-20T15:45:46Z</time>
      </trkpt>
      <trkpt lat="45.09349" lon="5.60543">
        <ele>1507</ele>
        <time>2013-02-20T15:45:50Z</time>
      </trkpt>
      <trkpt lat="45.0935" lon="5.60544">
        <ele>1507.199951172</ele>
        <time>2013-02-20T15:45:54Z</time>
      </trkpt>
      <trkpt lat="45.09349" lon="5.60547">
        <ele>1508</ele>
        <time>2013-02-20T15:45:58Z</time>
      </trkpt>
      <trkpt lat="45.09347" lon="5.60551">
        <ele>1508.800048828</ele>
        <time>2013-02-20T15:46:03Z</time>
      </trkpt>
      <trkpt lat="45.09348" lon="5.60552">
        <ele>1509</ele>
        <time>2013-02-20T15:46:07Z</time>
      </trkpt>
      <trkpt lat="45.09346" lon="5.60555">
        <ele>1509.800048828</ele>
        <time>2013-02-20T15:46:09Z</time>
      </trkpt>
      <trkpt lat="45.09345" lon="5.60557">
        <ele>1510.400024414</ele>
        <time>2013-02-20T15:46:11Z</time>
      </trkpt>
      <trkpt lat="45.09345" lon="5.60559">
        <ele>1510.800048828</ele>
        <time>2013-02-20T15:46:13Z</time>
      </trkpt>
      <trkpt lat="45.09344" lon="5.60561">
        <ele>1511.400024414</ele>
        <time>2013-02-20T15:46:15Z</time>
      </trkpt>
      <trkpt lat="45.09344" lon="5.60562">
        <ele>1511.400024414</ele>
        <time>2013-02-20T15:46:16Z</time>
      </trkpt>
      <trkpt lat="45.09346" lon="5.60565">
        <ele>1512.199951172</ele>
        <time>2013-02-20T15:46:20Z</time>
      </trkpt>
      <trkpt lat="45.09345" lon="5.60569">
        <ele>1513.199951172</ele>
        <time>2013-02-20T15:46:24Z</time>
      </trkpt>
      <trkpt lat="45.09343" lon="5.60573">
        <ele>1514</ele>
        <time>2013-02-20T15:46:28Z</time>
      </trkpt>
      <trkpt lat="45.09342" lon="5.60574">
        <ele>1514.400024414</ele>
        <time>2013-02-20T15:46:29Z</time>
      </trkpt>
      <trkpt lat="45.09343" lon="5.60575">
        <ele>1514.400024414</ele>
        <time>2013-02-20T15:46:30Z</time>
      </trkpt>
      <trkpt lat="45.09343" lon="5.60577">
        <ele>1514.800048828</ele>
        <time>2013-02-20T15:46:31Z</time>
      </trkpt>
      <trkpt lat="45.09343" lon="5.60579">
        <ele>1515.400024414</ele>
        <time>2013-02-20T15:46:34Z</time>
      </trkpt>
      <trkpt lat="45.09344" lon="5.6058">
        <ele>1515.599975586</ele>
        <time>2013-02-20T15:46:35Z</time>
      </trkpt>
      <trkpt lat="45.09345" lon="5.60583">
        <ele>1516.199951172</ele>
        <time>2013-02-20T15:46:38Z</time>
      </trkpt>
      <trkpt lat="45.09346" lon="5.60586">
        <ele>1517</ele>
        <time>2013-02-20T15:46:42Z</time>
      </trkpt>
      <trkpt lat="45.09348" lon="5.60589">
        <ele>1517.800048828</ele>
        <time>2013-02-20T15:46:46Z</time>
      </trkpt>
      <trkpt lat="45.09349" lon="5.60592">
        <ele>1518.800048828</ele>
        <time>2013-02-20T15:46:51Z</time>
      </trkpt>
      <trkpt lat="45.09352" lon="5.60593">
        <ele>1519</ele>
        <time>2013-02-20T15:46:55Z</time>
      </trkpt>
      <trkpt lat="45.09353" lon="5.60595">
        <ele>1519.800048828</ele>
        <time>2013-02-20T15:47:00Z</time>
      </trkpt>
      <trkpt lat="45.09352" lon="5.60599">
        <ele>1520.800048828</ele>
        <time>2013-02-20T15:47:13Z</time>
      </trkpt>
      <trkpt lat="45.09352" lon="5.60601">
        <ele>1521.599975586</ele>
        <time>2013-02-20T15:47:16Z</time>
      </trkpt>
      <trkpt lat="45.09355" lon="5.60602">
        <ele>1521.800048828</ele>
        <time>2013-02-20T15:47:20Z</time>
      </trkpt>
      <trkpt lat="45.09357" lon="5.60604">
        <ele>1522.400024414</ele>
        <time>2013-02-20T15:47:24Z</time>
      </trkpt>
      <trkpt lat="45.0936" lon="5.60606">
        <ele>1522.800048828</ele>
        <time>2013-02-20T15:47:28Z</time>
      </trkpt>
      <trkpt lat="45.09361" lon="5.6061">
        <ele>1524.199951172</ele>
        <time>2013-02-20T15:47:32Z</time>
      </trkpt>
      <trkpt lat="45.09364" lon="5.60614">
        <ele>1525.199951172</ele>
        <time>2013-02-20T15:47:37Z</time>
      </trkpt>
      <trkpt lat="45.09366" lon="5.60615">
        <ele>1525.599975586</ele>
        <time>2013-02-20T15:47:39Z</time>
      </trkpt>
      <trkpt lat="45.09366" lon="5.60616">
        <ele>1525.800048828</ele>
        <time>2013-02-20T15:47:41Z</time>
      </trkpt>
      <trkpt lat="45.0937" lon="5.60618">
        <ele>1526.400024414</ele>
        <time>2013-02-20T15:47:46Z</time>
      </trkpt>
      <trkpt lat="45.09372" lon="5.6062">
        <ele>1526.800048828</ele>
        <time>2013-02-20T15:47:48Z</time>
      </trkpt>
      <trkpt lat="45.09373" lon="5.60621">
        <ele>1527</ele>
        <time>2013-02-20T15:47:50Z</time>
      </trkpt>
      <trkpt lat="45.09374" lon="5.60622">
        <ele>1527.400024414</ele>
        <time>2013-02-20T15:47:51Z</time>
      </trkpt>
      <trkpt lat="45.09375" lon="5.60624">
        <ele>1528</ele>
        <time>2013-02-20T15:47:54Z</time>
      </trkpt>
      <trkpt lat="45.09377" lon="5.60628">
        <ele>1529.199951172</ele>
        <time>2013-02-20T15:47:58Z</time>
      </trkpt>
      <trkpt lat="45.09377" lon="5.6063">
        <ele>1529.800048828</ele>
        <time>2013-02-20T15:47:59Z</time>
      </trkpt>
      <trkpt lat="45.09379" lon="5.60631">
        <ele>1530.199951172</ele>
        <time>2013-02-20T15:48:01Z</time>
      </trkpt>
      <trkpt lat="45.09381" lon="5.60633">
        <ele>1530.599975586</ele>
        <time>2013-02-20T15:48:04Z</time>
      </trkpt>
      <trkpt lat="45.09382" lon="5.60633">
        <ele>1530.800048828</ele>
        <time>2013-02-20T15:48:06Z</time>
      </trkpt>
      <trkpt lat="45.09384" lon="5.60635">
        <ele>1531.400024414</ele>
        <time>2013-02-20T15:48:09Z</time>
      </trkpt>
      <trkpt lat="45.09386" lon="5.60636">
        <ele>1531.599975586</ele>
        <time>2013-02-20T15:48:14Z</time>
      </trkpt>
      <trkpt lat="45.09389" lon="5.60639">
        <ele>1532.400024414</ele>
        <time>2013-02-20T15:48:19Z</time>
      </trkpt>
      <trkpt lat="45.09393" lon="5.6064">
        <ele>1532.599975586</ele>
        <time>2013-02-20T15:48:23Z</time>
      </trkpt>
      <trkpt lat="45.09396" lon="5.60642">
        <ele>1533.400024414</ele>
        <time>2013-02-20T15:48:27Z</time>
      </trkpt>
      <trkpt lat="45.09399" lon="5.60646">
        <ele>1534.400024414</ele>
        <time>2013-02-20T15:48:32Z</time>
      </trkpt>
      <trkpt lat="45.094" lon="5.60647">
        <ele>1535</ele>
        <time>2013-02-20T15:48:35Z</time>
      </trkpt>
      <trkpt lat="45.09402" lon="5.6065">
        <ele>1535.800048828</ele>
        <time>2013-02-20T15:48:39Z</time>
      </trkpt>
      <trkpt lat="45.09403" lon="5.60652">
        <ele>1536.199951172</ele>
        <time>2013-02-20T15:48:43Z</time>
      </trkpt>
      <trkpt lat="45.09404" lon="5.60654">
        <ele>1537</ele>
        <time>2013-02-20T15:48:47Z</time>
      </trkpt>
      <trkpt lat="45.09407" lon="5.60656">
        <ele>1537.599975586</ele>
        <time>2013-02-20T15:48:51Z</time>
      </trkpt>
      <trkpt lat="45.09408" lon="5.60658">
        <ele>1538</ele>
        <time>2013-02-20T15:48:55Z</time>
      </trkpt>
      <trkpt lat="45.0941" lon="5.6066">
        <ele>1538.800048828</ele>
        <time>2013-02-20T15:48:58Z</time>
      </trkpt>
      <trkpt lat="45.09413" lon="5.60663">
        <ele>1539.599975586</ele>
        <time>2013-02-20T15:49:03Z</time>
      </trkpt>
      <trkpt lat="45.09415" lon="5.60666">
        <ele>1540.599975586</ele>
        <time>2013-02-20T15:49:08Z</time>
      </trkpt>
      <trkpt lat="45.09417" lon="5.60669">
        <ele>1542.199951172</ele>
        <time>2013-02-20T15:49:12Z</time>
      </trkpt>
      <trkpt lat="45.0942" lon="5.60672">
        <ele>1543.400024414</ele>
        <time>2013-02-20T15:49:15Z</time>
      </trkpt>
      <trkpt lat="45.09422" lon="5.60675">
        <ele>1544.599975586</ele>
        <time>2013-02-20T15:49:20Z</time>
      </trkpt>
      <trkpt lat="45.09424" lon="5.60678">
        <ele>1546</ele>
        <time>2013-02-20T15:49:25Z</time>
      </trkpt>
      <trkpt lat="45.09426" lon="5.6068">
        <ele>1546.800048828</ele>
        <time>2013-02-20T15:49:29Z</time>
      </trkpt>
      <trkpt lat="45.09429" lon="5.60682">
        <ele>1548</ele>
        <time>2013-02-20T15:49:33Z</time>
      </trkpt>
      <trkpt lat="45.09432" lon="5.60684">
        <ele>1549</ele>
        <time>2013-02-20T15:49:38Z</time>
      </trkpt>
      <trkpt lat="45.09435" lon="5.60687">
        <ele>1550</ele>
        <time>2013-02-20T15:49:42Z</time>
      </trkpt>
      <trkpt lat="45.09436" lon="5.60688">
        <ele>1550.599975586</ele>
        <time>2013-02-20T15:49:46Z</time>
      </trkpt>
      <trkpt lat="45.09437" lon="5.6069">
        <ele>1551.199951172</ele>
        <time>2013-02-20T15:49:47Z</time>
      </trkpt>
      <trkpt lat="45.09439" lon="5.6069">
        <ele>1551.400024414</ele>
        <time>2013-02-20T15:49:49Z</time>
      </trkpt>
      <trkpt lat="45.09441" lon="5.60693">
        <ele>1552.400024414</ele>
        <time>2013-02-20T15:49:53Z</time>
      </trkpt>
      <trkpt lat="45.09443" lon="5.60695">
        <ele>1553.599975586</ele>
        <time>2013-02-20T15:49:57Z</time>
      </trkpt>
      <trkpt lat="45.09447" lon="5.60699">
        <ele>1555</ele>
        <time>2013-02-20T15:50:04Z</time>
      </trkpt>
      <trkpt lat="45.0945" lon="5.607">
        <ele>1555.400024414</ele>
        <time>2013-02-20T15:50:08Z</time>
      </trkpt>
      <trkpt lat="45.09452" lon="5.60703">
        <ele>1556.800048828</ele>
        <time>2013-02-20T15:50:12Z</time>
      </trkpt>
      <trkpt lat="45.09455" lon="5.60705">
        <ele>1557.800048828</ele>
        <time>2013-02-20T15:50:16Z</time>
      </trkpt>
      <trkpt lat="45.09457" lon="5.60707">
        <ele>1558.599975586</ele>
        <time>2013-02-20T15:50:21Z</time>
      </trkpt>
      <trkpt lat="45.0946" lon="5.60709">
        <ele>1559.199951172</ele>
        <time>2013-02-20T15:50:27Z</time>
      </trkpt>
      <trkpt lat="45.09462" lon="5.6071">
        <ele>1559.599975586</ele>
        <time>2013-02-20T15:50:31Z</time>
      </trkpt>
      <trkpt lat="45.09463" lon="5.60713">
        <ele>1560.599975586</ele>
        <time>2013-02-20T15:50:35Z</time>
      </trkpt>
      <trkpt lat="45.09466" lon="5.60715">
        <ele>1561.599975586</ele>
        <time>2013-02-20T15:50:40Z</time>
      </trkpt>
      <trkpt lat="45.09468" lon="5.60717">
        <ele>1562.400024414</ele>
        <time>2013-02-20T15:50:43Z</time>
      </trkpt>
      <trkpt lat="45.0947" lon="5.6072">
        <ele>1563.400024414</ele>
        <time>2013-02-20T15:50:47Z</time>
      </trkpt>
      <trkpt lat="45.09472" lon="5.60723">
        <ele>1565</ele>
        <time>2013-02-20T15:50:52Z</time>
      </trkpt>
      <trkpt lat="45.09475" lon="5.60727">
        <ele>1566.400024414</ele>
        <time>2013-02-20T15:50:57Z</time>
      </trkpt>
      <trkpt lat="45.09481" lon="5.60731">
        <ele>1567.800048828</ele>
        <time>2013-02-20T15:51:03Z</time>
      </trkpt>
      <trkpt lat="45.09485" lon="5.60735">
        <ele>1569.199951172</ele>
        <time>2013-02-20T15:51:09Z</time>
      </trkpt>
      <trkpt lat="45.09487" lon="5.60736">
        <ele>1569.599975586</ele>
        <time>2013-02-20T15:51:13Z</time>
      </trkpt>
      <trkpt lat="45.09491" lon="5.60738">
        <ele>1570.400024414</ele>
        <time>2013-02-20T15:51:18Z</time>
      </trkpt>
      <trkpt lat="45.09494" lon="5.6074">
        <ele>1571.199951172</ele>
        <time>2013-02-20T15:51:22Z</time>
      </trkpt>
      <trkpt lat="45.09497" lon="5.60743">
        <ele>1571.800048828</ele>
        <time>2013-02-20T15:51:26Z</time>
      </trkpt>
      <trkpt lat="45.09501" lon="5.60746">
        <ele>1573</ele>
        <time>2013-02-20T15:51:31Z</time>
      </trkpt>
      <trkpt lat="45.09503" lon="5.60747">
        <ele>1573.599975586</ele>
        <time>2013-02-20T15:51:35Z</time>
      </trkpt>
      <trkpt lat="45.09504" lon="5.60749">
        <ele>1574</ele>
        <time>2013-02-20T15:51:36Z</time>
      </trkpt>
      <trkpt lat="45.09507" lon="5.60752">
        <ele>1575.400024414</ele>
        <time>2013-02-20T15:51:41Z</time>
      </trkpt>
      <trkpt lat="45.09509" lon="5.60754">
        <ele>1576.199951172</ele>
        <time>2013-02-20T15:51:43Z</time>
      </trkpt>
      <trkpt lat="45.0951" lon="5.60756">
        <ele>1577.199951172</ele>
        <time>2013-02-20T15:51:46Z</time>
      </trkpt>
      <trkpt lat="45.09512" lon="5.60759">
        <ele>1578.199951172</ele>
        <time>2013-02-20T15:51:50Z</time>
      </trkpt>
      <trkpt lat="45.09515" lon="5.60763">
        <ele>1580</ele>
        <time>2013-02-20T15:51:54Z</time>
      </trkpt>
      <trkpt lat="45.09517" lon="5.60765">
        <ele>1580.599975586</ele>
        <time>2013-02-20T15:51:58Z</time>
      </trkpt>
      <trkpt lat="45.0952" lon="5.60768">
        <ele>1581.599975586</ele>
        <time>2013-02-20T15:52:04Z</time>
      </trkpt>
      <trkpt lat="45.09522" lon="5.6077">
        <ele>1582.599975586</ele>
        <time>2013-02-20T15:52:08Z</time>
      </trkpt>
      <trkpt lat="45.09524" lon="5.60773">
        <ele>1583.800048828</ele>
        <time>2013-02-20T15:52:12Z</time>
      </trkpt>
      <trkpt lat="45.09526" lon="5.60775">
        <ele>1584.400024414</ele>
        <time>2013-02-20T15:52:16Z</time>
      </trkpt>
      <trkpt lat="45.09529" lon="5.60778">
        <ele>1585.599975586</ele>
        <time>2013-02-20T15:52:21Z</time>
      </trkpt>
      <trkpt lat="45.09532" lon="5.60781">
        <ele>1586.599975586</ele>
        <time>2013-02-20T15:52:26Z</time>
      </trkpt>
      <trkpt lat="45.09533" lon="5.60781">
        <ele>1586.800048828</ele>
        <time>2013-02-20T15:52:30Z</time>
      </trkpt>
      <trkpt lat="45.09535" lon="5.60783">
        <ele>1587.400024414</ele>
        <time>2013-02-20T15:52:34Z</time>
      </trkpt>
      <trkpt lat="45.09538" lon="5.60785">
        <ele>1588</ele>
        <time>2013-02-20T15:52:37Z</time>
      </trkpt>
      <trkpt lat="45.09539" lon="5.60786">
        <ele>1588.400024414</ele>
        <time>2013-02-20T15:52:41Z</time>
      </trkpt>
      <trkpt lat="45.09541" lon="5.60787">
        <ele>1588.599975586</ele>
        <time>2013-02-20T15:52:45Z</time>
      </trkpt>
      <trkpt lat="45.09543" lon="5.60787">
        <ele>1588.800048828</ele>
        <time>2013-02-20T15:52:49Z</time>
      </trkpt>
      <trkpt lat="45.09545" lon="5.60787">
        <ele>1588.599975586</ele>
        <time>2013-02-20T15:52:53Z</time>
      </trkpt>
      <trkpt lat="45.09548" lon="5.60784">
        <ele>1587.400024414</ele>
        <time>2013-02-20T15:52:59Z</time>
      </trkpt>
      <trkpt lat="45.09548" lon="5.60784">
        <ele>1587.199951172</ele>
        <time>2013-02-20T15:53:09Z</time>
      </trkpt>
      <trkpt lat="45.09547" lon="5.60786">
        <ele>1588</ele>
        <time>2013-02-20T15:54:54Z</time>
      </trkpt>
      <trkpt lat="45.09544" lon="5.6079">
        <ele>1589.800048828</ele>
        <time>2013-02-20T15:55:08Z</time>
      </trkpt>
      <trkpt lat="45.09542" lon="5.60792">
        <ele>1591</ele>
        <time>2013-02-20T15:55:10Z</time>
      </trkpt>
      <trkpt lat="45.0954" lon="5.60795">
        <ele>1592</ele>
        <time>2013-02-20T15:55:13Z</time>
      </trkpt>
      <trkpt lat="45.09538" lon="5.60796">
        <ele>1592.599975586</ele>
        <time>2013-02-20T15:55:15Z</time>
      </trkpt>
      <trkpt lat="45.09534" lon="5.60799">
        <ele>1594</ele>
        <time>2013-02-20T15:55:19Z</time>
      </trkpt>
      <trkpt lat="45.09533" lon="5.608">
        <ele>1594.599975586</ele>
        <time>2013-02-20T15:55:20Z</time>
      </trkpt>
      <trkpt lat="45.09529" lon="5.60804">
        <ele>1596.400024414</ele>
        <time>2013-02-20T15:55:25Z</time>
      </trkpt>
      <trkpt lat="45.09528" lon="5.60805">
        <ele>1596.599975586</ele>
        <time>2013-02-20T15:55:26Z</time>
      </trkpt>
      <trkpt lat="45.09528" lon="5.60806">
        <ele>1597.199951172</ele>
        <time>2013-02-20T15:55:27Z</time>
      </trkpt>
      <trkpt lat="45.09525" lon="5.60807">
        <ele>1597.800048828</ele>
        <time>2013-02-20T15:55:30Z</time>
      </trkpt>
      <trkpt lat="45.09517" lon="5.60809">
        <ele>1599</ele>
        <time>2013-02-20T15:55:37Z</time>
      </trkpt>
      <trkpt lat="45.09509" lon="5.6081">
        <ele>1599.800048828</ele>
        <time>2013-02-20T15:55:45Z</time>
      </trkpt>
      <trkpt lat="45.09502" lon="5.6081">
        <ele>1600.199951172</ele>
        <time>2013-02-20T15:55:51Z</time>
      </trkpt>
      <trkpt lat="45.09502" lon="5.60811">
        <ele>1600.400024414</ele>
        <time>2013-02-20T15:55:52Z</time>
      </trkpt>
      <trkpt lat="45.09498" lon="5.60811">
        <ele>1600.800048828</ele>
        <time>2013-02-20T15:55:56Z</time>
      </trkpt>
      <trkpt lat="45.09496" lon="5.60812">
        <ele>1601.199951172</ele>
        <time>2013-02-20T15:55:58Z</time>
      </trkpt>
      <trkpt lat="45.09493" lon="5.60812">
        <ele>1601.599975586</ele>
        <time>2013-02-20T15:56:01Z</time>
      </trkpt>
      <trkpt lat="45.09492" lon="5.60812">
        <ele>1601.800048828</ele>
        <time>2013-02-20T15:56:03Z</time>
      </trkpt>
      <trkpt lat="45.09491" lon="5.60813">
        <ele>1602.199951172</ele>
        <time>2013-02-20T15:56:05Z</time>
      </trkpt>
      <trkpt lat="45.09488" lon="5.60814">
        <ele>1602.599975586</ele>
        <time>2013-02-20T15:56:08Z</time>
      </trkpt>
      <trkpt lat="45.09483" lon="5.60814">
        <ele>1603.199951172</ele>
        <time>2013-02-20T15:56:13Z</time>
      </trkpt>
      <trkpt lat="45.0948" lon="5.60814">
        <ele>1603.400024414</ele>
        <time>2013-02-20T15:56:17Z</time>
      </trkpt>
      <trkpt lat="45.09479" lon="5.60815">
        <ele>1603.800048828</ele>
        <time>2013-02-20T15:56:18Z</time>
      </trkpt>
      <trkpt lat="45.09477" lon="5.60815">
        <ele>1604</ele>
        <time>2013-02-20T15:56:20Z</time>
      </trkpt>
      <trkpt lat="45.09475" lon="5.60816">
        <ele>1604.599975586</ele>
        <time>2013-02-20T15:56:23Z</time>
      </trkpt>
      <trkpt lat="45.09472" lon="5.60818">
        <ele>1605.599975586</ele>
        <time>2013-02-20T15:56:27Z</time>
      </trkpt>
      <trkpt lat="45.0947" lon="5.60818">
        <ele>1606</ele>
        <time>2013-02-20T15:56:31Z</time>
      </trkpt>
      <trkpt lat="45.09465" lon="5.60819">
        <ele>1606.599975586</ele>
        <time>2013-02-20T15:56:36Z</time>
      </trkpt>
      <trkpt lat="45.09461" lon="5.60819">
        <ele>1607.199951172</ele>
        <time>2013-02-20T15:56:41Z</time>
      </trkpt>
      <trkpt lat="45.09456" lon="5.6082">
        <ele>1607.800048828</ele>
        <time>2013-02-20T15:56:46Z</time>
      </trkpt>
      <trkpt lat="45.09454" lon="5.6082">
        <ele>1608.199951172</ele>
        <time>2013-02-20T15:56:49Z</time>
      </trkpt>
      <trkpt lat="45.09452" lon="5.60821">
        <ele>1608.800048828</ele>
        <time>2013-02-20T15:56:52Z</time>
      </trkpt>
      <trkpt lat="45.09447" lon="5.60823">
        <ele>1610</ele>
        <time>2013-02-20T15:56:57Z</time>
      </trkpt>
      <trkpt lat="45.09444" lon="5.60824">
        <ele>1610.599975586</ele>
        <time>2013-02-20T15:57:01Z</time>
      </trkpt>
      <trkpt lat="45.09441" lon="5.60824">
        <ele>1611</ele>
        <time>2013-02-20T15:57:04Z</time>
      </trkpt>
      <trkpt lat="45.09439" lon="5.60825">
        <ele>1611.400024414</ele>
        <time>2013-02-20T15:57:06Z</time>
      </trkpt>
      <trkpt lat="45.09436" lon="5.60826">
        <ele>1612.199951172</ele>
        <time>2013-02-20T15:57:09Z</time>
      </trkpt>
      <trkpt lat="45.09433" lon="5.60828">
        <ele>1613</ele>
        <time>2013-02-20T15:57:13Z</time>
      </trkpt>
      <trkpt lat="45.09431" lon="5.60829">
        <ele>1613.800048828</ele>
        <time>2013-02-20T15:57:15Z</time>
      </trkpt>
      <trkpt lat="45.09429" lon="5.60829">
        <ele>1614.199951172</ele>
        <time>2013-02-20T15:57:17Z</time>
      </trkpt>
      <trkpt lat="45.09428" lon="5.6083">
        <ele>1614.800048828</ele>
        <time>2013-02-20T15:57:19Z</time>
      </trkpt>
      <trkpt lat="45.09424" lon="5.60834">
        <ele>1616.400024414</ele>
        <time>2013-02-20T15:57:24Z</time>
      </trkpt>
      <trkpt lat="45.0942" lon="5.60836">
        <ele>1617</ele>
        <time>2013-02-20T15:57:29Z</time>
      </trkpt>
      <trkpt lat="45.09419" lon="5.60836">
        <ele>1617</ele>
        <time>2013-02-20T15:57:30Z</time>
      </trkpt>
      <trkpt lat="45.09417" lon="5.60837">
        <ele>1617.199951172</ele>
        <time>2013-02-20T15:57:32Z</time>
      </trkpt>
      <trkpt lat="45.09415" lon="5.60838">
        <ele>1617.599975586</ele>
        <time>2013-02-20T15:57:34Z</time>
      </trkpt>
      <trkpt lat="45.09413" lon="5.60839">
        <ele>1618</ele>
        <time>2013-02-20T15:57:37Z</time>
      </trkpt>
      <trkpt lat="45.09409" lon="5.6084">
        <ele>1618.599975586</ele>
        <time>2013-02-20T15:57:41Z</time>
      </trkpt>
      <trkpt lat="45.09403" lon="5.6084">
        <ele>1619.400024414</ele>
        <time>2013-02-20T15:57:47Z</time>
      </trkpt>
      <trkpt lat="45.09397" lon="5.6084">
        <ele>1620.199951172</ele>
        <time>2013-02-20T15:57:54Z</time>
      </trkpt>
      <trkpt lat="45.09397" lon="5.60841">
        <ele>1620.199951172</ele>
        <time>2013-02-20T15:57:55Z</time>
      </trkpt>
      <trkpt lat="45.09394" lon="5.60842">
        <ele>1620.599975586</ele>
        <time>2013-02-20T15:57:59Z</time>
      </trkpt>
      <trkpt lat="45.09391" lon="5.60843">
        <ele>1621.199951172</ele>
        <time>2013-02-20T15:58:04Z</time>
      </trkpt>
      <trkpt lat="45.09386" lon="5.60845">
        <ele>1622</ele>
        <time>2013-02-20T15:58:11Z</time>
      </trkpt>
      <trkpt lat="45.09381" lon="5.60845">
        <ele>1622.800048828</ele>
        <time>2013-02-20T15:58:17Z</time>
      </trkpt>
      <trkpt lat="45.09376" lon="5.60846">
        <ele>1623.599975586</ele>
        <time>2013-02-20T15:58:22Z</time>
      </trkpt>
      <trkpt lat="45.09371" lon="5.60848">
        <ele>1624.400024414</ele>
        <time>2013-02-20T15:58:28Z</time>
      </trkpt>
      <trkpt lat="45.09367" lon="5.6085">
        <ele>1625.199951172</ele>
        <time>2013-02-20T15:58:35Z</time>
      </trkpt>
      <trkpt lat="45.09364" lon="5.6085">
        <ele>1625.599975586</ele>
        <time>2013-02-20T15:58:49Z</time>
      </trkpt>
      <trkpt lat="45.09359" lon="5.60853">
        <ele>1626.800048828</ele>
        <time>2013-02-20T15:58:57Z</time>
      </trkpt>
      <trkpt lat="45.09355" lon="5.60855">
        <ele>1627.599975586</ele>
        <time>2013-02-20T15:59:00Z</time>
      </trkpt>
      <trkpt lat="45.09353" lon="5.60857">
        <ele>1628.199951172</ele>
        <time>2013-02-20T15:59:02Z</time>
      </trkpt>
      <trkpt lat="45.09351" lon="5.60858">
        <ele>1628.400024414</ele>
        <time>2013-02-20T15:59:03Z</time>
      </trkpt>
      <trkpt lat="45.09347" lon="5.60857">
        <ele>1628.800048828</ele>
        <time>2013-02-20T15:59:06Z</time>
      </trkpt>
      <trkpt lat="45.09341" lon="5.60859">
        <ele>1630</ele>
        <time>2013-02-20T15:59:11Z</time>
      </trkpt>
      <trkpt lat="45.0934" lon="5.6086">
        <ele>1630.199951172</ele>
        <time>2013-02-20T15:59:14Z</time>
      </trkpt>
      <trkpt lat="45.09337" lon="5.60866">
        <ele>1631.599975586</ele>
        <time>2013-02-20T15:59:31Z</time>
      </trkpt>
      <trkpt lat="45.09333" lon="5.60877">
        <ele>1633.599975586</ele>
        <time>2013-02-20T15:59:39Z</time>
      </trkpt>
      <trkpt lat="45.09326" lon="5.60887">
        <ele>1636</ele>
        <time>2013-02-20T15:59:44Z</time>
      </trkpt>
      <trkpt lat="45.09311" lon="5.60894">
        <ele>1638.199951172</ele>
        <time>2013-02-20T15:59:50Z</time>
      </trkpt>
      <trkpt lat="45.093" lon="5.60895">
        <ele>1639.400024414</ele>
        <time>2013-02-20T15:59:56Z</time>
      </trkpt>
      <trkpt lat="45.09292" lon="5.60905">
        <ele>1641.400024414</ele>
        <time>2013-02-20T16:00:02Z</time>
      </trkpt>
      <trkpt lat="45.09289" lon="5.60908">
        <ele>1642</ele>
        <time>2013-02-20T16:00:07Z</time>
      </trkpt>
      <trkpt lat="45.09286" lon="5.60911">
        <ele>1642.599975586</ele>
        <time>2013-02-20T16:00:11Z</time>
      </trkpt>
      <trkpt lat="45.0928" lon="5.60918">
        <ele>1643.800048828</ele>
        <time>2013-02-20T16:00:18Z</time>
      </trkpt>
      <trkpt lat="45.09275" lon="5.60925">
        <ele>1644.800048828</ele>
        <time>2013-02-20T16:00:25Z</time>
      </trkpt>
      <trkpt lat="45.09272" lon="5.60928">
        <ele>1645.400024414</ele>
        <time>2013-02-20T16:00:29Z</time>
      </trkpt>
      <trkpt lat="45.09267" lon="5.60933">
        <ele>1646.199951172</ele>
        <time>2013-02-20T16:00:36Z</time>
      </trkpt>
      <trkpt lat="45.09262" lon="5.60937">
        <ele>1647</ele>
        <time>2013-02-20T16:00:42Z</time>
      </trkpt>
      <trkpt lat="45.09256" lon="5.60942">
        <ele>1648.199951172</ele>
        <time>2013-02-20T16:00:48Z</time>
      </trkpt>
      <trkpt lat="45.09249" lon="5.60947">
        <ele>1649.199951172</ele>
        <time>2013-02-20T16:00:54Z</time>
      </trkpt>
      <trkpt lat="45.09243" lon="5.60949">
        <ele>1649.800048828</ele>
        <time>2013-02-20T16:01:00Z</time>
      </trkpt>
      <trkpt lat="45.0924" lon="5.60949">
        <ele>1650</ele>
        <time>2013-02-20T16:01:02Z</time>
      </trkpt>
      <trkpt lat="45.09238" lon="5.6095">
        <ele>1650.199951172</ele>
        <time>2013-02-20T16:01:05Z</time>
      </trkpt>
      <trkpt lat="45.09235" lon="5.60951">
        <ele>1650.400024414</ele>
        <time>2013-02-20T16:01:08Z</time>
      </trkpt>
      <trkpt lat="45.09233" lon="5.60951">
        <ele>1650.599975586</ele>
        <time>2013-02-20T16:01:10Z</time>
      </trkpt>
      <trkpt lat="45.0923" lon="5.60952">
        <ele>1650.800048828</ele>
        <time>2013-02-20T16:01:13Z</time>
      </trkpt>
      <trkpt lat="45.09227" lon="5.60953">
        <ele>1651.199951172</ele>
        <time>2013-02-20T16:01:15Z</time>
      </trkpt>
      <trkpt lat="45.09225" lon="5.60953">
        <ele>1651.400024414</ele>
        <time>2013-02-20T16:01:17Z</time>
      </trkpt>
      <trkpt lat="45.09222" lon="5.60953">
        <ele>1651.400024414</ele>
        <time>2013-02-20T16:01:20Z</time>
      </trkpt>
      <trkpt lat="45.09219" lon="5.60956">
        <ele>1652</ele>
        <time>2013-02-20T16:01:24Z</time>
      </trkpt>
      <trkpt lat="45.09216" lon="5.60958">
        <ele>1652.599975586</ele>
        <time>2013-02-20T16:01:27Z</time>
      </trkpt>
      <trkpt lat="45.09214" lon="5.60961">
        <ele>1653.199951172</ele>
        <time>2013-02-20T16:01:30Z</time>
      </trkpt>
      <trkpt lat="45.09212" lon="5.60966">
        <ele>1654.199951172</ele>
        <time>2013-02-20T16:01:34Z</time>
      </trkpt>
      <trkpt lat="45.0921" lon="5.60967">
        <ele>1654.400024414</ele>
        <time>2013-02-20T16:01:35Z</time>
      </trkpt>
      <trkpt lat="45.09207" lon="5.60971">
        <ele>1655.199951172</ele>
        <time>2013-02-20T16:01:39Z</time>
      </trkpt>
      <trkpt lat="45.09204" lon="5.60974">
        <ele>1656</ele>
        <time>2013-02-20T16:01:44Z</time>
      </trkpt>
      <trkpt lat="45.09203" lon="5.60977">
        <ele>1656.800048828</ele>
        <time>2013-02-20T16:01:47Z</time>
      </trkpt>
      <trkpt lat="45.09201" lon="5.60978">
        <ele>1657</ele>
        <time>2013-02-20T16:01:48Z</time>
      </trkpt>
      <trkpt lat="45.09199" lon="5.60981">
        <ele>1657.800048828</ele>
        <time>2013-02-20T16:01:51Z</time>
      </trkpt>
      <trkpt lat="45.09197" lon="5.60982">
        <ele>1658</ele>
        <time>2013-02-20T16:01:53Z</time>
      </trkpt>
      <trkpt lat="45.09196" lon="5.60983">
        <ele>1658.400024414</ele>
        <time>2013-02-20T16:01:55Z</time>
      </trkpt>
      <trkpt lat="45.09194" lon="5.60985">
        <ele>1658.800048828</ele>
        <time>2013-02-20T16:01:58Z</time>
      </trkpt>
      <trkpt lat="45.09193" lon="5.60985">
        <ele>1659</ele>
        <time>2013-02-20T16:01:59Z</time>
      </trkpt>
      <trkpt lat="45.0919" lon="5.60986">
        <ele>1659.599975586</ele>
        <time>2013-02-20T16:02:02Z</time>
      </trkpt>
      <trkpt lat="45.0919" lon="5.60988">
        <ele>1659.800048828</ele>
        <time>2013-02-20T16:02:03Z</time>
      </trkpt>
      <trkpt lat="45.09186" lon="5.6099">
        <ele>1660.599975586</ele>
        <time>2013-02-20T16:02:07Z</time>
      </trkpt>
      <trkpt lat="45.09186" lon="5.6099">
        <ele>1660.599975586</ele>
        <time>2013-02-20T16:02:08Z</time>
      </trkpt>
      <trkpt lat="45.09184" lon="5.60991">
        <ele>1661</ele>
        <time>2013-02-20T16:02:10Z</time>
      </trkpt>
      <trkpt lat="45.09179" lon="5.60995">
        <ele>1662.400024414</ele>
        <time>2013-02-20T16:02:17Z</time>
      </trkpt>
      <trkpt lat="45.09175" lon="5.60997">
        <ele>1663.400024414</ele>
        <time>2013-02-20T16:02:22Z</time>
      </trkpt>
      <trkpt lat="45.09175" lon="5.60998">
        <ele>1663.599975586</ele>
        <time>2013-02-20T16:02:23Z</time>
      </trkpt>
      <trkpt lat="45.09172" lon="5.61001">
        <ele>1664.599975586</ele>
        <time>2013-02-20T16:02:27Z</time>
      </trkpt>
      <trkpt lat="45.0917" lon="5.61004">
        <ele>1665.599975586</ele>
        <time>2013-02-20T16:02:32Z</time>
      </trkpt>
      <trkpt lat="45.09168" lon="5.61008">
        <ele>1666.800048828</ele>
        <time>2013-02-20T16:02:36Z</time>
      </trkpt>
      <trkpt lat="45.09166" lon="5.6101">
        <ele>1667.599975586</ele>
        <time>2013-02-20T16:02:40Z</time>
      </trkpt>
      <trkpt lat="45.09162" lon="5.61014">
        <ele>1668.800048828</ele>
        <time>2013-02-20T16:02:45Z</time>
      </trkpt>
      <trkpt lat="45.09156" lon="5.61019">
        <ele>1670.599975586</ele>
        <time>2013-02-20T16:02:53Z</time>
      </trkpt>
      <trkpt lat="45.09153" lon="5.61023">
        <ele>1671.599975586</ele>
        <time>2013-02-20T16:02:58Z</time>
      </trkpt>
      <trkpt lat="45.0915" lon="5.61025">
        <ele>1672.400024414</ele>
        <time>2013-02-20T16:03:03Z</time>
      </trkpt>
      <trkpt lat="45.09148" lon="5.61028">
        <ele>1673.199951172</ele>
        <time>2013-02-20T16:03:07Z</time>
      </trkpt>
      <trkpt lat="45.09146" lon="5.6103">
        <ele>1673.800048828</ele>
        <time>2013-02-20T16:03:11Z</time>
      </trkpt>
      <trkpt lat="45.09144" lon="5.61034">
        <ele>1674.800048828</ele>
        <time>2013-02-20T16:03:16Z</time>
      </trkpt>
      <trkpt lat="45.09143" lon="5.61035">
        <ele>1675.400024414</ele>
        <time>2013-02-20T16:03:19Z</time>
      </trkpt>
      <trkpt lat="45.09143" lon="5.6104">
        <ele>1676.599975586</ele>
        <time>2013-02-20T16:03:23Z</time>
      </trkpt>
      <trkpt lat="45.09142" lon="5.61045">
        <ele>1677.800048828</ele>
        <time>2013-02-20T16:03:28Z</time>
      </trkpt>
      <trkpt lat="45.09139" lon="5.61051">
        <ele>1679.400024414</ele>
        <time>2013-02-20T16:03:33Z</time>
      </trkpt>
      <trkpt lat="45.09138" lon="5.61053">
        <ele>1680.199951172</ele>
        <time>2013-02-20T16:03:36Z</time>
      </trkpt>
      <trkpt lat="45.09138" lon="5.61053">
        <ele>1680.199951172</ele>
        <time>2013-02-20T16:03:37Z</time>
      </trkpt>
      <trkpt lat="45.09138" lon="5.61057">
        <ele>1681</ele>
        <time>2013-02-20T16:03:41Z</time>
      </trkpt>
      <trkpt lat="45.09139" lon="5.61062">
        <ele>1682.199951172</ele>
        <time>2013-02-20T16:03:47Z</time>
      </trkpt>
      <trkpt lat="45.09137" lon="5.61067">
        <ele>1683.599975586</ele>
        <time>2013-02-20T16:03:52Z</time>
      </trkpt>
      <trkpt lat="45.09132" lon="5.61069">
        <ele>1684.400024414</ele>
        <time>2013-02-20T16:03:58Z</time>
      </trkpt>
      <trkpt lat="45.09127" lon="5.6107">
        <ele>1685</ele>
        <time>2013-02-20T16:04:05Z</time>
      </trkpt>
      <trkpt lat="45.09126" lon="5.6107">
        <ele>1685</ele>
        <time>2013-02-20T16:04:06Z</time>
      </trkpt>
      <trkpt lat="45.09122" lon="5.61071">
        <ele>1685.400024414</ele>
        <time>2013-02-20T16:04:11Z</time>
      </trkpt>
      <trkpt lat="45.09116" lon="5.61073">
        <ele>1686.400024414</ele>
        <time>2013-02-20T16:04:20Z</time>
      </trkpt>
      <trkpt lat="45.0911" lon="5.61075">
        <ele>1687.199951172</ele>
        <time>2013-02-20T16:04:29Z</time>
      </trkpt>
      <trkpt lat="45.09106" lon="5.61077">
        <ele>1688.199951172</ele>
        <time>2013-02-20T16:04:37Z</time>
      </trkpt>
      <trkpt lat="45.091" lon="5.61081">
        <ele>1689.199951172</ele>
        <time>2013-02-20T16:04:46Z</time>
      </trkpt>
      <trkpt lat="45.09095" lon="5.61083">
        <ele>1690</ele>
        <time>2013-02-20T16:04:54Z</time>
      </trkpt>
      <trkpt lat="45.0909" lon="5.61086">
        <ele>1691</ele>
        <time>2013-02-20T16:05:01Z</time>
      </trkpt>
      <trkpt lat="45.09085" lon="5.61092">
        <ele>1692.599975586</ele>
        <time>2013-02-20T16:05:10Z</time>
      </trkpt>
      <trkpt lat="45.09082" lon="5.61097">
        <ele>1693.800048828</ele>
        <time>2013-02-20T16:05:17Z</time>
      </trkpt>
      <trkpt lat="45.09079" lon="5.61103">
        <ele>1694.800048828</ele>
        <time>2013-02-20T16:05:25Z</time>
      </trkpt>
      <trkpt lat="45.09077" lon="5.61108">
        <ele>1696</ele>
        <time>2013-02-20T16:05:39Z</time>
      </trkpt>
      <trkpt lat="45.09076" lon="5.61115">
        <ele>1697.400024414</ele>
        <time>2013-02-20T16:05:46Z</time>
      </trkpt>
      <trkpt lat="45.09073" lon="5.61121">
        <ele>1698.800048828</ele>
        <time>2013-02-20T16:05:52Z</time>
      </trkpt>
      <trkpt lat="45.09072" lon="5.61124">
        <ele>1699.599975586</ele>
        <time>2013-02-20T16:05:55Z</time>
      </trkpt>
      <trkpt lat="45.09071" lon="5.61126">
        <ele>1700</ele>
        <time>2013-02-20T16:05:57Z</time>
      </trkpt>
      <trkpt lat="45.0907" lon="5.61128">
        <ele>1700.400024414</ele>
        <time>2013-02-20T16:05:59Z</time>
      </trkpt>
      <trkpt lat="45.09069" lon="5.61129">
        <ele>1700.599975586</ele>
        <time>2013-02-20T16:06:00Z</time>
      </trkpt>
      <trkpt lat="45.09068" lon="5.61131">
        <ele>1701</ele>
        <time>2013-02-20T16:06:02Z</time>
      </trkpt>
      <trkpt lat="45.09065" lon="5.61135">
        <ele>1702</ele>
        <time>2013-02-20T16:06:09Z</time>
      </trkpt>
      <trkpt lat="45.09061" lon="5.61137">
        <ele>1702.800048828</ele>
        <time>2013-02-20T16:06:14Z</time>
      </trkpt>
      <trkpt lat="45.09058" lon="5.61139">
        <ele>1703.199951172</ele>
        <time>2013-02-20T16:06:19Z</time>
      </trkpt>
      <trkpt lat="45.09051" lon="5.6114">
        <ele>1704</ele>
        <time>2013-02-20T16:06:26Z</time>
      </trkpt>
      <trkpt lat="45.09047" lon="5.61142">
        <ele>1704.599975586</ele>
        <time>2013-02-20T16:06:31Z</time>
      </trkpt>
      <trkpt lat="45.09044" lon="5.61143">
        <ele>1705</ele>
        <time>2013-02-20T16:06:35Z</time>
      </trkpt>
      <trkpt lat="45.09043" lon="5.61144">
        <ele>1705.199951172</ele>
        <time>2013-02-20T16:06:36Z</time>
      </trkpt>
      <trkpt lat="45.09042" lon="5.61145">
        <ele>1705.599975586</ele>
        <time>2013-02-20T16:06:39Z</time>
      </trkpt>
      <trkpt lat="45.09038" lon="5.61148">
        <ele>1706.400024414</ele>
        <time>2013-02-20T16:06:46Z</time>
      </trkpt>
      <trkpt lat="45.09035" lon="5.61152">
        <ele>1707.800048828</ele>
        <time>2013-02-20T16:06:52Z</time>
      </trkpt>
      <trkpt lat="45.09032" lon="5.61159">
        <ele>1709.800048828</ele>
        <time>2013-02-20T16:06:59Z</time>
      </trkpt>
      <trkpt lat="45.0903" lon="5.61164">
        <ele>1711</ele>
        <time>2013-02-20T16:07:04Z</time>
      </trkpt>
      <trkpt lat="45.09027" lon="5.61169">
        <ele>1712.400024414</ele>
        <time>2013-02-20T16:07:10Z</time>
      </trkpt>
      <trkpt lat="45.09025" lon="5.61172">
        <ele>1713.400024414</ele>
        <time>2013-02-20T16:07:14Z</time>
      </trkpt>
      <trkpt lat="45.09024" lon="5.61179">
        <ele>1715.400024414</ele>
        <time>2013-02-20T16:07:20Z</time>
      </trkpt>
      <trkpt lat="45.09027" lon="5.61187">
        <ele>1717.199951172</ele>
        <time>2013-02-20T16:07:27Z</time>
      </trkpt>
      <trkpt lat="45.09028" lon="5.61194">
        <ele>1718.599975586</ele>
        <time>2013-02-20T16:07:32Z</time>
      </trkpt>
      <trkpt lat="45.09029" lon="5.61199">
        <ele>1719.800048828</ele>
        <time>2013-02-20T16:07:37Z</time>
      </trkpt>
      <trkpt lat="45.0903" lon="5.61203">
        <ele>1720.800048828</ele>
        <time>2013-02-20T16:07:41Z</time>
      </trkpt>
      <trkpt lat="45.09031" lon="5.61205">
        <ele>1721.400024414</ele>
        <time>2013-02-20T16:07:43Z</time>
      </trkpt>
      <trkpt lat="45.09031" lon="5.6121">
        <ele>1722.599975586</ele>
        <time>2013-02-20T16:07:47Z</time>
      </trkpt>
      <trkpt lat="45.09034" lon="5.61214">
        <ele>1723.400024414</ele>
        <time>2013-02-20T16:07:51Z</time>
      </trkpt>
      <trkpt lat="45.09035" lon="5.61216">
        <ele>1723.800048828</ele>
        <time>2013-02-20T16:07:53Z</time>
      </trkpt>
      <trkpt lat="45.09037" lon="5.61219">
        <ele>1724.400024414</ele>
        <time>2013-02-20T16:07:57Z</time>
      </trkpt>
      <trkpt lat="45.09039" lon="5.61221">
        <ele>1724.800048828</ele>
        <time>2013-02-20T16:07:59Z</time>
      </trkpt>
      <trkpt lat="45.09041" lon="5.61224">
        <ele>1725.199951172</ele>
        <time>2013-02-20T16:08:02Z</time>
      </trkpt>
      <trkpt lat="45.09044" lon="5.61228">
        <ele>1726</ele>
        <time>2013-02-20T16:08:06Z</time>
      </trkpt>
      <trkpt lat="45.09044" lon="5.61229">
        <ele>1726.400024414</ele>
        <time>2013-02-20T16:08:08Z</time>
      </trkpt>
      <trkpt lat="45.09045" lon="5.61231">
        <ele>1726.800048828</ele>
        <time>2013-02-20T16:08:10Z</time>
      </trkpt>
      <trkpt lat="45.09047" lon="5.61235">
        <ele>1727.800048828</ele>
        <time>2013-02-20T16:08:14Z</time>
      </trkpt>
      <trkpt lat="45.09048" lon="5.61241">
        <ele>1729.199951172</ele>
        <time>2013-02-20T16:08:19Z</time>
      </trkpt>
      <trkpt lat="45.09048" lon="5.61243">
        <ele>1729.599975586</ele>
        <time>2013-02-20T16:08:21Z</time>
      </trkpt>
      <trkpt lat="45.09049" lon="5.61247">
        <ele>1730.400024414</ele>
        <time>2013-02-20T16:08:24Z</time>
      </trkpt>
      <trkpt lat="45.09051" lon="5.61254">
        <ele>1731.800048828</ele>
        <time>2013-02-20T16:08:30Z</time>
      </trkpt>
      <trkpt lat="45.0905" lon="5.61258">
        <ele>1732.199951172</ele>
        <time>2013-02-20T16:08:33Z</time>
      </trkpt>
      <trkpt lat="45.0905" lon="5.61259">
        <ele>1732.400024414</ele>
        <time>2013-02-20T16:08:34Z</time>
      </trkpt>
      <trkpt lat="45.0905" lon="5.61264">
        <ele>1733.199951172</ele>
        <time>2013-02-20T16:08:39Z</time>
      </trkpt>
      <trkpt lat="45.0905" lon="5.61268">
        <ele>1733.599975586</ele>
        <time>2013-02-20T16:08:42Z</time>
      </trkpt>
      <trkpt lat="45.09051" lon="5.61271">
        <ele>1733.800048828</ele>
        <time>2013-02-20T16:08:44Z</time>
      </trkpt>
      <trkpt lat="45.09053" lon="5.61279">
        <ele>1734.800048828</ele>
        <time>2013-02-20T16:08:51Z</time>
      </trkpt>
      <trkpt lat="45.09057" lon="5.61291">
        <ele>1736.199951172</ele>
        <time>2013-02-20T16:09:00Z</time>
      </trkpt>
      <trkpt lat="45.0906" lon="5.61299">
        <ele>1737</ele>
        <time>2013-02-20T16:09:06Z</time>
      </trkpt>
      <trkpt lat="45.09063" lon="5.61306">
        <ele>1737.599975586</ele>
        <time>2013-02-20T16:09:12Z</time>
      </trkpt>
      <trkpt lat="45.09065" lon="5.61314">
        <ele>1738.400024414</ele>
        <time>2013-02-20T16:09:18Z</time>
      </trkpt>
      <trkpt lat="45.09067" lon="5.61318">
        <ele>1739</ele>
        <time>2013-02-20T16:09:21Z</time>
      </trkpt>
      <trkpt lat="45.09068" lon="5.61324">
        <ele>1739.599975586</ele>
        <time>2013-02-20T16:09:25Z</time>
      </trkpt>
      <trkpt lat="45.0907" lon="5.61333">
        <ele>1740.599975586</ele>
        <time>2013-02-20T16:09:31Z</time>
      </trkpt>
      <trkpt lat="45.09071" lon="5.61342">
        <ele>1742</ele>
        <time>2013-02-20T16:09:38Z</time>
      </trkpt>
      <trkpt lat="45.09071" lon="5.61348">
        <ele>1742.800048828</ele>
        <time>2013-02-20T16:09:42Z</time>
      </trkpt>
      <trkpt lat="45.09071" lon="5.6135">
        <ele>1743</ele>
        <time>2013-02-20T16:09:44Z</time>
      </trkpt>
      <trkpt lat="45.09071" lon="5.61354">
        <ele>1743.599975586</ele>
        <time>2013-02-20T16:09:47Z</time>
      </trkpt>
      <trkpt lat="45.09071" lon="5.61356">
        <ele>1744</ele>
        <time>2013-02-20T16:09:49Z</time>
      </trkpt>
      <trkpt lat="45.09071" lon="5.61359">
        <ele>1744.199951172</ele>
        <time>2013-02-20T16:09:51Z</time>
      </trkpt>
      <trkpt lat="45.09071" lon="5.61362">
        <ele>1744.800048828</ele>
        <time>2013-02-20T16:09:54Z</time>
      </trkpt>
      <trkpt lat="45.09071" lon="5.61373">
        <ele>1746.400024414</ele>
        <time>2013-02-20T16:10:02Z</time>
      </trkpt>
      <trkpt lat="45.09072" lon="5.6138">
        <ele>1747.400024414</ele>
        <time>2013-02-20T16:10:07Z</time>
      </trkpt>
      <trkpt lat="45.09073" lon="5.61386">
        <ele>1748.199951172</ele>
        <time>2013-02-20T16:10:12Z</time>
      </trkpt>
      <trkpt lat="45.09074" lon="5.61393">
        <ele>1749</ele>
        <time>2013-02-20T16:10:18Z</time>
      </trkpt>
      <trkpt lat="45.09074" lon="5.61394">
        <ele>1749.199951172</ele>
        <time>2013-02-20T16:10:19Z</time>
      </trkpt>
      <trkpt lat="45.09074" lon="5.61401">
        <ele>1750</ele>
        <time>2013-02-20T16:10:25Z</time>
      </trkpt>
      <trkpt lat="45.09075" lon="5.61406">
        <ele>1750.599975586</ele>
        <time>2013-02-20T16:10:30Z</time>
      </trkpt>
      <trkpt lat="45.09077" lon="5.61412">
        <ele>1751.199951172</ele>
        <time>2013-02-20T16:10:36Z</time>
      </trkpt>
      <trkpt lat="45.09078" lon="5.61414">
        <ele>1751.400024414</ele>
        <time>2013-02-20T16:10:39Z</time>
      </trkpt>
      <trkpt lat="45.09079" lon="5.6142">
        <ele>1752.199951172</ele>
        <time>2013-02-20T16:10:44Z</time>
      </trkpt>
      <trkpt lat="45.0908" lon="5.61424">
        <ele>1752.599975586</ele>
        <time>2013-02-20T16:10:48Z</time>
      </trkpt>
      <trkpt lat="45.09081" lon="5.61427">
        <ele>1753</ele>
        <time>2013-02-20T16:10:52Z</time>
      </trkpt>
      <trkpt lat="45.09082" lon="5.61431">
        <ele>1753.599975586</ele>
        <time>2013-02-20T16:11:00Z</time>
      </trkpt>
      <trkpt lat="45.09083" lon="5.61438">
        <ele>1754.599975586</ele>
        <time>2013-02-20T16:11:06Z</time>
      </trkpt>
      <trkpt lat="45.09084" lon="5.61443">
        <ele>1755.400024414</ele>
        <time>2013-02-20T16:11:10Z</time>
      </trkpt>
      <trkpt lat="45.09085" lon="5.61447">
        <ele>1756.199951172</ele>
        <time>2013-02-20T16:11:15Z</time>
      </trkpt>
      <trkpt lat="45.09086" lon="5.61451">
        <ele>1756.800048828</ele>
        <time>2013-02-20T16:11:19Z</time>
      </trkpt>
      <trkpt lat="45.09085" lon="5.61459">
        <ele>1758.199951172</ele>
        <time>2013-02-20T16:11:26Z</time>
      </trkpt>
      <trkpt lat="45.09086" lon="5.61465">
        <ele>1759.199951172</ele>
        <time>2013-02-20T16:11:32Z</time>
      </trkpt>
      <trkpt lat="45.09087" lon="5.61468">
        <ele>1759.800048828</ele>
        <time>2013-02-20T16:11:36Z</time>
      </trkpt>
      <trkpt lat="45.09087" lon="5.61471">
        <ele>1760.400024414</ele>
        <time>2013-02-20T16:11:39Z</time>
      </trkpt>
      <trkpt lat="45.09087" lon="5.61474">
        <ele>1760.800048828</ele>
        <time>2013-02-20T16:11:43Z</time>
      </trkpt>
      <trkpt lat="45.09086" lon="5.61477">
        <ele>1761.199951172</ele>
        <time>2013-02-20T16:11:47Z</time>
      </trkpt>
      <trkpt lat="45.09083" lon="5.61481">
        <ele>1761.800048828</ele>
        <time>2013-02-20T16:11:52Z</time>
      </trkpt>
      <trkpt lat="45.09081" lon="5.61485">
        <ele>1763</ele>
        <time>2013-02-20T16:11:57Z</time>
      </trkpt>
      <trkpt lat="45.09079" lon="5.61487">
        <ele>1764</ele>
        <time>2013-02-20T16:12:01Z</time>
      </trkpt>
      <trkpt lat="45.09076" lon="5.61495">
        <ele>1766.199951172</ele>
        <time>2013-02-20T16:12:38Z</time>
      </trkpt>
      <trkpt lat="45.09073" lon="5.61502">
        <ele>1768.599975586</ele>
        <time>2013-02-20T16:12:45Z</time>
      </trkpt>
      <trkpt lat="45.09074" lon="5.61503">
        <ele>1768.800048828</ele>
        <time>2013-02-20T16:12:46Z</time>
      </trkpt>
      <trkpt lat="45.09073" lon="5.61507">
        <ele>1770</ele>
        <time>2013-02-20T16:12:50Z</time>
      </trkpt>
      <trkpt lat="45.09074" lon="5.61511">
        <ele>1771</ele>
        <time>2013-02-20T16:12:55Z</time>
      </trkpt>
      <trkpt lat="45.09075" lon="5.61515">
        <ele>1772</ele>
        <time>2013-02-20T16:12:59Z</time>
      </trkpt>
      <trkpt lat="45.09076" lon="5.61519">
        <ele>1772.599975586</ele>
        <time>2013-02-20T16:13:03Z</time>
      </trkpt>
      <trkpt lat="45.09078" lon="5.61522">
        <ele>1772.800048828</ele>
        <time>2013-02-20T16:13:07Z</time>
      </trkpt>
      <trkpt lat="45.09081" lon="5.61526">
        <ele>1773.199951172</ele>
        <time>2013-02-20T16:13:11Z</time>
      </trkpt>
      <trkpt lat="45.09084" lon="5.61531">
        <ele>1774</ele>
        <time>2013-02-20T16:13:16Z</time>
      </trkpt>
      <trkpt lat="45.09087" lon="5.61537">
        <ele>1775.800048828</ele>
        <time>2013-02-20T16:13:21Z</time>
      </trkpt>
      <trkpt lat="45.09091" lon="5.61544">
        <ele>1778</ele>
        <time>2013-02-20T16:13:26Z</time>
      </trkpt>
      <trkpt lat="45.09093" lon="5.61548">
        <ele>1779.400024414</ele>
        <time>2013-02-20T16:13:31Z</time>
      </trkpt>
      <trkpt lat="45.09095" lon="5.61553">
        <ele>1781</ele>
        <time>2013-02-20T16:13:35Z</time>
      </trkpt>
      <trkpt lat="45.09096" lon="5.61556">
        <ele>1781.800048828</ele>
        <time>2013-02-20T16:13:38Z</time>
      </trkpt>
      <trkpt lat="45.09097" lon="5.61559">
        <ele>1782.800048828</ele>
        <time>2013-02-20T16:13:41Z</time>
      </trkpt>
      <trkpt lat="45.09097" lon="5.61562">
        <ele>1783.400024414</ele>
        <time>2013-02-20T16:13:43Z</time>
      </trkpt>
      <trkpt lat="45.09096" lon="5.61563">
        <ele>1783.800048828</ele>
        <time>2013-02-20T16:13:45Z</time>
      </trkpt>
      <trkpt lat="45.09092" lon="5.61568">
        <ele>1784.800048828</ele>
        <time>2013-02-20T16:13:51Z</time>
      </trkpt>
      <trkpt lat="45.0909" lon="5.61568">
        <ele>1785</ele>
        <time>2013-02-20T16:13:53Z</time>
      </trkpt>
      <trkpt lat="45.09088" lon="5.6157">
        <ele>1785.400024414</ele>
        <time>2013-02-20T16:13:56Z</time>
      </trkpt>
      <trkpt lat="45.09087" lon="5.6157">
        <ele>1785.199951172</ele>
        <time>2013-02-20T16:13:57Z</time>
      </trkpt>
      <trkpt lat="45.09085" lon="5.61573">
        <ele>1786</ele>
        <time>2013-02-20T16:14:02Z</time>
      </trkpt>
      <trkpt lat="45.0908" lon="5.61576">
        <ele>1787.599975586</ele>
        <time>2013-02-20T16:14:09Z</time>
      </trkpt>
      <trkpt lat="45.09077" lon="5.61577">
        <ele>1789</ele>
        <time>2013-02-20T16:14:14Z</time>
      </trkpt>
      <trkpt lat="45.09073" lon="5.61578">
        <ele>1790.400024414</ele>
        <time>2013-02-20T16:14:19Z</time>
      </trkpt>
      <trkpt lat="45.0907" lon="5.61578">
        <ele>1791.599975586</ele>
        <time>2013-02-20T16:14:25Z</time>
      </trkpt>
      <trkpt lat="45.09066" lon="5.61578">
        <ele>1792.800048828</ele>
        <time>2013-02-20T16:14:31Z</time>
      </trkpt>
      <trkpt lat="45.09063" lon="5.61578">
        <ele>1793.599975586</ele>
        <time>2013-02-20T16:14:35Z</time>
      </trkpt>
      <trkpt lat="45.09059" lon="5.61577">
        <ele>1794.800048828</ele>
        <time>2013-02-20T16:14:40Z</time>
      </trkpt>
      <trkpt lat="45.09056" lon="5.61576">
        <ele>1795.400024414</ele>
        <time>2013-02-20T16:14:44Z</time>
      </trkpt>
      <trkpt lat="45.09053" lon="5.61575">
        <ele>1796.199951172</ele>
        <time>2013-02-20T16:14:48Z</time>
      </trkpt>
      <trkpt lat="45.09052" lon="5.61575">
        <ele>1796.199951172</ele>
        <time>2013-02-20T16:14:49Z</time>
      </trkpt>
      <trkpt lat="45.09051" lon="5.61575">
        <ele>1796.599975586</ele>
        <time>2013-02-20T16:14:50Z</time>
      </trkpt>
      <trkpt lat="45.0905" lon="5.61574">
        <ele>1796.800048828</ele>
        <time>2013-02-20T16:14:52Z</time>
      </trkpt>
      <trkpt lat="45.09049" lon="5.61575">
        <ele>1797.199951172</ele>
        <time>2013-02-20T16:14:53Z</time>
      </trkpt>
      <trkpt lat="45.09045" lon="5.61574">
        <ele>1798.199951172</ele>
        <time>2013-02-20T16:14:58Z</time>
      </trkpt>
      <trkpt lat="45.09041" lon="5.61573">
        <ele>1799.199951172</ele>
        <time>2013-02-20T16:15:03Z</time>
      </trkpt>
      <trkpt lat="45.09039" lon="5.61573">
        <ele>1800</ele>
        <time>2013-02-20T16:15:07Z</time>
      </trkpt>
      <trkpt lat="45.09037" lon="5.61575">
        <ele>1801</ele>
        <time>2013-02-20T16:15:11Z</time>
      </trkpt>
      <trkpt lat="45.09037" lon="5.61578">
        <ele>1802</ele>
        <time>2013-02-20T16:15:16Z</time>
      </trkpt>
      <trkpt lat="45.09037" lon="5.61582">
        <ele>1803</ele>
        <time>2013-02-20T16:15:20Z</time>
      </trkpt>
      <trkpt lat="45.09038" lon="5.61587">
        <ele>1803.800048828</ele>
        <time>2013-02-20T16:15:25Z</time>
      </trkpt>
      <trkpt lat="45.09039" lon="5.61591">
        <ele>1804.599975586</ele>
        <time>2013-02-20T16:15:29Z</time>
      </trkpt>
      <trkpt lat="45.09038" lon="5.61594">
        <ele>1805.400024414</ele>
        <time>2013-02-20T16:15:33Z</time>
      </trkpt>
      <trkpt lat="45.09039" lon="5.61597">
        <ele>1806</ele>
        <time>2013-02-20T16:15:37Z</time>
      </trkpt>
      <trkpt lat="45.09038" lon="5.61599">
        <ele>1806.599975586</ele>
        <time>2013-02-20T16:15:41Z</time>
      </trkpt>
      <trkpt lat="45.09036" lon="5.61599">
        <ele>1807.400024414</ele>
        <time>2013-02-20T16:15:44Z</time>
      </trkpt>
      <trkpt lat="45.09033" lon="5.61599">
        <ele>1808</ele>
        <time>2013-02-20T16:15:48Z</time>
      </trkpt>
      <trkpt lat="45.09031" lon="5.61598">
        <ele>1808.599975586</ele>
        <time>2013-02-20T16:15:52Z</time>
      </trkpt>
      <trkpt lat="45.09028" lon="5.61597">
        <ele>1809.400024414</ele>
        <time>2013-02-20T16:15:57Z</time>
      </trkpt>
      <trkpt lat="45.09025" lon="5.61596">
        <ele>1809.800048828</ele>
        <time>2013-02-20T16:16:01Z</time>
      </trkpt>
      <trkpt lat="45.09022" lon="5.61593">
        <ele>1810.199951172</ele>
        <time>2013-02-20T16:16:06Z</time>
      </trkpt>
      <trkpt lat="45.09017" lon="5.61589">
        <ele>1810.800048828</ele>
        <time>2013-02-20T16:16:11Z</time>
      </trkpt>
      <trkpt lat="45.09012" lon="5.61586">
        <ele>1811.599975586</ele>
        <time>2013-02-20T16:16:17Z</time>
      </trkpt>
      <trkpt lat="45.09008" lon="5.61582">
        <ele>1812</ele>
        <time>2013-02-20T16:16:23Z</time>
      </trkpt>
      <trkpt lat="45.09004" lon="5.61579">
        <ele>1812.599975586</ele>
        <time>2013-02-20T16:16:28Z</time>
      </trkpt>
      <trkpt lat="45.08999" lon="5.61579">
        <ele>1813.599975586</ele>
        <time>2013-02-20T16:16:33Z</time>
      </trkpt>
      <trkpt lat="45.08996" lon="5.61579">
        <ele>1814.400024414</ele>
        <time>2013-02-20T16:16:37Z</time>
      </trkpt>
      <trkpt lat="45.08994" lon="5.61579">
        <ele>1814.800048828</ele>
        <time>2013-02-20T16:16:39Z</time>
      </trkpt>
      <trkpt lat="45.08991" lon="5.61581">
        <ele>1816</ele>
        <time>2013-02-20T16:16:46Z</time>
      </trkpt>
      <trkpt lat="45.08989" lon="5.61584">
        <ele>1817.199951172</ele>
        <time>2013-02-20T16:16:50Z</time>
      </trkpt>
      <trkpt lat="45.08988" lon="5.61586">
        <ele>1817.599975586</ele>
        <time>2013-02-20T16:16:54Z</time>
      </trkpt>
      <trkpt lat="45.08985" lon="5.61587">
        <ele>1818.599975586</ele>
        <time>2013-02-20T16:16:58Z</time>
      </trkpt>
      <trkpt lat="45.08981" lon="5.61589">
        <ele>1819.800048828</ele>
        <time>2013-02-20T16:17:07Z</time>
      </trkpt>
      <trkpt lat="45.08978" lon="5.6159">
        <ele>1820.599975586</ele>
        <time>2013-02-20T16:17:11Z</time>
      </trkpt>
      <trkpt lat="45.08976" lon="5.61591">
        <ele>1821.199951172</ele>
        <time>2013-02-20T16:17:15Z</time>
      </trkpt>
      <trkpt lat="45.08973" lon="5.61593">
        <ele>1822.199951172</ele>
        <time>2013-02-20T16:17:20Z</time>
      </trkpt>
      <trkpt lat="45.0897" lon="5.61594">
        <ele>1823.199951172</ele>
        <time>2013-02-20T16:17:25Z</time>
      </trkpt>
      <trkpt lat="45.08967" lon="5.61596">
        <ele>1824</ele>
        <time>2013-02-20T16:17:29Z</time>
      </trkpt>
      <trkpt lat="45.08964" lon="5.61597">
        <ele>1825</ele>
        <time>2013-02-20T16:17:34Z</time>
      </trkpt>
      <trkpt lat="45.0896" lon="5.61599">
        <ele>1826</ele>
        <time>2013-02-20T16:17:40Z</time>
      </trkpt>
      <trkpt lat="45.08957" lon="5.616">
        <ele>1827</ele>
        <time>2013-02-20T16:17:45Z</time>
      </trkpt>
      <trkpt lat="45.08954" lon="5.61602">
        <ele>1828</ele>
        <time>2013-02-20T16:17:51Z</time>
      </trkpt>
      <trkpt lat="45.08952" lon="5.61604">
        <ele>1828.800048828</ele>
        <time>2013-02-20T16:17:55Z</time>
      </trkpt>
      <trkpt lat="45.08951" lon="5.61605">
        <ele>1829.400024414</ele>
        <time>2013-02-20T16:17:59Z</time>
      </trkpt>
      <trkpt lat="45.08949" lon="5.61607">
        <ele>1830.199951172</ele>
        <time>2013-02-20T16:18:04Z</time>
      </trkpt>
      <trkpt lat="45.08947" lon="5.61608">
        <ele>1830.800048828</ele>
        <time>2013-02-20T16:18:08Z</time>
      </trkpt>
      <trkpt lat="45.08945" lon="5.61609">
        <ele>1831.400024414</ele>
        <time>2013-02-20T16:18:12Z</time>
      </trkpt>
      <trkpt lat="45.08942" lon="5.61611">
        <ele>1832.599975586</ele>
        <time>2013-02-20T16:18:17Z</time>
      </trkpt>
      <trkpt lat="45.08939" lon="5.61614">
        <ele>1834</ele>
        <time>2013-02-20T16:18:22Z</time>
      </trkpt>
      <trkpt lat="45.08936" lon="5.61616">
        <ele>1835</ele>
        <time>2013-02-20T16:18:26Z</time>
      </trkpt>
      <trkpt lat="45.08935" lon="5.61618">
        <ele>1835.800048828</ele>
        <time>2013-02-20T16:18:30Z</time>
      </trkpt>
      <trkpt lat="45.08934" lon="5.61621">
        <ele>1836.599975586</ele>
        <time>2013-02-20T16:18:34Z</time>
      </trkpt>
      <trkpt lat="45.08934" lon="5.61624">
        <ele>1837.400024414</ele>
        <time>2013-02-20T16:18:39Z</time>
      </trkpt>
      <trkpt lat="45.08936" lon="5.61629">
        <ele>1838.199951172</ele>
        <time>2013-02-20T16:18:45Z</time>
      </trkpt>
      <trkpt lat="45.08937" lon="5.61634">
        <ele>1839.199951172</ele>
        <time>2013-02-20T16:18:49Z</time>
      </trkpt>
      <trkpt lat="45.08937" lon="5.61636">
        <ele>1839.800048828</ele>
        <time>2013-02-20T16:18:52Z</time>
      </trkpt>
      <trkpt lat="45.08938" lon="5.61642">
        <ele>1840.800048828</ele>
        <time>2013-02-20T16:18:58Z</time>
      </trkpt>
      <trkpt lat="45.08939" lon="5.61648">
        <ele>1842</ele>
        <time>2013-02-20T16:19:05Z</time>
      </trkpt>
      <trkpt lat="45.0894" lon="5.61655">
        <ele>1843.400024414</ele>
        <time>2013-02-20T16:19:12Z</time>
      </trkpt>
      <trkpt lat="45.08942" lon="5.61661">
        <ele>1844.599975586</ele>
        <time>2013-02-20T16:19:18Z</time>
      </trkpt>
      <trkpt lat="45.08942" lon="5.61665">
        <ele>1845.400024414</ele>
        <time>2013-02-20T16:19:22Z</time>
      </trkpt>
      <trkpt lat="45.08943" lon="5.6167">
        <ele>1846.599975586</ele>
        <time>2013-02-20T16:19:28Z</time>
      </trkpt>
      <trkpt lat="45.08943" lon="5.61674">
        <ele>1847.800048828</ele>
        <time>2013-02-20T16:19:32Z</time>
      </trkpt>
      <trkpt lat="45.08944" lon="5.61678">
        <ele>1849</ele>
        <time>2013-02-20T16:19:37Z</time>
      </trkpt>
      <trkpt lat="45.08945" lon="5.61681">
        <ele>1850</ele>
        <time>2013-02-20T16:19:41Z</time>
      </trkpt>
      <trkpt lat="45.08946" lon="5.61685">
        <ele>1850.800048828</ele>
        <time>2013-02-20T16:19:46Z</time>
      </trkpt>
      <trkpt lat="45.08946" lon="5.61688">
        <ele>1852</ele>
        <time>2013-02-20T16:19:49Z</time>
      </trkpt>
      <trkpt lat="45.08947" lon="5.61692">
        <ele>1853.199951172</ele>
        <time>2013-02-20T16:19:53Z</time>
      </trkpt>
      <trkpt lat="45.08946" lon="5.61697">
        <ele>1854.800048828</ele>
        <time>2013-02-20T16:19:58Z</time>
      </trkpt>
      <trkpt lat="45.08947" lon="5.61701">
        <ele>1856.199951172</ele>
        <time>2013-02-20T16:20:02Z</time>
      </trkpt>
      <trkpt lat="45.08947" lon="5.61705">
        <ele>1857.400024414</ele>
        <time>2013-02-20T16:20:07Z</time>
      </trkpt>
      <trkpt lat="45.08947" lon="5.61707">
        <ele>1857.800048828</ele>
        <time>2013-02-20T16:20:11Z</time>
      </trkpt>
      <trkpt lat="45.08948" lon="5.61711">
        <ele>1859</ele>
        <time>2013-02-20T16:20:15Z</time>
      </trkpt>
      <trkpt lat="45.08948" lon="5.61715">
        <ele>1860.400024414</ele>
        <time>2013-02-20T16:20:20Z</time>
      </trkpt>
      <trkpt lat="45.08946" lon="5.61719">
        <ele>1862.400024414</ele>
        <time>2013-02-20T16:20:24Z</time>
      </trkpt>
      <trkpt lat="45.08944" lon="5.61721">
        <ele>1863.400024414</ele>
        <time>2013-02-20T16:20:29Z</time>
      </trkpt>
      <trkpt lat="45.08941" lon="5.61721">
        <ele>1864.199951172</ele>
        <time>2013-02-20T16:20:33Z</time>
      </trkpt>
      <trkpt lat="45.08942" lon="5.61721">
        <ele>1864</ele>
        <time>2013-02-20T16:20:38Z</time>
      </trkpt>
      <trkpt lat="45.08938" lon="5.61723">
        <ele>1865.599975586</ele>
        <time>2013-02-20T16:21:00Z</time>
      </trkpt>
      <trkpt lat="45.08936" lon="5.61723">
        <ele>1865.800048828</ele>
        <time>2013-02-20T16:21:07Z</time>
      </trkpt>
      <trkpt lat="45.08933" lon="5.61725">
        <ele>1867.199951172</ele>
        <time>2013-02-20T16:21:13Z</time>
      </trkpt>
      <trkpt lat="45.08932" lon="5.61728">
        <ele>1868.400024414</ele>
        <time>2013-02-20T16:21:20Z</time>
      </trkpt>
      <trkpt lat="45.08932" lon="5.61733">
        <ele>1869.800048828</ele>
        <time>2013-02-20T16:21:27Z</time>
      </trkpt>
      <trkpt lat="45.08932" lon="5.61738">
        <ele>1871.800048828</ele>
        <time>2013-02-20T16:21:34Z</time>
      </trkpt>
      <trkpt lat="45.08932" lon="5.61745">
        <ele>1873.800048828</ele>
        <time>2013-02-20T16:21:41Z</time>
      </trkpt>
      <trkpt lat="45.08933" lon="5.61748">
        <ele>1874.800048828</ele>
        <time>2013-02-20T16:21:45Z</time>
      </trkpt>
      <trkpt lat="45.08933" lon="5.61752">
        <ele>1876</ele>
        <time>2013-02-20T16:21:49Z</time>
      </trkpt>
      <trkpt lat="45.08934" lon="5.61755">
        <ele>1877</ele>
        <time>2013-02-20T16:21:53Z</time>
      </trkpt>
      <trkpt lat="45.08934" lon="5.6176">
        <ele>1878.400024414</ele>
        <time>2013-02-20T16:21:59Z</time>
      </trkpt>
      <trkpt lat="45.0893" lon="5.61761">
        <ele>1879.800048828</ele>
        <time>2013-02-20T16:22:05Z</time>
      </trkpt>
      <trkpt lat="45.08924" lon="5.61762">
        <ele>1881.599975586</ele>
        <time>2013-02-20T16:22:14Z</time>
      </trkpt>
      <trkpt lat="45.0892" lon="5.61762">
        <ele>1882.400024414</ele>
        <time>2013-02-20T16:22:19Z</time>
      </trkpt>
      <trkpt lat="45.08916" lon="5.61763">
        <ele>1883.400024414</ele>
        <time>2013-02-20T16:22:25Z</time>
      </trkpt>
      <trkpt lat="45.08912" lon="5.61763">
        <ele>1884.199951172</ele>
        <time>2013-02-20T16:22:30Z</time>
      </trkpt>
      <trkpt lat="45.08907" lon="5.61763">
        <ele>1885.599975586</ele>
        <time>2013-02-20T16:22:36Z</time>
      </trkpt>
      <trkpt lat="45.08903" lon="5.61764">
        <ele>1886.800048828</ele>
        <time>2013-02-20T16:22:42Z</time>
      </trkpt>
      <trkpt lat="45.08903" lon="5.61765">
        <ele>1887</ele>
        <time>2013-02-20T16:22:47Z</time>
      </trkpt>
      <trkpt lat="45.08905" lon="5.61769">
        <ele>1888</ele>
        <time>2013-02-20T16:22:51Z</time>
      </trkpt>
      <trkpt lat="45.08906" lon="5.61774">
        <ele>1889</ele>
        <time>2013-02-20T16:22:55Z</time>
      </trkpt>
      <trkpt lat="45.08908" lon="5.61777">
        <ele>1889.599975586</ele>
        <time>2013-02-20T16:22:59Z</time>
      </trkpt>
      <trkpt lat="45.08909" lon="5.61779">
        <ele>1890.199951172</ele>
        <time>2013-02-20T16:23:00Z</time>
      </trkpt>
      <trkpt lat="45.0891" lon="5.61782">
        <ele>1891</ele>
        <time>2013-02-20T16:23:03Z</time>
      </trkpt>
      <trkpt lat="45.0891" lon="5.61782">
        <ele>1891</ele>
        <time>2013-02-20T16:23:04Z</time>
      </trkpt>
      <trkpt lat="45.08911" lon="5.61786">
        <ele>1891.800048828</ele>
        <time>2013-02-20T16:23:06Z</time>
      </trkpt>
      <trkpt lat="45.08913" lon="5.61789">
        <ele>1892.599975586</ele>
        <time>2013-02-20T16:23:09Z</time>
      </trkpt>
      <trkpt lat="45.08914" lon="5.61792">
        <ele>1893.400024414</ele>
        <time>2013-02-20T16:23:13Z</time>
      </trkpt>
      <trkpt lat="45.08916" lon="5.61797">
        <ele>1894.800048828</ele>
        <time>2013-02-20T16:23:17Z</time>
      </trkpt>
      <trkpt lat="45.08916" lon="5.61798">
        <ele>1895</ele>
        <time>2013-02-20T16:23:18Z</time>
      </trkpt>
      <trkpt lat="45.08917" lon="5.618">
        <ele>1895.599975586</ele>
        <time>2013-02-20T16:23:20Z</time>
      </trkpt>
      <trkpt lat="45.08918" lon="5.61801">
        <ele>1895.800048828</ele>
        <time>2013-02-20T16:23:21Z</time>
      </trkpt>
      <trkpt lat="45.08919" lon="5.61805">
        <ele>1897</ele>
        <time>2013-02-20T16:23:25Z</time>
      </trkpt>
      <trkpt lat="45.08921" lon="5.61812">
        <ele>1899</ele>
        <time>2013-02-20T16:23:31Z</time>
      </trkpt>
      <trkpt lat="45.08921" lon="5.61817">
        <ele>1900.400024414</ele>
        <time>2013-02-20T16:23:35Z</time>
      </trkpt>
      <trkpt lat="45.08921" lon="5.6182">
        <ele>1901.400024414</ele>
        <time>2013-02-20T16:23:39Z</time>
      </trkpt>
      <trkpt lat="45.08921" lon="5.61824">
        <ele>1903</ele>
        <time>2013-02-20T16:23:43Z</time>
      </trkpt>
      <trkpt lat="45.08922" lon="5.61829">
        <ele>1904.599975586</ele>
        <time>2013-02-20T16:23:49Z</time>
      </trkpt>
      <trkpt lat="45.08922" lon="5.61835">
        <ele>1906.400024414</ele>
        <time>2013-02-20T16:23:54Z</time>
      </trkpt>
      <trkpt lat="45.08921" lon="5.61841">
        <ele>1907.599975586</ele>
        <time>2013-02-20T16:24:00Z</time>
      </trkpt>
      <trkpt lat="45.0892" lon="5.61845">
        <ele>1908.599975586</ele>
        <time>2013-02-20T16:24:04Z</time>
      </trkpt>
      <trkpt lat="45.0892" lon="5.61848">
        <ele>1909.199951172</ele>
        <time>2013-02-20T16:24:08Z</time>
      </trkpt>
      <trkpt lat="45.08919" lon="5.61851">
        <ele>1909.800048828</ele>
        <time>2013-02-20T16:24:12Z</time>
      </trkpt>
      <trkpt lat="45.08918" lon="5.61855">
        <ele>1911</ele>
        <time>2013-02-20T16:24:16Z</time>
      </trkpt>
      <trkpt lat="45.08917" lon="5.61858">
        <ele>1911.599975586</ele>
        <time>2013-02-20T16:24:20Z</time>
      </trkpt>
      <trkpt lat="45.08916" lon="5.61864">
        <ele>1912.800048828</ele>
        <time>2013-02-20T16:24:26Z</time>
      </trkpt>
      <trkpt lat="45.08914" lon="5.61867">
        <ele>1912.400024414</ele>
        <time>2013-02-20T16:24:30Z</time>
      </trkpt>
      <trkpt lat="45.08913" lon="5.61871">
        <ele>1912.400024414</ele>
        <time>2013-02-20T16:24:34Z</time>
      </trkpt>
      <trkpt lat="45.08912" lon="5.61876">
        <ele>1912.800048828</ele>
        <time>2013-02-20T16:24:40Z</time>
      </trkpt>
      <trkpt lat="45.08912" lon="5.61881">
        <ele>1913.400024414</ele>
        <time>2013-02-20T16:24:44Z</time>
      </trkpt>
      <trkpt lat="45.08912" lon="5.61884">
        <ele>1913.599975586</ele>
        <time>2013-02-20T16:24:48Z</time>
      </trkpt>
      <trkpt lat="45.08911" lon="5.6189">
        <ele>1914</ele>
        <time>2013-02-20T16:24:53Z</time>
      </trkpt>
      <trkpt lat="45.0891" lon="5.61894">
        <ele>1913.599975586</ele>
        <time>2013-02-20T16:24:58Z</time>
      </trkpt>
      <trkpt lat="45.08908" lon="5.61897">
        <ele>1912.599975586</ele>
        <time>2013-02-20T16:25:02Z</time>
      </trkpt>
      <trkpt lat="45.08908" lon="5.61902">
        <ele>1913</ele>
        <time>2013-02-20T16:25:08Z</time>
      </trkpt>
      <trkpt lat="45.08908" lon="5.61908">
        <ele>1913.400024414</ele>
        <time>2013-02-20T16:25:13Z</time>
      </trkpt>
      <trkpt lat="45.08908" lon="5.61912">
        <ele>1913.800048828</ele>
        <time>2013-02-20T16:25:18Z</time>
      </trkpt>
      <trkpt lat="45.08909" lon="5.61917">
        <ele>1914.599975586</ele>
        <time>2013-02-20T16:25:23Z</time>
      </trkpt>
      <trkpt lat="45.08911" lon="5.61922">
        <ele>1912.599975586</ele>
        <time>2013-02-20T16:25:27Z</time>
      </trkpt>
      <trkpt lat="45.08912" lon="5.61925">
        <ele>1911.199951172</ele>
        <time>2013-02-20T16:25:30Z</time>
      </trkpt>
      <trkpt lat="45.08912" lon="5.61928">
        <ele>1910</ele>
        <time>2013-02-20T16:25:34Z</time>
      </trkpt>
      <trkpt lat="45.08914" lon="5.61932">
        <ele>1908.199951172</ele>
        <time>2013-02-20T16:25:38Z</time>
      </trkpt>
      <trkpt lat="45.08916" lon="5.61936">
        <ele>1907.599975586</ele>
        <time>2013-02-20T16:25:43Z</time>
      </trkpt>
      <trkpt lat="45.08917" lon="5.61942">
        <ele>1904.400024414</ele>
        <time>2013-02-20T16:25:48Z</time>
      </trkpt>
      <trkpt lat="45.08919" lon="5.61947">
        <ele>1901</ele>
        <time>2013-02-20T16:25:54Z</time>
      </trkpt>
      <trkpt lat="45.0892" lon="5.61954">
        <ele>1896.599975586</ele>
        <time>2013-02-20T16:26:00Z</time>
      </trkpt>
      <trkpt lat="45.08922" lon="5.61959">
        <ele>1894.199951172</ele>
        <time>2013-02-20T16:26:05Z</time>
      </trkpt>
      <trkpt lat="45.08923" lon="5.61965">
        <ele>1890.599975586</ele>
        <time>2013-02-20T16:26:12Z</time>
      </trkpt>
      <trkpt lat="45.08924" lon="5.61968">
        <ele>1889.199951172</ele>
        <time>2013-02-20T16:26:16Z</time>
      </trkpt>
      <trkpt lat="45.08924" lon="5.61973">
        <ele>1886.599975586</ele>
        <time>2013-02-20T16:26:21Z</time>
      </trkpt>
      <trkpt lat="45.08926" lon="5.61977">
        <ele>1885</ele>
        <time>2013-02-20T16:26:27Z</time>
      </trkpt>
      <trkpt lat="45.08926" lon="5.61975">
        <ele>1886.400024414</ele>
        <time>2013-02-20T16:26:31Z</time>
      </trkpt>
      <trkpt lat="45.08929" lon="5.61972">
        <ele>1890.199951172</ele>
        <time>2013-02-20T16:26:35Z</time>
      </trkpt>
      <trkpt lat="45.08932" lon="5.6197">
        <ele>1893.199951172</ele>
        <time>2013-02-20T16:26:40Z</time>
      </trkpt>
      <trkpt lat="45.08936" lon="5.61968">
        <ele>1897</ele>
        <time>2013-02-20T16:26:46Z</time>
      </trkpt>
      <trkpt lat="45.0894" lon="5.61965">
        <ele>1900.599975586</ele>
        <time>2013-02-20T16:26:50Z</time>
      </trkpt>
      <trkpt lat="45.08945" lon="5.61967">
        <ele>1903.199951172</ele>
        <time>2013-02-20T16:26:56Z</time>
      </trkpt>
      <trkpt lat="45.0895" lon="5.61968">
        <ele>1905.599975586</ele>
        <time>2013-02-20T16:27:02Z</time>
      </trkpt>
      <trkpt lat="45.08955" lon="5.61971">
        <ele>1907.800048828</ele>
        <time>2013-02-20T16:27:07Z</time>
      </trkpt>
      <trkpt lat="45.08957" lon="5.61972">
        <ele>1909.400024414</ele>
        <time>2013-02-20T16:27:11Z</time>
      </trkpt>
      <trkpt lat="45.08958" lon="5.61972">
        <ele>1910</ele>
        <time>2013-02-20T16:27:12Z</time>
      </trkpt>
      <trkpt lat="45.08964" lon="5.61972">
        <ele>1914</ele>
        <time>2013-02-20T16:27:19Z</time>
      </trkpt>
      <trkpt lat="45.08969" lon="5.61973">
        <ele>1917</ele>
        <time>2013-02-20T16:27:24Z</time>
      </trkpt>
      <trkpt lat="45.08971" lon="5.61973">
        <ele>1918.800048828</ele>
        <time>2013-02-20T16:27:28Z</time>
      </trkpt>
      <trkpt lat="45.08972" lon="5.61974">
        <ele>1919.400024414</ele>
        <time>2013-02-20T16:27:29Z</time>
      </trkpt>
      <trkpt lat="45.08975" lon="5.61975">
        <ele>1921.199951172</ele>
        <time>2013-02-20T16:27:32Z</time>
      </trkpt>
      <trkpt lat="45.0898" lon="5.61977">
        <ele>1924.599975586</ele>
        <time>2013-02-20T16:27:38Z</time>
      </trkpt>
      <trkpt lat="45.08984" lon="5.61978">
        <ele>1927.599975586</ele>
        <time>2013-02-20T16:27:43Z</time>
      </trkpt>
      <trkpt lat="45.08989" lon="5.61979">
        <ele>1931.599975586</ele>
        <time>2013-02-20T16:27:49Z</time>
      </trkpt>
      <trkpt lat="45.08992" lon="5.61979">
        <ele>1934</ele>
        <time>2013-02-20T16:27:53Z</time>
      </trkpt>
      <trkpt lat="45.08993" lon="5.61979">
        <ele>1935</ele>
        <time>2013-02-20T16:27:54Z</time>
      </trkpt>
      <trkpt lat="45.08998" lon="5.61982">
        <ele>1939.199951172</ele>
        <time>2013-02-20T16:28:00Z</time>
      </trkpt>
      <trkpt lat="45.09002" lon="5.61986">
        <ele>1941.599975586</ele>
        <time>2013-02-20T16:28:05Z</time>
      </trkpt>
      <trkpt lat="45.09006" lon="5.6199">
        <ele>1941.800048828</ele>
        <time>2013-02-20T16:28:11Z</time>
      </trkpt>
      <trkpt lat="45.0901" lon="5.61996">
        <ele>1942.199951172</ele>
        <time>2013-02-20T16:28:18Z</time>
      </trkpt>
      <trkpt lat="45.09011" lon="5.61999">
        <ele>1942.599975586</ele>
        <time>2013-02-20T16:28:21Z</time>
      </trkpt>
      <trkpt lat="45.09011" lon="5.62001">
        <ele>1943</ele>
        <time>2013-02-20T16:28:24Z</time>
      </trkpt>
      <trkpt lat="45.09013" lon="5.62002">
        <ele>1942</ele>
        <time>2013-02-20T16:28:29Z</time>
      </trkpt>
      <trkpt lat="45.09013" lon="5.62003">
        <ele>1941.800048828</ele>
        <time>2013-02-20T16:28:35Z</time>
      </trkpt>
      <trkpt lat="45.09014" lon="5.62003">
        <ele>1941.599975586</ele>
        <time>2013-02-20T16:28:48Z</time>
      </trkpt>
      <trkpt lat="45.09014" lon="5.62003">
        <ele>1941.599975586</ele>
        <time>2013-02-20T16:29:14Z</time>
      </trkpt>
      <trkpt lat="45.09014" lon="5.62004">
        <ele>1941.599975586</ele>
        <time>2013-02-20T16:29:18Z</time>
      </trkpt>
      <trkpt lat="45.09014" lon="5.62005">
        <ele>1941.199951172</ele>
        <time>2013-02-20T16:29:53Z</time>
      </trkpt>
      <trkpt lat="45.09012" lon="5.62005">
        <ele>1941.800048828</ele>
        <time>2013-02-20T16:31:53Z</time>
      </trkpt>
      <trkpt lat="45.0901" lon="5.62005">
        <ele>1942.199951172</ele>
        <time>2013-02-20T16:32:06Z</time>
      </trkpt>
      <trkpt lat="45.09013" lon="5.62004">
        <ele>1941.800048828</ele>
        <time>2013-02-20T16:32:36Z</time>
      </trkpt>
      <trkpt lat="45.09013" lon="5.62005">
        <ele>1941.599975586</ele>
        <time>2013-02-20T16:32:56Z</time>
      </trkpt>
      <trkpt lat="45.09013" lon="5.62005">
        <ele>1941.599975586</ele>
        <time>2013-02-20T16:34:53Z</time>
      </trkpt>
      <trkpt lat="45.09013" lon="5.62004">
        <ele>1941.599975586</ele>
        <time>2013-02-20T16:34:57Z</time>
      </trkpt>
      <trkpt lat="45.09013" lon="5.62005">
        <ele>1941.599975586</ele>
        <time>2013-02-20T16:35:10Z</time>
      </trkpt>
      <trkpt lat="45.09013" lon="5.62005">
        <ele>1941.400024414</ele>
        <time>2013-02-20T16:35:22Z</time>
      </trkpt>
      <trkpt lat="45.09012" lon="5.62006">
        <ele>1941.599975586</ele>
        <time>2013-02-20T16:36:06Z</time>
      </trkpt>
      <trkpt lat="45.09013" lon="5.62006">
        <ele>1941.400024414</ele>
        <time>2013-02-20T16:36:44Z</time>
      </trkpt>
      <trkpt lat="45.09012" lon="5.62007">
        <ele>1941.199951172</ele>
        <time>2013-02-20T16:36:51Z</time>
      </trkpt>
      <trkpt lat="45.09009" lon="5.62002">
        <ele>1943</ele>
        <time>2013-02-20T16:36:57Z</time>
      </trkpt>
      <trkpt lat="45.09008" lon="5.61996">
        <ele>1942.800048828</ele>
        <time>2013-02-20T16:37:01Z</time>
      </trkpt>
      <trkpt lat="45.09007" lon="5.61995">
        <ele>1942.800048828</ele>
        <time>2013-02-20T16:37:02Z</time>
      </trkpt>
      <trkpt lat="45.08998" lon="5.61986">
        <ele>1940.800048828</ele>
        <time>2013-02-20T16:37:09Z</time>
      </trkpt>
      <trkpt lat="45.08991" lon="5.61981">
        <ele>1934</ele>
        <time>2013-02-20T16:37:15Z</time>
      </trkpt>
      <trkpt lat="45.0899" lon="5.61979">
        <ele>1933</ele>
        <time>2013-02-20T16:37:21Z</time>
      </trkpt>
      <trkpt lat="45.08984" lon="5.61975">
        <ele>1927.599975586</ele>
        <time>2013-02-20T16:38:17Z</time>
      </trkpt>
      <trkpt lat="45.08976" lon="5.61969">
        <ele>1922</ele>
        <time>2013-02-20T16:38:19Z</time>
      </trkpt>
      <trkpt lat="45.0897" lon="5.61967">
        <ele>1918.400024414</ele>
        <time>2013-02-20T16:38:20Z</time>
      </trkpt>
      <trkpt lat="45.08951" lon="5.61964">
        <ele>1907.400024414</ele>
        <time>2013-02-20T16:38:23Z</time>
      </trkpt>
      <trkpt lat="45.08935" lon="5.61951">
        <ele>1905</ele>
        <time>2013-02-20T16:38:26Z</time>
      </trkpt>
      <trkpt lat="45.08922" lon="5.61955">
        <ele>1896.800048828</ele>
        <time>2013-02-20T16:38:28Z</time>
      </trkpt>
      <trkpt lat="45.08899" lon="5.61939">
        <ele>1886.800048828</ele>
        <time>2013-02-20T16:38:31Z</time>
      </trkpt>
      <trkpt lat="45.08889" lon="5.61914">
        <ele>1895.199951172</ele>
        <time>2013-02-20T16:38:34Z</time>
      </trkpt>
      <trkpt lat="45.08887" lon="5.6189">
        <ele>1897.199951172</ele>
        <time>2013-02-20T16:38:38Z</time>
      </trkpt>
      <trkpt lat="45.08887" lon="5.61885">
        <ele>1898.400024414</ele>
        <time>2013-02-20T16:38:39Z</time>
      </trkpt>
      <trkpt lat="45.08885" lon="5.61869">
        <ele>1900.599975586</ele>
        <time>2013-02-20T16:38:42Z</time>
      </trkpt>
      <trkpt lat="45.08884" lon="5.61865">
        <ele>1901</ele>
        <time>2013-02-20T16:38:43Z</time>
      </trkpt>
      <trkpt lat="45.08877" lon="5.61848">
        <ele>1903.800048828</ele>
        <time>2013-02-20T16:38:48Z</time>
      </trkpt>
      <trkpt lat="45.08866" lon="5.61827">
        <ele>1907.400024414</ele>
        <time>2013-02-20T16:38:53Z</time>
      </trkpt>
      <trkpt lat="45.08849" lon="5.61803">
        <ele>1904.800048828</ele>
        <time>2013-02-20T16:38:57Z</time>
      </trkpt>
      <trkpt lat="45.08832" lon="5.61782">
        <ele>1904</ele>
        <time>2013-02-20T16:39:00Z</time>
      </trkpt>
      <trkpt lat="45.08828" lon="5.61774">
        <ele>1901.599975586</ele>
        <time>2013-02-20T16:39:01Z</time>
      </trkpt>
      <trkpt lat="45.08825" lon="5.61765">
        <ele>1900</ele>
        <time>2013-02-20T16:39:02Z</time>
      </trkpt>
      <trkpt lat="45.08818" lon="5.61738">
        <ele>1896.400024414</ele>
        <time>2013-02-20T16:39:05Z</time>
      </trkpt>
      <trkpt lat="45.08816" lon="5.61729">
        <ele>1894.800048828</ele>
        <time>2013-02-20T16:39:06Z</time>
      </trkpt>
      <trkpt lat="45.08814" lon="5.6172">
        <ele>1893.199951172</ele>
        <time>2013-02-20T16:39:07Z</time>
      </trkpt>
      <trkpt lat="45.08809" lon="5.61697">
        <ele>1890.400024414</ele>
        <time>2013-02-20T16:39:10Z</time>
      </trkpt>
      <trkpt lat="45.08804" lon="5.61685">
        <ele>1889.199951172</ele>
        <time>2013-02-20T16:39:13Z</time>
      </trkpt>
      <trkpt lat="45.08804" lon="5.61686">
        <ele>1889.400024414</ele>
        <time>2013-02-20T16:39:16Z</time>
      </trkpt>
      <trkpt lat="45.08801" lon="5.61678">
        <ele>1888.800048828</ele>
        <time>2013-02-20T16:39:22Z</time>
      </trkpt>
      <trkpt lat="45.088" lon="5.61662">
        <ele>1887</ele>
        <time>2013-02-20T16:39:25Z</time>
      </trkpt>
      <trkpt lat="45.088" lon="5.6165">
        <ele>1884</ele>
        <time>2013-02-20T16:39:27Z</time>
      </trkpt>
      <trkpt lat="45.08798" lon="5.61645">
        <ele>1883.400024414</ele>
        <time>2013-02-20T16:39:28Z</time>
      </trkpt>
      <trkpt lat="45.08802" lon="5.61633">
        <ele>1879.599975586</ele>
        <time>2013-02-20T16:39:33Z</time>
      </trkpt>
      <trkpt lat="45.08815" lon="5.61632">
        <ele>1876.400024414</ele>
        <time>2013-02-20T16:39:37Z</time>
      </trkpt>
      <trkpt lat="45.08827" lon="5.61627">
        <ele>1872.400024414</ele>
        <time>2013-02-20T16:39:41Z</time>
      </trkpt>
      <trkpt lat="45.08831" lon="5.61627">
        <ele>1871.400024414</ele>
        <time>2013-02-20T16:39:42Z</time>
      </trkpt>
      <trkpt lat="45.08838" lon="5.61623">
        <ele>1868.199951172</ele>
        <time>2013-02-20T16:39:44Z</time>
      </trkpt>
      <trkpt lat="45.0884" lon="5.61618">
        <ele>1866.199951172</ele>
        <time>2013-02-20T16:39:45Z</time>
      </trkpt>
      <trkpt lat="45.0885" lon="5.61612">
        <ele>1860.800048828</ele>
        <time>2013-02-20T16:39:48Z</time>
      </trkpt>
      <trkpt lat="45.08861" lon="5.61613">
        <ele>1857.400024414</ele>
        <time>2013-02-20T16:39:51Z</time>
      </trkpt>
      <trkpt lat="45.08859" lon="5.616">
        <ele>1854.599975586</ele>
        <time>2013-02-20T16:39:53Z</time>
      </trkpt>
      <trkpt lat="45.08856" lon="5.61595">
        <ele>1854</ele>
        <time>2013-02-20T16:39:56Z</time>
      </trkpt>
      <trkpt lat="45.08854" lon="5.61597">
        <ele>1855</ele>
        <time>2013-02-20T16:40:02Z</time>
      </trkpt>
      <trkpt lat="45.08853" lon="5.61595">
        <ele>1855</ele>
        <time>2013-02-20T16:40:14Z</time>
      </trkpt>
      <trkpt lat="45.08851" lon="5.61594">
        <ele>1855.199951172</ele>
        <time>2013-02-20T16:40:19Z</time>
      </trkpt>
      <trkpt lat="45.0885" lon="5.61594">
        <ele>1855.599975586</ele>
        <time>2013-02-20T16:40:26Z</time>
      </trkpt>
      <trkpt lat="45.0885" lon="5.61595">
        <ele>1855.800048828</ele>
        <time>2013-02-20T16:40:31Z</time>
      </trkpt>
      <trkpt lat="45.08851" lon="5.61594">
        <ele>1855.400024414</ele>
        <time>2013-02-20T16:40:35Z</time>
      </trkpt>
      <trkpt lat="45.08852" lon="5.61578">
        <ele>1850.599975586</ele>
        <time>2013-02-20T16:40:43Z</time>
      </trkpt>
      <trkpt lat="45.08863" lon="5.61562">
        <ele>1843.199951172</ele>
        <time>2013-02-20T16:40:47Z</time>
      </trkpt>
      <trkpt lat="45.0888" lon="5.61561">
        <ele>1837.800048828</ele>
        <time>2013-02-20T16:40:51Z</time>
      </trkpt>
      <trkpt lat="45.08894" lon="5.61559">
        <ele>1833.199951172</ele>
        <time>2013-02-20T16:40:54Z</time>
      </trkpt>
      <trkpt lat="45.08895" lon="5.61549">
        <ele>1830.400024414</ele>
        <time>2013-02-20T16:40:55Z</time>
      </trkpt>
      <trkpt lat="45.0891" lon="5.6153">
        <ele>1821.800048828</ele>
        <time>2013-02-20T16:40:58Z</time>
      </trkpt>
      <trkpt lat="45.08916" lon="5.61526">
        <ele>1819.400024414</ele>
        <time>2013-02-20T16:40:59Z</time>
      </trkpt>
      <trkpt lat="45.08931" lon="5.61524">
        <ele>1815.199951172</ele>
        <time>2013-02-20T16:41:02Z</time>
      </trkpt>
      <trkpt lat="45.08947" lon="5.61514">
        <ele>1808.400024414</ele>
        <time>2013-02-20T16:41:06Z</time>
      </trkpt>
      <trkpt lat="45.08951" lon="5.61503">
        <ele>1804.800048828</ele>
        <time>2013-02-20T16:41:08Z</time>
      </trkpt>
      <trkpt lat="45.08954" lon="5.61498">
        <ele>1802.599975586</ele>
        <time>2013-02-20T16:41:09Z</time>
      </trkpt>
      <trkpt lat="45.08962" lon="5.61489">
        <ele>1797.599975586</ele>
        <time>2013-02-20T16:41:12Z</time>
      </trkpt>
      <trkpt lat="45.08957" lon="5.61465">
        <ele>1792.400024414</ele>
        <time>2013-02-20T16:41:15Z</time>
      </trkpt>
      <trkpt lat="45.08961" lon="5.61464">
        <ele>1791</ele>
        <time>2013-02-20T16:41:16Z</time>
      </trkpt>
      <trkpt lat="45.08971" lon="5.61472">
        <ele>1789.800048828</ele>
        <time>2013-02-20T16:41:18Z</time>
      </trkpt>
      <trkpt lat="45.08981" lon="5.61475">
        <ele>1787.800048828</ele>
        <time>2013-02-20T16:41:20Z</time>
      </trkpt>
      <trkpt lat="45.08986" lon="5.61475">
        <ele>1786</ele>
        <time>2013-02-20T16:41:21Z</time>
      </trkpt>
      <trkpt lat="45.0899" lon="5.61475">
        <ele>1785</ele>
        <time>2013-02-20T16:41:22Z</time>
      </trkpt>
      <trkpt lat="45.08989" lon="5.61462">
        <ele>1781.199951172</ele>
        <time>2013-02-20T16:41:25Z</time>
      </trkpt>
      <trkpt lat="45.08993" lon="5.61444">
        <ele>1774.400024414</ele>
        <time>2013-02-20T16:41:29Z</time>
      </trkpt>
      <trkpt lat="45.08998" lon="5.61426">
        <ele>1766.599975586</ele>
        <time>2013-02-20T16:41:32Z</time>
      </trkpt>
      <trkpt lat="45.09016" lon="5.61424">
        <ele>1762.800048828</ele>
        <time>2013-02-20T16:41:36Z</time>
      </trkpt>
      <trkpt lat="45.09025" lon="5.61421">
        <ele>1760.400024414</ele>
        <time>2013-02-20T16:41:39Z</time>
      </trkpt>
      <trkpt lat="45.09024" lon="5.61421">
        <ele>1760.800048828</ele>
        <time>2013-02-20T16:41:41Z</time>
      </trkpt>
      <trkpt lat="45.09023" lon="5.61422">
        <ele>1760.800048828</ele>
        <time>2013-02-20T16:41:42Z</time>
      </trkpt>
      <trkpt lat="45.09024" lon="5.61423">
        <ele>1761.199951172</ele>
        <time>2013-02-20T16:41:46Z</time>
      </trkpt>
      <trkpt lat="45.09024" lon="5.61422">
        <ele>1761</ele>
        <time>2013-02-20T16:41:48Z</time>
      </trkpt>
      <trkpt lat="45.09031" lon="5.6141">
        <ele>1757.199951172</ele>
        <time>2013-02-20T16:41:59Z</time>
      </trkpt>
      <trkpt lat="45.0905" lon="5.61381">
        <ele>1749.800048828</ele>
        <time>2013-02-20T16:42:02Z</time>
      </trkpt>
      <trkpt lat="45.09064" lon="5.61351">
        <ele>1743.599975586</ele>
        <time>2013-02-20T16:42:04Z</time>
      </trkpt>
      <trkpt lat="45.09067" lon="5.61334">
        <ele>1741</ele>
        <time>2013-02-20T16:42:05Z</time>
      </trkpt>
      <trkpt lat="45.09069" lon="5.61306">
        <ele>1737.199951172</ele>
        <time>2013-02-20T16:42:07Z</time>
      </trkpt>
      <trkpt lat="45.09068" lon="5.61298">
        <ele>1736.199951172</ele>
        <time>2013-02-20T16:42:08Z</time>
      </trkpt>
      <trkpt lat="45.09058" lon="5.61281">
        <ele>1734.599975586</ele>
        <time>2013-02-20T16:42:11Z</time>
      </trkpt>
      <trkpt lat="45.09054" lon="5.61271">
        <ele>1733.800048828</ele>
        <time>2013-02-20T16:42:13Z</time>
      </trkpt>
      <trkpt lat="45.09049" lon="5.61255">
        <ele>1732</ele>
        <time>2013-02-20T16:42:16Z</time>
      </trkpt>
      <trkpt lat="45.09038" lon="5.61241">
        <ele>1730</ele>
        <time>2013-02-20T16:42:20Z</time>
      </trkpt>
      <trkpt lat="45.09027" lon="5.61225">
        <ele>1726.800048828</ele>
        <time>2013-02-20T16:42:24Z</time>
      </trkpt>
      <trkpt lat="45.09011" lon="5.61206">
        <ele>1723</ele>
        <time>2013-02-20T16:42:29Z</time>
      </trkpt>
      <trkpt lat="45.09007" lon="5.61201">
        <ele>1722.199951172</ele>
        <time>2013-02-20T16:42:30Z</time>
      </trkpt>
      <trkpt lat="45.09001" lon="5.6119">
        <ele>1719.599975586</ele>
        <time>2013-02-20T16:42:32Z</time>
      </trkpt>
      <trkpt lat="45.09004" lon="5.61175">
        <ele>1715.800048828</ele>
        <time>2013-02-20T16:42:34Z</time>
      </trkpt>
      <trkpt lat="45.09014" lon="5.61158">
        <ele>1710.599975586</ele>
        <time>2013-02-20T16:42:37Z</time>
      </trkpt>
      <trkpt lat="45.09028" lon="5.61147">
        <ele>1706.599975586</ele>
        <time>2013-02-20T16:42:40Z</time>
      </trkpt>
      <trkpt lat="45.09038" lon="5.6112">
        <ele>1699.400024414</ele>
        <time>2013-02-20T16:42:44Z</time>
      </trkpt>
      <trkpt lat="45.09051" lon="5.61097">
        <ele>1693.800048828</ele>
        <time>2013-02-20T16:42:47Z</time>
      </trkpt>
      <trkpt lat="45.09056" lon="5.61084">
        <ele>1690.599975586</ele>
        <time>2013-02-20T16:42:49Z</time>
      </trkpt>
      <trkpt lat="45.0906" lon="5.61077">
        <ele>1689.199951172</ele>
        <time>2013-02-20T16:42:51Z</time>
      </trkpt>
      <trkpt lat="45.09069" lon="5.61057">
        <ele>1684.199951172</ele>
        <time>2013-02-20T16:42:54Z</time>
      </trkpt>
      <trkpt lat="45.09072" lon="5.61048">
        <ele>1682.199951172</ele>
        <time>2013-02-20T16:42:57Z</time>
      </trkpt>
      <trkpt lat="45.09074" lon="5.61046">
        <ele>1681.800048828</ele>
        <time>2013-02-20T16:43:02Z</time>
      </trkpt>
      <trkpt lat="45.09076" lon="5.61047">
        <ele>1682.199951172</ele>
        <time>2013-02-20T16:43:09Z</time>
      </trkpt>
      <trkpt lat="45.09079" lon="5.61046">
        <ele>1681.800048828</ele>
        <time>2013-02-20T16:43:12Z</time>
      </trkpt>
      <trkpt lat="45.09081" lon="5.61043">
        <ele>1681</ele>
        <time>2013-02-20T16:43:13Z</time>
      </trkpt>
      <trkpt lat="45.0909" lon="5.61025">
        <ele>1676.400024414</ele>
        <time>2013-02-20T16:43:17Z</time>
      </trkpt>
      <trkpt lat="45.09096" lon="5.61005">
        <ele>1671.199951172</ele>
        <time>2013-02-20T16:43:21Z</time>
      </trkpt>
      <trkpt lat="45.09098" lon="5.61001">
        <ele>1670.199951172</ele>
        <time>2013-02-20T16:43:22Z</time>
      </trkpt>
      <trkpt lat="45.09102" lon="5.60993">
        <ele>1668</ele>
        <time>2013-02-20T16:43:24Z</time>
      </trkpt>
      <trkpt lat="45.09104" lon="5.60993">
        <ele>1667.800048828</ele>
        <time>2013-02-20T16:43:25Z</time>
      </trkpt>
      <trkpt lat="45.09102" lon="5.60994">
        <ele>1668.199951172</ele>
        <time>2013-02-20T16:43:28Z</time>
      </trkpt>
      <trkpt lat="45.09102" lon="5.60995">
        <ele>1668.400024414</ele>
        <time>2013-02-20T16:43:32Z</time>
      </trkpt>
      <trkpt lat="45.09102" lon="5.60994">
        <ele>1668</ele>
        <time>2013-02-20T16:43:39Z</time>
      </trkpt>
      <trkpt lat="45.09104" lon="5.60989">
        <ele>1666.800048828</ele>
        <time>2013-02-20T16:43:43Z</time>
      </trkpt>
      <trkpt lat="45.09103" lon="5.60991">
        <ele>1667.199951172</ele>
        <time>2013-02-20T16:43:48Z</time>
      </trkpt>
      <trkpt lat="45.09105" lon="5.60992">
        <ele>1667.400024414</ele>
        <time>2013-02-20T16:43:54Z</time>
      </trkpt>
      <trkpt lat="45.09108" lon="5.6099">
        <ele>1666.599975586</ele>
        <time>2013-02-20T16:43:56Z</time>
      </trkpt>
      <trkpt lat="45.09126" lon="5.60987">
        <ele>1664.800048828</ele>
        <time>2013-02-20T16:44:01Z</time>
      </trkpt>
      <trkpt lat="45.09136" lon="5.60982">
        <ele>1662.800048828</ele>
        <time>2013-02-20T16:44:05Z</time>
      </trkpt>
      <trkpt lat="45.09151" lon="5.6097">
        <ele>1659.400024414</ele>
        <time>2013-02-20T16:44:08Z</time>
      </trkpt>
      <trkpt lat="45.09166" lon="5.60958">
        <ele>1655.800048828</ele>
        <time>2013-02-20T16:44:11Z</time>
      </trkpt>
      <trkpt lat="45.09171" lon="5.60953">
        <ele>1654.599975586</ele>
        <time>2013-02-20T16:44:12Z</time>
      </trkpt>
      <trkpt lat="45.09187" lon="5.60936">
        <ele>1650.400024414</ele>
        <time>2013-02-20T16:44:15Z</time>
      </trkpt>
      <trkpt lat="45.09193" lon="5.60931">
        <ele>1649.199951172</ele>
        <time>2013-02-20T16:44:16Z</time>
      </trkpt>
      <trkpt lat="45.09202" lon="5.60925">
        <ele>1647.800048828</ele>
        <time>2013-02-20T16:44:18Z</time>
      </trkpt>
      <trkpt lat="45.09211" lon="5.6092">
        <ele>1647</ele>
        <time>2013-02-20T16:44:20Z</time>
      </trkpt>
      <trkpt lat="45.09218" lon="5.60918">
        <ele>1646.400024414</ele>
        <time>2013-02-20T16:44:22Z</time>
      </trkpt>
      <trkpt lat="45.09222" lon="5.60918">
        <ele>1646.400024414</ele>
        <time>2013-02-20T16:44:24Z</time>
      </trkpt>
      <trkpt lat="45.09224" lon="5.60919">
        <ele>1646.599975586</ele>
        <time>2013-02-20T16:44:30Z</time>
      </trkpt>
      <trkpt lat="45.09224" lon="5.60919">
        <ele>1646.400024414</ele>
        <time>2013-02-20T16:44:45Z</time>
      </trkpt>
      <trkpt lat="45.09225" lon="5.60922">
        <ele>1647</ele>
        <time>2013-02-20T16:44:59Z</time>
      </trkpt>
      <trkpt lat="45.09225" lon="5.60926">
        <ele>1647.400024414</ele>
        <time>2013-02-20T16:45:03Z</time>
      </trkpt>
      <trkpt lat="45.09227" lon="5.60927">
        <ele>1647.599975586</ele>
        <time>2013-02-20T16:45:07Z</time>
      </trkpt>
      <trkpt lat="45.09226" lon="5.60926">
        <ele>1647.400024414</ele>
        <time>2013-02-20T16:45:12Z</time>
      </trkpt>
      <trkpt lat="45.09224" lon="5.60922">
        <ele>1647</ele>
        <time>2013-02-20T16:45:29Z</time>
      </trkpt>
      <trkpt lat="45.09224" lon="5.60924">
        <ele>1647.199951172</ele>
        <time>2013-02-20T16:45:41Z</time>
      </trkpt>
      <trkpt lat="45.09222" lon="5.60921">
        <ele>1646.800048828</ele>
        <time>2013-02-20T16:45:45Z</time>
      </trkpt>
      <trkpt lat="45.09221" lon="5.60922">
        <ele>1647</ele>
        <time>2013-02-20T16:45:46Z</time>
      </trkpt>
      <trkpt lat="45.0922" lon="5.60926">
        <ele>1647.599975586</ele>
        <time>2013-02-20T16:45:49Z</time>
      </trkpt>
      <trkpt lat="45.09222" lon="5.60927">
        <ele>1647.800048828</ele>
        <time>2013-02-20T16:45:53Z</time>
      </trkpt>
      <trkpt lat="45.09222" lon="5.60922">
        <ele>1647</ele>
        <time>2013-02-20T16:46:19Z</time>
      </trkpt>
      <trkpt lat="45.09224" lon="5.6092">
        <ele>1646.800048828</ele>
        <time>2013-02-20T16:47:02Z</time>
      </trkpt>
      <trkpt lat="45.09225" lon="5.60921">
        <ele>1646.800048828</ele>
        <time>2013-02-20T16:47:15Z</time>
      </trkpt>
      <trkpt lat="45.09224" lon="5.60921">
        <ele>1646.800048828</ele>
        <time>2013-02-20T16:47:22Z</time>
      </trkpt>
      <trkpt lat="45.09222" lon="5.60919">
        <ele>1646.599975586</ele>
        <time>2013-02-20T16:47:33Z</time>
      </trkpt>
      <trkpt lat="45.09225" lon="5.60922">
        <ele>1647</ele>
        <time>2013-02-20T16:48:08Z</time>
      </trkpt>
      <trkpt lat="45.09225" lon="5.60924">
        <ele>1647.199951172</ele>
        <time>2013-02-20T16:48:14Z</time>
      </trkpt>
      <trkpt lat="45.09224" lon="5.60921">
        <ele>1646.800048828</ele>
        <time>2013-02-20T16:48:54Z</time>
      </trkpt>
      <trkpt lat="45.09224" lon="5.60922">
        <ele>1647</ele>
        <time>2013-02-20T16:49:05Z</time>
      </trkpt>
      <trkpt lat="45.09223" lon="5.60923">
        <ele>1647</ele>
        <time>2013-02-20T16:50:21Z</time>
      </trkpt>
      <trkpt lat="45.09222" lon="5.60921">
        <ele>1647</ele>
        <time>2013-02-20T16:50:56Z</time>
      </trkpt>
      <trkpt lat="45.09222" lon="5.60922">
        <ele>1647</ele>
        <time>2013-02-20T16:51:06Z</time>
      </trkpt>
      <trkpt lat="45.09222" lon="5.60922">
        <ele>1647</ele>
        <time>2013-02-20T16:51:40Z</time>
      </trkpt>
      <trkpt lat="45.09224" lon="5.60923">
        <ele>1647.199951172</ele>
        <time>2013-02-20T16:51:51Z</time>
      </trkpt>
      <trkpt lat="45.0922" lon="5.60931">
        <ele>1648.199951172</ele>
        <time>2013-02-20T16:51:57Z</time>
      </trkpt>
      <trkpt lat="45.09218" lon="5.60935">
        <ele>1649</ele>
        <time>2013-02-20T16:52:03Z</time>
      </trkpt>
      <trkpt lat="45.09215" lon="5.6094">
        <ele>1649.800048828</ele>
        <time>2013-02-20T16:52:07Z</time>
      </trkpt>
      <trkpt lat="45.09215" lon="5.60942">
        <ele>1650.199951172</ele>
        <time>2013-02-20T16:52:10Z</time>
      </trkpt>
      <trkpt lat="45.09214" lon="5.60944">
        <ele>1650.599975586</ele>
        <time>2013-02-20T16:52:12Z</time>
      </trkpt>
      <trkpt lat="45.09213" lon="5.60947">
        <ele>1651</ele>
        <time>2013-02-20T16:52:14Z</time>
      </trkpt>
      <trkpt lat="45.09212" lon="5.60952">
        <ele>1652</ele>
        <time>2013-02-20T16:52:18Z</time>
      </trkpt>
      <trkpt lat="45.09212" lon="5.60954">
        <ele>1652.199951172</ele>
        <time>2013-02-20T16:52:20Z</time>
      </trkpt>
      <trkpt lat="45.09211" lon="5.60957">
        <ele>1652.800048828</ele>
        <time>2013-02-20T16:52:22Z</time>
      </trkpt>
      <trkpt lat="45.0921" lon="5.60959">
        <ele>1653.199951172</ele>
        <time>2013-02-20T16:52:24Z</time>
      </trkpt>
      <trkpt lat="45.09209" lon="5.60962">
        <ele>1653.800048828</ele>
        <time>2013-02-20T16:52:26Z</time>
      </trkpt>
      <trkpt lat="45.09206" lon="5.6097">
        <ele>1655.199951172</ele>
        <time>2013-02-20T16:52:32Z</time>
      </trkpt>
      <trkpt lat="45.09205" lon="5.60972">
        <ele>1655.599975586</ele>
        <time>2013-02-20T16:52:39Z</time>
      </trkpt>
      <trkpt lat="45.09202" lon="5.60976">
        <ele>1656.599975586</ele>
        <time>2013-02-20T16:52:45Z</time>
      </trkpt>
      <trkpt lat="45.09198" lon="5.60981">
        <ele>1657.800048828</ele>
        <time>2013-02-20T16:52:51Z</time>
      </trkpt>
      <trkpt lat="45.09192" lon="5.60985">
        <ele>1659.199951172</ele>
        <time>2013-02-20T16:52:58Z</time>
      </trkpt>
      <trkpt lat="45.09186" lon="5.60989">
        <ele>1660.400024414</ele>
        <time>2013-02-20T16:53:05Z</time>
      </trkpt>
      <trkpt lat="45.0918" lon="5.60993">
        <ele>1662</ele>
        <time>2013-02-20T16:53:13Z</time>
      </trkpt>
      <trkpt lat="45.09175" lon="5.60997">
        <ele>1663.400024414</ele>
        <time>2013-02-20T16:53:20Z</time>
      </trkpt>
      <trkpt lat="45.09172" lon="5.60999">
        <ele>1664.199951172</ele>
        <time>2013-02-20T16:53:24Z</time>
      </trkpt>
      <trkpt lat="45.09171" lon="5.61001">
        <ele>1664.599975586</ele>
        <time>2013-02-20T16:53:26Z</time>
      </trkpt>
      <trkpt lat="45.09168" lon="5.61004">
        <ele>1665.800048828</ele>
        <time>2013-02-20T16:53:31Z</time>
      </trkpt>
      <trkpt lat="45.09166" lon="5.61008">
        <ele>1666.800048828</ele>
        <time>2013-02-20T16:53:35Z</time>
      </trkpt>
      <trkpt lat="45.09163" lon="5.61012">
        <ele>1668</ele>
        <time>2013-02-20T16:53:40Z</time>
      </trkpt>
      <trkpt lat="45.09161" lon="5.61015">
        <ele>1669</ele>
        <time>2013-02-20T16:53:45Z</time>
      </trkpt>
      <trkpt lat="45.09158" lon="5.61017">
        <ele>1669.800048828</ele>
        <time>2013-02-20T16:53:49Z</time>
      </trkpt>
      <trkpt lat="45.09155" lon="5.61019">
        <ele>1670.599975586</ele>
        <time>2013-02-20T16:53:53Z</time>
      </trkpt>
      <trkpt lat="45.09152" lon="5.61022">
        <ele>1671.400024414</ele>
        <time>2013-02-20T16:53:58Z</time>
      </trkpt>
      <trkpt lat="45.0915" lon="5.61023">
        <ele>1672</ele>
        <time>2013-02-20T16:54:02Z</time>
      </trkpt>
      <trkpt lat="45.09147" lon="5.61026">
        <ele>1672.800048828</ele>
        <time>2013-02-20T16:54:06Z</time>
      </trkpt>
      <trkpt lat="45.09145" lon="5.61029">
        <ele>1673.599975586</ele>
        <time>2013-02-20T16:54:10Z</time>
      </trkpt>
      <trkpt lat="45.09144" lon="5.61031">
        <ele>1674.400024414</ele>
        <time>2013-02-20T16:54:14Z</time>
      </trkpt>
      <trkpt lat="45.09141" lon="5.61035">
        <ele>1675.599975586</ele>
        <time>2013-02-20T16:54:20Z</time>
      </trkpt>
      <trkpt lat="45.0914" lon="5.61038">
        <ele>1676.400024414</ele>
        <time>2013-02-20T16:54:23Z</time>
      </trkpt>
      <trkpt lat="45.09139" lon="5.61042">
        <ele>1677.400024414</ele>
        <time>2013-02-20T16:54:27Z</time>
      </trkpt>
      <trkpt lat="45.09138" lon="5.61048">
        <ele>1679</ele>
        <time>2013-02-20T16:54:33Z</time>
      </trkpt>
      <trkpt lat="45.09136" lon="5.61052">
        <ele>1679.800048828</ele>
        <time>2013-02-20T16:54:37Z</time>
      </trkpt>
      <trkpt lat="45.09135" lon="5.61055">
        <ele>1680.800048828</ele>
        <time>2013-02-20T16:54:41Z</time>
      </trkpt>
      <trkpt lat="45.09135" lon="5.61058">
        <ele>1681.599975586</ele>
        <time>2013-02-20T16:54:45Z</time>
      </trkpt>
      <trkpt lat="45.09136" lon="5.61064">
        <ele>1682.800048828</ele>
        <time>2013-02-20T16:54:50Z</time>
      </trkpt>
      <trkpt lat="45.09134" lon="5.61069">
        <ele>1684.400024414</ele>
        <time>2013-02-20T16:54:57Z</time>
      </trkpt>
      <trkpt lat="45.0913" lon="5.6107">
        <ele>1684.800048828</ele>
        <time>2013-02-20T16:55:02Z</time>
      </trkpt>
      <trkpt lat="45.09124" lon="5.61072">
        <ele>1685.599975586</ele>
        <time>2013-02-20T16:55:08Z</time>
      </trkpt>
      <trkpt lat="45.09116" lon="5.61074">
        <ele>1686.599975586</ele>
        <time>2013-02-20T16:55:15Z</time>
      </trkpt>
      <trkpt lat="45.09108" lon="5.61077">
        <ele>1687.800048828</ele>
        <time>2013-02-20T16:55:22Z</time>
      </trkpt>
      <trkpt lat="45.091" lon="5.61081">
        <ele>1689.199951172</ele>
        <time>2013-02-20T16:55:30Z</time>
      </trkpt>
      <trkpt lat="45.09093" lon="5.61085">
        <ele>1690.599975586</ele>
        <time>2013-02-20T16:55:37Z</time>
      </trkpt>
      <trkpt lat="45.09089" lon="5.61087">
        <ele>1691.400024414</ele>
        <time>2013-02-20T16:55:42Z</time>
      </trkpt>
      <trkpt lat="45.09083" lon="5.61091">
        <ele>1692.400024414</ele>
        <time>2013-02-20T16:55:48Z</time>
      </trkpt>
      <trkpt lat="45.09082" lon="5.61093">
        <ele>1692.800048828</ele>
        <time>2013-02-20T16:55:51Z</time>
      </trkpt>
      <trkpt lat="45.0908" lon="5.61095">
        <ele>1693.199951172</ele>
        <time>2013-02-20T16:55:53Z</time>
      </trkpt>
      <trkpt lat="45.09078" lon="5.61099">
        <ele>1694</ele>
        <time>2013-02-20T16:55:57Z</time>
      </trkpt>
      <trkpt lat="45.09077" lon="5.61101">
        <ele>1694.599975586</ele>
        <time>2013-02-20T16:55:59Z</time>
      </trkpt>
      <trkpt lat="45.09074" lon="5.61108">
        <ele>1696</ele>
        <time>2013-02-20T16:56:05Z</time>
      </trkpt>
      <trkpt lat="45.09072" lon="5.61115">
        <ele>1697.599975586</ele>
        <time>2013-02-20T16:56:11Z</time>
      </trkpt>
      <trkpt lat="45.09071" lon="5.61118">
        <ele>1698.400024414</ele>
        <time>2013-02-20T16:56:15Z</time>
      </trkpt>
      <trkpt lat="45.09071" lon="5.6112">
        <ele>1698.599975586</ele>
        <time>2013-02-20T16:56:16Z</time>
      </trkpt>
      <trkpt lat="45.09069" lon="5.61124">
        <ele>1699.599975586</ele>
        <time>2013-02-20T16:56:21Z</time>
      </trkpt>
      <trkpt lat="45.09066" lon="5.61131">
        <ele>1701.199951172</ele>
        <time>2013-02-20T16:56:28Z</time>
      </trkpt>
      <trkpt lat="45.09063" lon="5.61134">
        <ele>1702</ele>
        <time>2013-02-20T16:56:33Z</time>
      </trkpt>
      <trkpt lat="45.0906" lon="5.61136">
        <ele>1702.599975586</ele>
        <time>2013-02-20T16:56:40Z</time>
      </trkpt>
      <trkpt lat="45.09054" lon="5.61139">
        <ele>1703.400024414</ele>
        <time>2013-02-20T16:56:48Z</time>
      </trkpt>
      <trkpt lat="45.09047" lon="5.61141">
        <ele>1704.400024414</ele>
        <time>2013-02-20T16:56:55Z</time>
      </trkpt>
      <trkpt lat="45.09043" lon="5.61143">
        <ele>1705</ele>
        <time>2013-02-20T16:57:01Z</time>
      </trkpt>
      <trkpt lat="45.09039" lon="5.61144">
        <ele>1705.400024414</ele>
        <time>2013-02-20T16:57:06Z</time>
      </trkpt>
      <trkpt lat="45.09038" lon="5.61146">
        <ele>1706</ele>
        <time>2013-02-20T16:57:10Z</time>
      </trkpt>
      <trkpt lat="45.09035" lon="5.6115">
        <ele>1707.199951172</ele>
        <time>2013-02-20T16:57:16Z</time>
      </trkpt>
      <trkpt lat="45.09032" lon="5.61156">
        <ele>1708.800048828</ele>
        <time>2013-02-20T16:57:23Z</time>
      </trkpt>
      <trkpt lat="45.09029" lon="5.61162">
        <ele>1710.599975586</ele>
        <time>2013-02-20T16:57:29Z</time>
      </trkpt>
      <trkpt lat="45.09028" lon="5.61164">
        <ele>1711</ele>
        <time>2013-02-20T16:57:31Z</time>
      </trkpt>
      <trkpt lat="45.09027" lon="5.61166">
        <ele>1711.800048828</ele>
        <time>2013-02-20T16:57:34Z</time>
      </trkpt>
      <trkpt lat="45.09025" lon="5.61169">
        <ele>1712.800048828</ele>
        <time>2013-02-20T16:57:39Z</time>
      </trkpt>
      <trkpt lat="45.09024" lon="5.61173">
        <ele>1713.599975586</ele>
        <time>2013-02-20T16:57:43Z</time>
      </trkpt>
      <trkpt lat="45.09023" lon="5.61178">
        <ele>1715.199951172</ele>
        <time>2013-02-20T16:57:48Z</time>
      </trkpt>
      <trkpt lat="45.09026" lon="5.61186">
        <ele>1717</ele>
        <time>2013-02-20T16:57:55Z</time>
      </trkpt>
      <trkpt lat="45.09028" lon="5.61193">
        <ele>1718.599975586</ele>
        <time>2013-02-20T16:58:01Z</time>
      </trkpt>
      <trkpt lat="45.09031" lon="5.61201">
        <ele>1720.199951172</ele>
        <time>2013-02-20T16:58:08Z</time>
      </trkpt>
      <trkpt lat="45.09032" lon="5.61207">
        <ele>1721.800048828</ele>
        <time>2013-02-20T16:58:14Z</time>
      </trkpt>
      <trkpt lat="45.09033" lon="5.61212">
        <ele>1722.800048828</ele>
        <time>2013-02-20T16:58:18Z</time>
      </trkpt>
      <trkpt lat="45.09034" lon="5.61213">
        <ele>1723</ele>
        <time>2013-02-20T16:58:19Z</time>
      </trkpt>
      <trkpt lat="45.09038" lon="5.61218">
        <ele>1724.199951172</ele>
        <time>2013-02-20T16:58:26Z</time>
      </trkpt>
      <trkpt lat="45.09043" lon="5.61223">
        <ele>1725.199951172</ele>
        <time>2013-02-20T16:58:33Z</time>
      </trkpt>
      <trkpt lat="45.09044" lon="5.61225">
        <ele>1725.400024414</ele>
        <time>2013-02-20T16:58:35Z</time>
      </trkpt>
      <trkpt lat="45.09047" lon="5.61229">
        <ele>1726.199951172</ele>
        <time>2013-02-20T16:58:39Z</time>
      </trkpt>
      <trkpt lat="45.09048" lon="5.61233">
        <ele>1727</ele>
        <time>2013-02-20T16:58:43Z</time>
      </trkpt>
      <trkpt lat="45.09049" lon="5.61235">
        <ele>1727.599975586</ele>
        <time>2013-02-20T16:58:45Z</time>
      </trkpt>
      <trkpt lat="45.0905" lon="5.61242">
        <ele>1729.400024414</ele>
        <time>2013-02-20T16:58:52Z</time>
      </trkpt>
      <trkpt lat="45.09051" lon="5.6125">
        <ele>1731.199951172</ele>
        <time>2013-02-20T16:58:59Z</time>
      </trkpt>
      <trkpt lat="45.09051" lon="5.61251">
        <ele>1731.400024414</ele>
        <time>2013-02-20T16:59:00Z</time>
      </trkpt>
      <trkpt lat="45.09051" lon="5.61256">
        <ele>1732</ele>
        <time>2013-02-20T16:59:04Z</time>
      </trkpt>
      <trkpt lat="45.09051" lon="5.61257">
        <ele>1732.199951172</ele>
        <time>2013-02-20T16:59:05Z</time>
      </trkpt>
      <trkpt lat="45.09051" lon="5.61259">
        <ele>1732.400024414</ele>
        <time>2013-02-20T16:59:07Z</time>
      </trkpt>
      <trkpt lat="45.09051" lon="5.61263">
        <ele>1732.800048828</ele>
        <time>2013-02-20T16:59:10Z</time>
      </trkpt>
      <trkpt lat="45.09051" lon="5.61267">
        <ele>1733.400024414</ele>
        <time>2013-02-20T16:59:14Z</time>
      </trkpt>
      <trkpt lat="45.09051" lon="5.61275">
        <ele>1734.400024414</ele>
        <time>2013-02-20T16:59:20Z</time>
      </trkpt>
      <trkpt lat="45.09054" lon="5.61288">
        <ele>1735.800048828</ele>
        <time>2013-02-20T16:59:29Z</time>
      </trkpt>
      <trkpt lat="45.09057" lon="5.61296">
        <ele>1736.800048828</ele>
        <time>2013-02-20T16:59:36Z</time>
      </trkpt>
      <trkpt lat="45.0906" lon="5.61304">
        <ele>1737.599975586</ele>
        <time>2013-02-20T16:59:43Z</time>
      </trkpt>
      <trkpt lat="45.09063" lon="5.61311">
        <ele>1738.199951172</ele>
        <time>2013-02-20T16:59:49Z</time>
      </trkpt>
      <trkpt lat="45.09067" lon="5.6132">
        <ele>1739.199951172</ele>
        <time>2013-02-20T16:59:56Z</time>
      </trkpt>
      <trkpt lat="45.09069" lon="5.6133">
        <ele>1740.400024414</ele>
        <time>2013-02-20T17:00:03Z</time>
      </trkpt>
      <trkpt lat="45.0907" lon="5.61339">
        <ele>1741.599975586</ele>
        <time>2013-02-20T17:00:10Z</time>
      </trkpt>
      <trkpt lat="45.0907" lon="5.61347">
        <ele>1742.599975586</ele>
        <time>2013-02-20T17:00:16Z</time>
      </trkpt>
      <trkpt lat="45.09071" lon="5.61352">
        <ele>1743.400024414</ele>
        <time>2013-02-20T17:00:21Z</time>
      </trkpt>
      <trkpt lat="45.09071" lon="5.61359">
        <ele>1744.400024414</ele>
        <time>2013-02-20T17:00:27Z</time>
      </trkpt>
      <trkpt lat="45.09072" lon="5.61368">
        <ele>1745.599975586</ele>
        <time>2013-02-20T17:00:34Z</time>
      </trkpt>
      <trkpt lat="45.09073" lon="5.61375">
        <ele>1746.599975586</ele>
        <time>2013-02-20T17:00:40Z</time>
      </trkpt>
      <trkpt lat="45.09073" lon="5.61383">
        <ele>1747.599975586</ele>
        <time>2013-02-20T17:00:47Z</time>
      </trkpt>
      <trkpt lat="45.09074" lon="5.6139">
        <ele>1748.400024414</ele>
        <time>2013-02-20T17:00:53Z</time>
      </trkpt>
      <trkpt lat="45.09074" lon="5.61392">
        <ele>1748.800048828</ele>
        <time>2013-02-20T17:00:55Z</time>
      </trkpt>
      <trkpt lat="45.09075" lon="5.61395">
        <ele>1749</ele>
        <time>2013-02-20T17:00:58Z</time>
      </trkpt>
      <trkpt lat="45.09075" lon="5.61401">
        <ele>1750</ele>
        <time>2013-02-20T17:01:03Z</time>
      </trkpt>
      <trkpt lat="45.09076" lon="5.61407">
        <ele>1750.599975586</ele>
        <time>2013-02-20T17:01:09Z</time>
      </trkpt>
      <trkpt lat="45.09078" lon="5.61413">
        <ele>1751.199951172</ele>
        <time>2013-02-20T17:01:15Z</time>
      </trkpt>
      <trkpt lat="45.09078" lon="5.61419">
        <ele>1752</ele>
        <time>2013-02-20T17:01:21Z</time>
      </trkpt>
      <trkpt lat="45.09081" lon="5.61426">
        <ele>1753</ele>
        <time>2013-02-20T17:01:28Z</time>
      </trkpt>
      <trkpt lat="45.09083" lon="5.61434">
        <ele>1753.800048828</ele>
        <time>2013-02-20T17:01:35Z</time>
      </trkpt>
      <trkpt lat="45.09084" lon="5.61437">
        <ele>1754.400024414</ele>
        <time>2013-02-20T17:01:38Z</time>
      </trkpt>
      <trkpt lat="45.09084" lon="5.61442">
        <ele>1755.199951172</ele>
        <time>2013-02-20T17:01:43Z</time>
      </trkpt>
      <trkpt lat="45.09085" lon="5.61446">
        <ele>1756</ele>
        <time>2013-02-20T17:01:48Z</time>
      </trkpt>
      <trkpt lat="45.09086" lon="5.61451">
        <ele>1756.800048828</ele>
        <time>2013-02-20T17:01:53Z</time>
      </trkpt>
      <trkpt lat="45.09086" lon="5.61458">
        <ele>1758</ele>
        <time>2013-02-20T17:02:00Z</time>
      </trkpt>
      <trkpt lat="45.09086" lon="5.61464">
        <ele>1759</ele>
        <time>2013-02-20T17:02:06Z</time>
      </trkpt>
      <trkpt lat="45.09087" lon="5.61467">
        <ele>1759.800048828</ele>
        <time>2013-02-20T17:02:10Z</time>
      </trkpt>
      <trkpt lat="45.09088" lon="5.61472">
        <ele>1760.599975586</ele>
        <time>2013-02-20T17:02:15Z</time>
      </trkpt>
      <trkpt lat="45.09086" lon="5.61476">
        <ele>1761</ele>
        <time>2013-02-20T17:02:20Z</time>
      </trkpt>
      <trkpt lat="45.09083" lon="5.6148">
        <ele>1761.599975586</ele>
        <time>2013-02-20T17:02:27Z</time>
      </trkpt>
      <trkpt lat="45.09084" lon="5.61482">
        <ele>1761.800048828</ele>
        <time>2013-02-20T17:04:14Z</time>
      </trkpt>
      <trkpt lat="45.09083" lon="5.61483">
        <ele>1762.199951172</ele>
        <time>2013-02-20T17:04:15Z</time>
      </trkpt>
      <trkpt lat="45.0908" lon="5.61487">
        <ele>1763.599975586</ele>
        <time>2013-02-20T17:04:20Z</time>
      </trkpt>
      <trkpt lat="45.09077" lon="5.61492">
        <ele>1765.400024414</ele>
        <time>2013-02-20T17:04:25Z</time>
      </trkpt>
      <trkpt lat="45.09076" lon="5.61494">
        <ele>1766</ele>
        <time>2013-02-20T17:04:27Z</time>
      </trkpt>
      <trkpt lat="45.09076" lon="5.61499">
        <ele>1767</ele>
        <time>2013-02-20T17:04:31Z</time>
      </trkpt>
      <trkpt lat="45.09075" lon="5.61503">
        <ele>1768.199951172</ele>
        <time>2013-02-20T17:04:34Z</time>
      </trkpt>
      <trkpt lat="45.09075" lon="5.61506">
        <ele>1769</ele>
        <time>2013-02-20T17:04:36Z</time>
      </trkpt>
      <trkpt lat="45.09076" lon="5.61512">
        <ele>1770.599975586</ele>
        <time>2013-02-20T17:04:41Z</time>
      </trkpt>
      <trkpt lat="45.09078" lon="5.61517">
        <ele>1771.400024414</ele>
        <time>2013-02-20T17:04:46Z</time>
      </trkpt>
      <trkpt lat="45.0908" lon="5.61521">
        <ele>1771.800048828</ele>
        <time>2013-02-20T17:04:50Z</time>
      </trkpt>
      <trkpt lat="45.09081" lon="5.61523">
        <ele>1772</ele>
        <time>2013-02-20T17:04:52Z</time>
      </trkpt>
      <trkpt lat="45.09082" lon="5.61523">
        <ele>1771.800048828</ele>
        <time>2013-02-20T17:04:59Z</time>
      </trkpt>
      <trkpt lat="45.09084" lon="5.61524">
        <ele>1771.800048828</ele>
        <time>2013-02-20T17:06:21Z</time>
      </trkpt>
      <trkpt lat="45.09087" lon="5.6153">
        <ele>1773.599975586</ele>
        <time>2013-02-20T17:06:26Z</time>
      </trkpt>
      <trkpt lat="45.09093" lon="5.61541">
        <ele>1777.400024414</ele>
        <time>2013-02-20T17:06:32Z</time>
      </trkpt>
      <trkpt lat="45.09096" lon="5.61547">
        <ele>1779.199951172</ele>
        <time>2013-02-20T17:06:36Z</time>
      </trkpt>
      <trkpt lat="45.09096" lon="5.61549">
        <ele>1779.800048828</ele>
        <time>2013-02-20T17:06:37Z</time>
      </trkpt>
      <trkpt lat="45.09098" lon="5.61557">
        <ele>1782.199951172</ele>
        <time>2013-02-20T17:06:42Z</time>
      </trkpt>
      <trkpt lat="45.09098" lon="5.61559">
        <ele>1782.599975586</ele>
        <time>2013-02-20T17:06:43Z</time>
      </trkpt>
      <trkpt lat="45.09095" lon="5.61562">
        <ele>1783.400024414</ele>
        <time>2013-02-20T17:06:47Z</time>
      </trkpt>
      <trkpt lat="45.09094" lon="5.61563">
        <ele>1783.599975586</ele>
        <time>2013-02-20T17:06:48Z</time>
      </trkpt>
      <trkpt lat="45.09091" lon="5.61565">
        <ele>1784</ele>
        <time>2013-02-20T17:06:52Z</time>
      </trkpt>
      <trkpt lat="45.0909" lon="5.61566">
        <ele>1784.400024414</ele>
        <time>2013-02-20T17:06:54Z</time>
      </trkpt>
      <trkpt lat="45.09088" lon="5.61567">
        <ele>1784.599975586</ele>
        <time>2013-02-20T17:06:57Z</time>
      </trkpt>
      <trkpt lat="45.09086" lon="5.61569">
        <ele>1784.800048828</ele>
        <time>2013-02-20T17:07:01Z</time>
      </trkpt>
      <trkpt lat="45.09083" lon="5.61571">
        <ele>1785.400024414</ele>
        <time>2013-02-20T17:07:06Z</time>
      </trkpt>
      <trkpt lat="45.09081" lon="5.61573">
        <ele>1786.599975586</ele>
        <time>2013-02-20T17:07:11Z</time>
      </trkpt>
      <trkpt lat="45.09078" lon="5.61574">
        <ele>1787.800048828</ele>
        <time>2013-02-20T17:07:15Z</time>
      </trkpt>
      <trkpt lat="45.09075" lon="5.61575">
        <ele>1789</ele>
        <time>2013-02-20T17:07:20Z</time>
      </trkpt>
      <trkpt lat="45.09073" lon="5.61576">
        <ele>1790</ele>
        <time>2013-02-20T17:07:25Z</time>
      </trkpt>
      <trkpt lat="45.09071" lon="5.61576">
        <ele>1790.800048828</ele>
        <time>2013-02-20T17:07:32Z</time>
      </trkpt>
      <trkpt lat="45.09068" lon="5.61575">
        <ele>1791.400024414</ele>
        <time>2013-02-20T17:07:36Z</time>
      </trkpt>
      <trkpt lat="45.09065" lon="5.61575">
        <ele>1792.400024414</ele>
        <time>2013-02-20T17:07:42Z</time>
      </trkpt>
      <trkpt lat="45.09062" lon="5.61576">
        <ele>1793.199951172</ele>
        <time>2013-02-20T17:07:46Z</time>
      </trkpt>
      <trkpt lat="45.09058" lon="5.61575">
        <ele>1794.400024414</ele>
        <time>2013-02-20T17:07:52Z</time>
      </trkpt>
      <trkpt lat="45.09053" lon="5.61574">
        <ele>1795.400024414</ele>
        <time>2013-02-20T17:07:59Z</time>
      </trkpt>
      <trkpt lat="45.0905" lon="5.61574">
        <ele>1796.400024414</ele>
        <time>2013-02-20T17:08:04Z</time>
      </trkpt>
      <trkpt lat="45.09046" lon="5.61573">
        <ele>1797.400024414</ele>
        <time>2013-02-20T17:08:09Z</time>
      </trkpt>
      <trkpt lat="45.09044" lon="5.61573">
        <ele>1798.199951172</ele>
        <time>2013-02-20T17:08:13Z</time>
      </trkpt>
      <trkpt lat="45.0904" lon="5.61573">
        <ele>1799.199951172</ele>
        <time>2013-02-20T17:08:18Z</time>
      </trkpt>
      <trkpt lat="45.09038" lon="5.61574">
        <ele>1800.400024414</ele>
        <time>2013-02-20T17:08:24Z</time>
      </trkpt>
      <trkpt lat="45.09039" lon="5.61578">
        <ele>1801.199951172</ele>
        <time>2013-02-20T17:08:28Z</time>
      </trkpt>
      <trkpt lat="45.0904" lon="5.61584">
        <ele>1802.599975586</ele>
        <time>2013-02-20T17:08:34Z</time>
      </trkpt>
      <trkpt lat="45.09041" lon="5.6159">
        <ele>1803.599975586</ele>
        <time>2013-02-20T17:08:40Z</time>
      </trkpt>
      <trkpt lat="45.09041" lon="5.61594">
        <ele>1804.599975586</ele>
        <time>2013-02-20T17:08:45Z</time>
      </trkpt>
      <trkpt lat="45.09041" lon="5.61599">
        <ele>1805.599975586</ele>
        <time>2013-02-20T17:08:50Z</time>
      </trkpt>
      <trkpt lat="45.09042" lon="5.61603">
        <ele>1806.400024414</ele>
        <time>2013-02-20T17:08:54Z</time>
      </trkpt>
      <trkpt lat="45.09043" lon="5.61608">
        <ele>1807.400024414</ele>
        <time>2013-02-20T17:08:59Z</time>
      </trkpt>
      <trkpt lat="45.09043" lon="5.61615">
        <ele>1808.599975586</ele>
        <time>2013-02-20T17:09:05Z</time>
      </trkpt>
      <trkpt lat="45.09044" lon="5.61621">
        <ele>1809.599975586</ele>
        <time>2013-02-20T17:09:11Z</time>
      </trkpt>
      <trkpt lat="45.09045" lon="5.61625">
        <ele>1810.400024414</ele>
        <time>2013-02-20T17:09:15Z</time>
      </trkpt>
      <trkpt lat="45.09046" lon="5.61628">
        <ele>1810.800048828</ele>
        <time>2013-02-20T17:09:19Z</time>
      </trkpt>
      <trkpt lat="45.09047" lon="5.61631">
        <ele>1811.199951172</ele>
        <time>2013-02-20T17:09:22Z</time>
      </trkpt>
      <trkpt lat="45.09049" lon="5.61636">
        <ele>1811.800048828</ele>
        <time>2013-02-20T17:09:28Z</time>
      </trkpt>
      <trkpt lat="45.0905" lon="5.61639">
        <ele>1812.400024414</ele>
        <time>2013-02-20T17:09:32Z</time>
      </trkpt>
      <trkpt lat="45.09051" lon="5.61642">
        <ele>1812.800048828</ele>
        <time>2013-02-20T17:09:35Z</time>
      </trkpt>
      <trkpt lat="45.09052" lon="5.61647">
        <ele>1813.800048828</ele>
        <time>2013-02-20T17:09:41Z</time>
      </trkpt>
      <trkpt lat="45.09054" lon="5.61653">
        <ele>1814.400024414</ele>
        <time>2013-02-20T17:09:47Z</time>
      </trkpt>
      <trkpt lat="45.09056" lon="5.61657">
        <ele>1814.800048828</ele>
        <time>2013-02-20T17:09:52Z</time>
      </trkpt>
      <trkpt lat="45.09057" lon="5.6166">
        <ele>1815.199951172</ele>
        <time>2013-02-20T17:09:55Z</time>
      </trkpt>
      <trkpt lat="45.09059" lon="5.61663">
        <ele>1815.599975586</ele>
        <time>2013-02-20T17:09:59Z</time>
      </trkpt>
      <trkpt lat="45.0906" lon="5.61667">
        <ele>1816</ele>
        <time>2013-02-20T17:10:03Z</time>
      </trkpt>
      <trkpt lat="45.09062" lon="5.61672">
        <ele>1817</ele>
        <time>2013-02-20T17:10:08Z</time>
      </trkpt>
      <trkpt lat="45.09064" lon="5.61676">
        <ele>1818</ele>
        <time>2013-02-20T17:10:12Z</time>
      </trkpt>
      <trkpt lat="45.09065" lon="5.61678">
        <ele>1818.400024414</ele>
        <time>2013-02-20T17:10:15Z</time>
      </trkpt>
      <trkpt lat="45.09066" lon="5.61683">
        <ele>1819.599975586</ele>
        <time>2013-02-20T17:10:19Z</time>
      </trkpt>
      <trkpt lat="45.09067" lon="5.61687">
        <ele>1820.400024414</ele>
        <time>2013-02-20T17:10:23Z</time>
      </trkpt>
      <trkpt lat="45.09069" lon="5.61691">
        <ele>1821.199951172</ele>
        <time>2013-02-20T17:10:28Z</time>
      </trkpt>
      <trkpt lat="45.09071" lon="5.61697">
        <ele>1822.400024414</ele>
        <time>2013-02-20T17:10:34Z</time>
      </trkpt>
      <trkpt lat="45.09072" lon="5.61703">
        <ele>1824</ele>
        <time>2013-02-20T17:10:39Z</time>
      </trkpt>
      <trkpt lat="45.09072" lon="5.61709">
        <ele>1826</ele>
        <time>2013-02-20T17:10:45Z</time>
      </trkpt>
      <trkpt lat="45.09074" lon="5.61715">
        <ele>1827.199951172</ele>
        <time>2013-02-20T17:10:51Z</time>
      </trkpt>
      <trkpt lat="45.09075" lon="5.61718">
        <ele>1827.599975586</ele>
        <time>2013-02-20T17:10:55Z</time>
      </trkpt>
      <trkpt lat="45.09077" lon="5.61722">
        <ele>1828.400024414</ele>
        <time>2013-02-20T17:11:00Z</time>
      </trkpt>
      <trkpt lat="45.09079" lon="5.61725">
        <ele>1828.800048828</ele>
        <time>2013-02-20T17:11:04Z</time>
      </trkpt>
      <trkpt lat="45.09082" lon="5.61731">
        <ele>1829.800048828</ele>
        <time>2013-02-20T17:11:11Z</time>
      </trkpt>
      <trkpt lat="45.09084" lon="5.61734">
        <ele>1830.199951172</ele>
        <time>2013-02-20T17:11:16Z</time>
      </trkpt>
      <trkpt lat="45.09087" lon="5.61741">
        <ele>1832</ele>
        <time>2013-02-20T17:11:24Z</time>
      </trkpt>
      <trkpt lat="45.09091" lon="5.61746">
        <ele>1833.400024414</ele>
        <time>2013-02-20T17:11:31Z</time>
      </trkpt>
      <trkpt lat="45.09095" lon="5.61751">
        <ele>1834.800048828</ele>
        <time>2013-02-20T17:11:38Z</time>
      </trkpt>
      <trkpt lat="45.09097" lon="5.61756">
        <ele>1836.199951172</ele>
        <time>2013-02-20T17:11:44Z</time>
      </trkpt>
      <trkpt lat="45.09101" lon="5.6176">
        <ele>1837.400024414</ele>
        <time>2013-02-20T17:11:50Z</time>
      </trkpt>
      <trkpt lat="45.09104" lon="5.61765">
        <ele>1838.800048828</ele>
        <time>2013-02-20T17:11:56Z</time>
      </trkpt>
      <trkpt lat="45.09107" lon="5.6177">
        <ele>1840.199951172</ele>
        <time>2013-02-20T17:12:03Z</time>
      </trkpt>
      <trkpt lat="45.0911" lon="5.61774">
        <ele>1841.400024414</ele>
        <time>2013-02-20T17:12:09Z</time>
      </trkpt>
      <trkpt lat="45.09112" lon="5.61777">
        <ele>1842.599975586</ele>
        <time>2013-02-20T17:12:14Z</time>
      </trkpt>
      <trkpt lat="45.09116" lon="5.61783">
        <ele>1844.199951172</ele>
        <time>2013-02-20T17:12:22Z</time>
      </trkpt>
      <trkpt lat="45.09119" lon="5.61787">
        <ele>1845.400024414</ele>
        <time>2013-02-20T17:12:28Z</time>
      </trkpt>
      <trkpt lat="45.09122" lon="5.61794">
        <ele>1847.599975586</ele>
        <time>2013-02-20T17:12:37Z</time>
      </trkpt>
      <trkpt lat="45.09125" lon="5.61798">
        <ele>1848.800048828</ele>
        <time>2013-02-20T17:12:43Z</time>
      </trkpt>
      <trkpt lat="45.09128" lon="5.61802">
        <ele>1850.199951172</ele>
        <time>2013-02-20T17:12:50Z</time>
      </trkpt>
      <trkpt lat="45.09131" lon="5.61807">
        <ele>1851.800048828</ele>
        <time>2013-02-20T17:12:57Z</time>
      </trkpt>
      <trkpt lat="45.09133" lon="5.61811">
        <ele>1853.199951172</ele>
        <time>2013-02-20T17:13:03Z</time>
      </trkpt>
      <trkpt lat="45.09137" lon="5.61816">
        <ele>1855</ele>
        <time>2013-02-20T17:13:11Z</time>
      </trkpt>
      <trkpt lat="45.0914" lon="5.6182">
        <ele>1856.199951172</ele>
        <time>2013-02-20T17:13:17Z</time>
      </trkpt>
      <trkpt lat="45.09144" lon="5.61825">
        <ele>1857.800048828</ele>
        <time>2013-02-20T17:13:25Z</time>
      </trkpt>
      <trkpt lat="45.09147" lon="5.61829">
        <ele>1859</ele>
        <time>2013-02-20T17:13:30Z</time>
      </trkpt>
      <trkpt lat="45.09153" lon="5.61834">
        <ele>1860.800048828</ele>
        <time>2013-02-20T17:13:39Z</time>
      </trkpt>
      <trkpt lat="45.09156" lon="5.61836">
        <ele>1861.599975586</ele>
        <time>2013-02-20T17:13:44Z</time>
      </trkpt>
      <trkpt lat="45.09159" lon="5.61839">
        <ele>1862.199951172</ele>
        <time>2013-02-20T17:13:51Z</time>
      </trkpt>
      <trkpt lat="45.09162" lon="5.61841">
        <ele>1862.800048828</ele>
        <time>2013-02-20T17:13:58Z</time>
      </trkpt>
      <trkpt lat="45.09164" lon="5.61841">
        <ele>1863</ele>
        <time>2013-02-20T17:14:02Z</time>
      </trkpt>
      <trkpt lat="45.09167" lon="5.61842">
        <ele>1863</ele>
        <time>2013-02-20T17:14:06Z</time>
      </trkpt>
      <trkpt lat="45.09167" lon="5.61843">
        <ele>1863.400024414</ele>
        <time>2013-02-20T17:14:10Z</time>
      </trkpt>
      <trkpt lat="45.09167" lon="5.61844">
        <ele>1863.599975586</ele>
        <time>2013-02-20T17:14:15Z</time>
      </trkpt>
      <trkpt lat="45.09168" lon="5.61844">
        <ele>1864</ele>
        <time>2013-02-20T17:14:23Z</time>
      </trkpt>
      <trkpt lat="45.09167" lon="5.61846">
        <ele>1864.199951172</ele>
        <time>2013-02-20T17:14:47Z</time>
      </trkpt>
      <trkpt lat="45.09163" lon="5.6185">
        <ele>1865.400024414</ele>
        <time>2013-02-20T17:16:11Z</time>
      </trkpt>
      <trkpt lat="45.09159" lon="5.61854">
        <ele>1866.400024414</ele>
        <time>2013-02-20T17:16:15Z</time>
      </trkpt>
      <trkpt lat="45.09157" lon="5.61855">
        <ele>1866.800048828</ele>
        <time>2013-02-20T17:16:17Z</time>
      </trkpt>
      <trkpt lat="45.09154" lon="5.61859">
        <ele>1868</ele>
        <time>2013-02-20T17:16:23Z</time>
      </trkpt>
      <trkpt lat="45.0915" lon="5.61862">
        <ele>1869.199951172</ele>
        <time>2013-02-20T17:16:29Z</time>
      </trkpt>
      <trkpt lat="45.09145" lon="5.61866">
        <ele>1870.599975586</ele>
        <time>2013-02-20T17:16:35Z</time>
      </trkpt>
      <trkpt lat="45.0914" lon="5.61868">
        <ele>1871.599975586</ele>
        <time>2013-02-20T17:16:42Z</time>
      </trkpt>
      <trkpt lat="45.09135" lon="5.61871">
        <ele>1872.800048828</ele>
        <time>2013-02-20T17:16:50Z</time>
      </trkpt>
      <trkpt lat="45.0913" lon="5.61873">
        <ele>1874</ele>
        <time>2013-02-20T17:16:57Z</time>
      </trkpt>
      <trkpt lat="45.09126" lon="5.61874">
        <ele>1874.800048828</ele>
        <time>2013-02-20T17:17:04Z</time>
      </trkpt>
      <trkpt lat="45.0912" lon="5.61875">
        <ele>1875.599975586</ele>
        <time>2013-02-20T17:17:11Z</time>
      </trkpt>
      <trkpt lat="45.09115" lon="5.61876">
        <ele>1876.400024414</ele>
        <time>2013-02-20T17:17:18Z</time>
      </trkpt>
      <trkpt lat="45.09111" lon="5.61877">
        <ele>1877</ele>
        <time>2013-02-20T17:17:25Z</time>
      </trkpt>
      <trkpt lat="45.09107" lon="5.61878">
        <ele>1878</ele>
        <time>2013-02-20T17:17:32Z</time>
      </trkpt>
      <trkpt lat="45.09104" lon="5.61878">
        <ele>1878.199951172</ele>
        <time>2013-02-20T17:17:37Z</time>
      </trkpt>
      <trkpt lat="45.091" lon="5.61878">
        <ele>1878.800048828</ele>
        <time>2013-02-20T17:17:43Z</time>
      </trkpt>
      <trkpt lat="45.09096" lon="5.61879">
        <ele>1879.400024414</ele>
        <time>2013-02-20T17:17:49Z</time>
      </trkpt>
      <trkpt lat="45.09095" lon="5.61879">
        <ele>1879.599975586</ele>
        <time>2013-02-20T17:17:53Z</time>
      </trkpt>
      <trkpt lat="45.09092" lon="5.61879">
        <ele>1880</ele>
        <time>2013-02-20T17:17:59Z</time>
      </trkpt>
      <trkpt lat="45.09088" lon="5.61879">
        <ele>1880.400024414</ele>
        <time>2013-02-20T17:18:06Z</time>
      </trkpt>
      <trkpt lat="45.09089" lon="5.61879">
        <ele>1880.199951172</ele>
        <time>2013-02-20T17:18:11Z</time>
      </trkpt>
      <trkpt lat="45.09091" lon="5.61883">
        <ele>1881.400024414</ele>
        <time>2013-02-20T17:18:18Z</time>
      </trkpt>
      <trkpt lat="45.09093" lon="5.61885">
        <ele>1882.400024414</ele>
        <time>2013-02-20T17:18:22Z</time>
      </trkpt>
      <trkpt lat="45.09095" lon="5.61887">
        <ele>1883.199951172</ele>
        <time>2013-02-20T17:18:26Z</time>
      </trkpt>
      <trkpt lat="45.09097" lon="5.6189">
        <ele>1884.199951172</ele>
        <time>2013-02-20T17:18:32Z</time>
      </trkpt>
      <trkpt lat="45.09099" lon="5.61893">
        <ele>1884.800048828</ele>
        <time>2013-02-20T17:18:36Z</time>
      </trkpt>
      <trkpt lat="45.09101" lon="5.61895">
        <ele>1885.599975586</ele>
        <time>2013-02-20T17:18:40Z</time>
      </trkpt>
      <trkpt lat="45.09102" lon="5.61897">
        <ele>1886.400024414</ele>
        <time>2013-02-20T17:18:45Z</time>
      </trkpt>
      <trkpt lat="45.09105" lon="5.61901">
        <ele>1887.400024414</ele>
        <time>2013-02-20T17:18:51Z</time>
      </trkpt>
      <trkpt lat="45.09106" lon="5.61903">
        <ele>1888</ele>
        <time>2013-02-20T17:18:55Z</time>
      </trkpt>
      <trkpt lat="45.09108" lon="5.61905">
        <ele>1888.800048828</ele>
        <time>2013-02-20T17:18:59Z</time>
      </trkpt>
      <trkpt lat="45.09109" lon="5.61908">
        <ele>1889.400024414</ele>
        <time>2013-02-20T17:19:03Z</time>
      </trkpt>
      <trkpt lat="45.09112" lon="5.61911">
        <ele>1890.199951172</ele>
        <time>2013-02-20T17:19:10Z</time>
      </trkpt>
      <trkpt lat="45.09114" lon="5.61914">
        <ele>1891</ele>
        <time>2013-02-20T17:19:16Z</time>
      </trkpt>
      <trkpt lat="45.09115" lon="5.61917">
        <ele>1891.800048828</ele>
        <time>2013-02-20T17:19:20Z</time>
      </trkpt>
      <trkpt lat="45.09116" lon="5.61919">
        <ele>1892</ele>
        <time>2013-02-20T17:19:25Z</time>
      </trkpt>
      <trkpt lat="45.09117" lon="5.61922">
        <ele>1892.400024414</ele>
        <time>2013-02-20T17:19:31Z</time>
      </trkpt>
      <trkpt lat="45.09119" lon="5.61925">
        <ele>1892.599975586</ele>
        <time>2013-02-20T17:19:38Z</time>
      </trkpt>
      <trkpt lat="45.09122" lon="5.61928">
        <ele>1892.400024414</ele>
        <time>2013-02-20T17:19:44Z</time>
      </trkpt>
      <trkpt lat="45.09123" lon="5.61931">
        <ele>1892.599975586</ele>
        <time>2013-02-20T17:19:48Z</time>
      </trkpt>
      <trkpt lat="45.09117" lon="5.6193">
        <ele>1894</ele>
        <time>2013-02-20T17:19:57Z</time>
      </trkpt>
      <trkpt lat="45.09109" lon="5.61929">
        <ele>1895.800048828</ele>
        <time>2013-02-20T17:20:06Z</time>
      </trkpt>
      <trkpt lat="45.09105" lon="5.61929">
        <ele>1896.800048828</ele>
        <time>2013-02-20T17:20:13Z</time>
      </trkpt>
      <trkpt lat="45.091" lon="5.61929">
        <ele>1897.800048828</ele>
        <time>2013-02-20T17:20:19Z</time>
      </trkpt>
      <trkpt lat="45.09101" lon="5.6193">
        <ele>1897.800048828</ele>
        <time>2013-02-20T17:20:25Z</time>
      </trkpt>
      <trkpt lat="45.09105" lon="5.61934">
        <ele>1898</ele>
        <time>2013-02-20T17:20:31Z</time>
      </trkpt>
      <trkpt lat="45.09108" lon="5.61938">
        <ele>1898</ele>
        <time>2013-02-20T17:20:36Z</time>
      </trkpt>
      <trkpt lat="45.09112" lon="5.61943">
        <ele>1898</ele>
        <time>2013-02-20T17:20:43Z</time>
      </trkpt>
      <trkpt lat="45.09113" lon="5.61946">
        <ele>1898.199951172</ele>
        <time>2013-02-20T17:20:48Z</time>
      </trkpt>
      <trkpt lat="45.09112" lon="5.61947">
        <ele>1899</ele>
        <time>2013-02-20T17:20:53Z</time>
      </trkpt>
      <trkpt lat="45.09106" lon="5.61947">
        <ele>1900.800048828</ele>
        <time>2013-02-20T17:21:36Z</time>
      </trkpt>
      <trkpt lat="45.09103" lon="5.61946">
        <ele>1901.400024414</ele>
        <time>2013-02-20T17:21:42Z</time>
      </trkpt>
      <trkpt lat="45.091" lon="5.61947">
        <ele>1902.599975586</ele>
        <time>2013-02-20T17:21:47Z</time>
      </trkpt>
      <trkpt lat="45.09097" lon="5.61947">
        <ele>1903.599975586</ele>
        <time>2013-02-20T17:21:52Z</time>
      </trkpt>
      <trkpt lat="45.09095" lon="5.61948">
        <ele>1904.400024414</ele>
        <time>2013-02-20T17:21:56Z</time>
      </trkpt>
      <trkpt lat="45.09092" lon="5.61947">
        <ele>1905</ele>
        <time>2013-02-20T17:22:04Z</time>
      </trkpt>
      <trkpt lat="45.09088" lon="5.61947">
        <ele>1906.599975586</ele>
        <time>2013-02-20T17:22:12Z</time>
      </trkpt>
      <trkpt lat="45.09083" lon="5.61947">
        <ele>1907.800048828</ele>
        <time>2013-02-20T17:22:18Z</time>
      </trkpt>
      <trkpt lat="45.0908" lon="5.61947">
        <ele>1908.599975586</ele>
        <time>2013-02-20T17:22:23Z</time>
      </trkpt>
      <trkpt lat="45.09081" lon="5.61948">
        <ele>1908.800048828</ele>
        <time>2013-02-20T17:22:28Z</time>
      </trkpt>
      <trkpt lat="45.09083" lon="5.61952">
        <ele>1909.199951172</ele>
        <time>2013-02-20T17:22:35Z</time>
      </trkpt>
      <trkpt lat="45.09085" lon="5.61956">
        <ele>1910</ele>
        <time>2013-02-20T17:22:40Z</time>
      </trkpt>
      <trkpt lat="45.09086" lon="5.61957">
        <ele>1910</ele>
        <time>2013-02-20T17:22:43Z</time>
      </trkpt>
      <trkpt lat="45.09087" lon="5.6196">
        <ele>1910.599975586</ele>
        <time>2013-02-20T17:22:48Z</time>
      </trkpt>
      <trkpt lat="45.09083" lon="5.61959">
        <ele>1911.599975586</ele>
        <time>2013-02-20T17:22:56Z</time>
      </trkpt>
      <trkpt lat="45.0908" lon="5.61959">
        <ele>1912.800048828</ele>
        <time>2013-02-20T17:23:02Z</time>
      </trkpt>
      <trkpt lat="45.09078" lon="5.61959">
        <ele>1913.199951172</ele>
        <time>2013-02-20T17:23:07Z</time>
      </trkpt>
      <trkpt lat="45.09075" lon="5.61958">
        <ele>1913.800048828</ele>
        <time>2013-02-20T17:23:12Z</time>
      </trkpt>
      <trkpt lat="45.09076" lon="5.61959">
        <ele>1913.800048828</ele>
        <time>2013-02-20T17:23:17Z</time>
      </trkpt>
      <trkpt lat="45.09077" lon="5.61961">
        <ele>1914</ele>
        <time>2013-02-20T17:23:24Z</time>
      </trkpt>
      <trkpt lat="45.09081" lon="5.61967">
        <ele>1914.800048828</ele>
        <time>2013-02-20T17:23:31Z</time>
      </trkpt>
      <trkpt lat="45.09082" lon="5.61969">
        <ele>1915.199951172</ele>
        <time>2013-02-20T17:23:35Z</time>
      </trkpt>
      <trkpt lat="45.09083" lon="5.61973">
        <ele>1916</ele>
        <time>2013-02-20T17:23:39Z</time>
      </trkpt>
      <trkpt lat="45.09081" lon="5.61972">
        <ele>1916.400024414</ele>
        <time>2013-02-20T17:23:44Z</time>
      </trkpt>
      <trkpt lat="45.0908" lon="5.61971">
        <ele>1916.599975586</ele>
        <time>2013-02-20T17:23:46Z</time>
      </trkpt>
      <trkpt lat="45.09075" lon="5.61972">
        <ele>1918</ele>
        <time>2013-02-20T17:23:55Z</time>
      </trkpt>
      <trkpt lat="45.09074" lon="5.61971">
        <ele>1918.199951172</ele>
        <time>2013-02-20T17:24:00Z</time>
      </trkpt>
      <trkpt lat="45.0907" lon="5.6197">
        <ele>1918.800048828</ele>
        <time>2013-02-20T17:24:05Z</time>
      </trkpt>
      <trkpt lat="45.09068" lon="5.61968">
        <ele>1918.800048828</ele>
        <time>2013-02-20T17:24:08Z</time>
      </trkpt>
      <trkpt lat="45.09067" lon="5.61967">
        <ele>1918.599975586</ele>
        <time>2013-02-20T17:24:10Z</time>
      </trkpt>
      <trkpt lat="45.09063" lon="5.61963">
        <ele>1918.599975586</ele>
        <time>2013-02-20T17:24:16Z</time>
      </trkpt>
      <trkpt lat="45.09059" lon="5.61961">
        <ele>1919.199951172</ele>
        <time>2013-02-20T17:24:23Z</time>
      </trkpt>
      <trkpt lat="45.09056" lon="5.61961">
        <ele>1920</ele>
        <time>2013-02-20T17:24:27Z</time>
      </trkpt>
      <trkpt lat="45.09053" lon="5.61961">
        <ele>1920.800048828</ele>
        <time>2013-02-20T17:24:32Z</time>
      </trkpt>
      <trkpt lat="45.0905" lon="5.61961">
        <ele>1921.599975586</ele>
        <time>2013-02-20T17:24:37Z</time>
      </trkpt>
      <trkpt lat="45.09052" lon="5.61963">
        <ele>1921.800048828</ele>
        <time>2013-02-20T17:24:42Z</time>
      </trkpt>
      <trkpt lat="45.09053" lon="5.61968">
        <ele>1922.800048828</ele>
        <time>2013-02-20T17:24:49Z</time>
      </trkpt>
      <trkpt lat="45.09055" lon="5.61971">
        <ele>1923.400024414</ele>
        <time>2013-02-20T17:24:54Z</time>
      </trkpt>
      <trkpt lat="45.09057" lon="5.61974">
        <ele>1923.800048828</ele>
        <time>2013-02-20T17:25:00Z</time>
      </trkpt>
      <trkpt lat="45.09059" lon="5.61978">
        <ele>1924.199951172</ele>
        <time>2013-02-20T17:25:04Z</time>
      </trkpt>
      <trkpt lat="45.09061" lon="5.61982">
        <ele>1925</ele>
        <time>2013-02-20T17:25:09Z</time>
      </trkpt>
      <trkpt lat="45.09064" lon="5.61986">
        <ele>1925.599975586</ele>
        <time>2013-02-20T17:25:15Z</time>
      </trkpt>
      <trkpt lat="45.09065" lon="5.61988">
        <ele>1926</ele>
        <time>2013-02-20T17:25:19Z</time>
      </trkpt>
      <trkpt lat="45.09066" lon="5.61992">
        <ele>1926.800048828</ele>
        <time>2013-02-20T17:25:24Z</time>
      </trkpt>
      <trkpt lat="45.09065" lon="5.61993">
        <ele>1927.199951172</ele>
        <time>2013-02-20T17:25:29Z</time>
      </trkpt>
      <trkpt lat="45.09061" lon="5.61991">
        <ele>1928</ele>
        <time>2013-02-20T17:25:35Z</time>
      </trkpt>
      <trkpt lat="45.09058" lon="5.6199">
        <ele>1928.400024414</ele>
        <time>2013-02-20T17:25:41Z</time>
      </trkpt>
      <trkpt lat="45.09056" lon="5.6199">
        <ele>1928.800048828</ele>
        <time>2013-02-20T17:25:45Z</time>
      </trkpt>
      <trkpt lat="45.09054" lon="5.6199">
        <ele>1929.199951172</ele>
        <time>2013-02-20T17:25:50Z</time>
      </trkpt>
      <trkpt lat="45.09051" lon="5.6199">
        <ele>1930</ele>
        <time>2013-02-20T17:25:55Z</time>
      </trkpt>
      <trkpt lat="45.09046" lon="5.61988">
        <ele>1930.800048828</ele>
        <time>2013-02-20T17:26:02Z</time>
      </trkpt>
      <trkpt lat="45.09043" lon="5.61988">
        <ele>1931.599975586</ele>
        <time>2013-02-20T17:26:09Z</time>
      </trkpt>
      <trkpt lat="45.09039" lon="5.61985">
        <ele>1931.800048828</ele>
        <time>2013-02-20T17:26:15Z</time>
      </trkpt>
      <trkpt lat="45.09035" lon="5.61984">
        <ele>1932.599975586</ele>
        <time>2013-02-20T17:26:22Z</time>
      </trkpt>
      <trkpt lat="45.09032" lon="5.61985">
        <ele>1933.400024414</ele>
        <time>2013-02-20T17:26:28Z</time>
      </trkpt>
      <trkpt lat="45.09032" lon="5.61986">
        <ele>1934</ele>
        <time>2013-02-20T17:26:35Z</time>
      </trkpt>
      <trkpt lat="45.09034" lon="5.61988">
        <ele>1933.800048828</ele>
        <time>2013-02-20T17:26:40Z</time>
      </trkpt>
      <trkpt lat="45.09034" lon="5.61988">
        <ele>1933.800048828</ele>
        <time>2013-02-20T17:26:45Z</time>
      </trkpt>
      <trkpt lat="45.09033" lon="5.61987">
        <ele>1933.599975586</ele>
        <time>2013-02-20T17:26:49Z</time>
      </trkpt>
      <trkpt lat="45.09034" lon="5.61987">
        <ele>1933.599975586</ele>
        <time>2013-02-20T17:27:13Z</time>
      </trkpt>
      <trkpt lat="45.09035" lon="5.61987">
        <ele>1933.400024414</ele>
        <time>2013-02-20T17:28:37Z</time>
      </trkpt>
      <trkpt lat="45.09034" lon="5.61988">
        <ele>1933.800048828</ele>
        <time>2013-02-20T17:29:26Z</time>
      </trkpt>
      <trkpt lat="45.09034" lon="5.61989">
        <ele>1934.199951172</ele>
        <time>2013-02-20T17:29:41Z</time>
      </trkpt>
      <trkpt lat="45.09033" lon="5.61989">
        <ele>1934.400024414</ele>
        <time>2013-02-20T17:29:50Z</time>
      </trkpt>
      <trkpt lat="45.09033" lon="5.61988">
        <ele>1934</ele>
        <time>2013-02-20T17:30:12Z</time>
      </trkpt>
      <trkpt lat="45.09034" lon="5.61986">
        <ele>1933.400024414</ele>
        <time>2013-02-20T17:31:40Z</time>
      </trkpt>
      <trkpt lat="45.09032" lon="5.61989">
        <ele>1934.599975586</ele>
        <time>2013-02-20T17:31:49Z</time>
      </trkpt>
      <trkpt lat="45.09031" lon="5.61989">
        <ele>1935.199951172</ele>
        <time>2013-02-20T17:31:51Z</time>
      </trkpt>
      <trkpt lat="45.09029" lon="5.6199">
        <ele>1935.800048828</ele>
        <time>2013-02-20T17:31:56Z</time>
      </trkpt>
      <trkpt lat="45.09031" lon="5.61989">
        <ele>1935</ele>
        <time>2013-02-20T17:32:01Z</time>
      </trkpt>
      <trkpt lat="45.09033" lon="5.61987">
        <ele>1933.800048828</ele>
        <time>2013-02-20T17:32:06Z</time>
      </trkpt>
      <trkpt lat="45.09034" lon="5.61987">
        <ele>1933.599975586</ele>
        <time>2013-02-20T17:32:15Z</time>
      </trkpt>
      <trkpt lat="45.09033" lon="5.61987">
        <ele>1934</ele>
        <time>2013-02-20T17:32:22Z</time>
      </trkpt>
      <trkpt lat="45.09035" lon="5.61986">
        <ele>1933</ele>
        <time>2013-02-20T17:33:05Z</time>
      </trkpt>
      <trkpt lat="45.09033" lon="5.61987">
        <ele>1933.800048828</ele>
        <time>2013-02-20T17:33:34Z</time>
      </trkpt>
      <trkpt lat="45.09032" lon="5.61989">
        <ele>1934.599975586</ele>
        <time>2013-02-20T17:33:58Z</time>
      </trkpt>
      <trkpt lat="45.0903" lon="5.6199">
        <ele>1935.599975586</ele>
        <time>2013-02-20T17:34:03Z</time>
      </trkpt>
      <trkpt lat="45.09027" lon="5.61993">
        <ele>1937</ele>
        <time>2013-02-20T17:34:08Z</time>
      </trkpt>
      <trkpt lat="45.09026" lon="5.61994">
        <ele>1937.800048828</ele>
        <time>2013-02-20T17:34:13Z</time>
      </trkpt>
      <trkpt lat="45.09023" lon="5.61997">
        <ele>1939.199951172</ele>
        <time>2013-02-20T17:34:19Z</time>
      </trkpt>
      <trkpt lat="45.09023" lon="5.62">
        <ele>1940</ele>
        <time>2013-02-20T17:34:24Z</time>
      </trkpt>
      <trkpt lat="45.0902" lon="5.62002">
        <ele>1940.400024414</ele>
        <time>2013-02-20T17:34:29Z</time>
      </trkpt>
      <trkpt lat="45.09019" lon="5.62005">
        <ele>1940.199951172</ele>
        <time>2013-02-20T17:34:34Z</time>
      </trkpt>
      <trkpt lat="45.09016" lon="5.62008">
        <ele>1940.199951172</ele>
        <time>2013-02-20T17:34:41Z</time>
      </trkpt>
      <trkpt lat="45.09016" lon="5.62009">
        <ele>1940</ele>
        <time>2013-02-20T17:34:51Z</time>
      </trkpt>
      <trkpt lat="45.09015" lon="5.62008">
        <ele>1940.400024414</ele>
        <time>2013-02-20T17:35:25Z</time>
      </trkpt>
      <trkpt lat="45.09019" lon="5.62004">
        <ele>1940.400024414</ele>
        <time>2013-02-20T17:37:54Z</time>
      </trkpt>
      <trkpt lat="45.09018" lon="5.61999">
        <ele>1941.199951172</ele>
        <time>2013-02-20T17:37:57Z</time>
      </trkpt>
      <trkpt lat="45.09017" lon="5.61995">
        <ele>1940.199951172</ele>
        <time>2013-02-20T17:38:00Z</time>
      </trkpt>
      <trkpt lat="45.0902" lon="5.61992">
        <ele>1938.599975586</ele>
        <time>2013-02-20T17:38:04Z</time>
      </trkpt>
      <trkpt lat="45.09023" lon="5.6199">
        <ele>1937.400024414</ele>
        <time>2013-02-20T17:38:06Z</time>
      </trkpt>
      <trkpt lat="45.09025" lon="5.61989">
        <ele>1936.400024414</ele>
        <time>2013-02-20T17:38:09Z</time>
      </trkpt>
      <trkpt lat="45.09029" lon="5.61987">
        <ele>1934.800048828</ele>
        <time>2013-02-20T17:38:12Z</time>
      </trkpt>
      <trkpt lat="45.0903" lon="5.61987">
        <ele>1934.599975586</ele>
        <time>2013-02-20T17:38:13Z</time>
      </trkpt>
      <trkpt lat="45.09031" lon="5.61985">
        <ele>1934</ele>
        <time>2013-02-20T17:38:15Z</time>
      </trkpt>
      <trkpt lat="45.09032" lon="5.61984">
        <ele>1933.199951172</ele>
        <time>2013-02-20T17:38:17Z</time>
      </trkpt>
      <trkpt lat="45.09033" lon="5.61985">
        <ele>1933.400024414</ele>
        <time>2013-02-20T17:38:22Z</time>
      </trkpt>
      <trkpt lat="45.09033" lon="5.61986">
        <ele>1933.599975586</ele>
        <time>2013-02-20T17:38:29Z</time>
      </trkpt>
      <trkpt lat="45.09033" lon="5.61986">
        <ele>1933.599975586</ele>
        <time>2013-02-20T17:39:03Z</time>
      </trkpt>
      <trkpt lat="45.09034" lon="5.61987">
        <ele>1933.599975586</ele>
        <time>2013-02-20T17:39:26Z</time>
      </trkpt>
      <trkpt lat="45.09036" lon="5.61986">
        <ele>1932.800048828</ele>
        <time>2013-02-20T17:39:57Z</time>
      </trkpt>
      <trkpt lat="45.0904" lon="5.61986">
        <ele>1931.599975586</ele>
        <time>2013-02-20T17:40:23Z</time>
      </trkpt>
      <trkpt lat="45.09049" lon="5.61987">
        <ele>1929.800048828</ele>
        <time>2013-02-20T17:40:26Z</time>
      </trkpt>
      <trkpt lat="45.0905" lon="5.61981">
        <ele>1927.800048828</ele>
        <time>2013-02-20T17:40:29Z</time>
      </trkpt>
      <trkpt lat="45.09054" lon="5.61978">
        <ele>1925.800048828</ele>
        <time>2013-02-20T17:40:32Z</time>
      </trkpt>
      <trkpt lat="45.09051" lon="5.6197">
        <ele>1923.800048828</ele>
        <time>2013-02-20T17:40:35Z</time>
      </trkpt>
      <trkpt lat="45.09049" lon="5.61967">
        <ele>1923.400024414</ele>
        <time>2013-02-20T17:40:36Z</time>
      </trkpt>
      <trkpt lat="45.09039" lon="5.61952">
        <ele>1922</ele>
        <time>2013-02-20T17:40:40Z</time>
      </trkpt>
      <trkpt lat="45.09038" lon="5.61938">
        <ele>1918.400024414</ele>
        <time>2013-02-20T17:40:44Z</time>
      </trkpt>
      <trkpt lat="45.09042" lon="5.61938">
        <ele>1917.199951172</ele>
        <time>2013-02-20T17:40:45Z</time>
      </trkpt>
      <trkpt lat="45.09043" lon="5.61931">
        <ele>1914.800048828</ele>
        <time>2013-02-20T17:40:47Z</time>
      </trkpt>
      <trkpt lat="45.09043" lon="5.61921">
        <ele>1911.599975586</ele>
        <time>2013-02-20T17:40:50Z</time>
      </trkpt>
      <trkpt lat="45.09038" lon="5.61909">
        <ele>1908.800048828</ele>
        <time>2013-02-20T17:40:53Z</time>
      </trkpt>
      <trkpt lat="45.0904" lon="5.61896">
        <ele>1902.599975586</ele>
        <time>2013-02-20T17:40:57Z</time>
      </trkpt>
      <trkpt lat="45.09049" lon="5.61896">
        <ele>1899.800048828</ele>
        <time>2013-02-20T17:41:00Z</time>
      </trkpt>
      <trkpt lat="45.09056" lon="5.61894">
        <ele>1896.400024414</ele>
        <time>2013-02-20T17:41:03Z</time>
      </trkpt>
      <trkpt lat="45.09057" lon="5.61894">
        <ele>1896.199951172</ele>
        <time>2013-02-20T17:41:07Z</time>
      </trkpt>
      <trkpt lat="45.09061" lon="5.61885">
        <ele>1890.800048828</ele>
        <time>2013-02-20T17:41:13Z</time>
      </trkpt>
      <trkpt lat="45.0907" lon="5.61875">
        <ele>1883.599975586</ele>
        <time>2013-02-20T17:41:16Z</time>
      </trkpt>
      <trkpt lat="45.09064" lon="5.61864">
        <ele>1880.800048828</ele>
        <time>2013-02-20T17:41:18Z</time>
      </trkpt>
      <trkpt lat="45.09056" lon="5.61856">
        <ele>1880</ele>
        <time>2013-02-20T17:41:20Z</time>
      </trkpt>
      <trkpt lat="45.09051" lon="5.61847">
        <ele>1877.599975586</ele>
        <time>2013-02-20T17:41:22Z</time>
      </trkpt>
      <trkpt lat="45.0905" lon="5.61834">
        <ele>1872.599975586</ele>
        <time>2013-02-20T17:41:24Z</time>
      </trkpt>
      <trkpt lat="45.09055" lon="5.61827">
        <ele>1868.400024414</ele>
        <time>2013-02-20T17:41:25Z</time>
      </trkpt>
      <trkpt lat="45.09071" lon="5.61828">
        <ele>1863</ele>
        <time>2013-02-20T17:41:27Z</time>
      </trkpt>
      <trkpt lat="45.0909" lon="5.61836">
        <ele>1861.199951172</ele>
        <time>2013-02-20T17:41:30Z</time>
      </trkpt>
      <trkpt lat="45.09091" lon="5.61833">
        <ele>1859.800048828</ele>
        <time>2013-02-20T17:41:31Z</time>
      </trkpt>
      <trkpt lat="45.09084" lon="5.61818">
        <ele>1855.400024414</ele>
        <time>2013-02-20T17:41:33Z</time>
      </trkpt>
      <trkpt lat="45.09091" lon="5.61797">
        <ele>1849</ele>
        <time>2013-02-20T17:41:36Z</time>
      </trkpt>
      <trkpt lat="45.09092" lon="5.6179">
        <ele>1846.800048828</ele>
        <time>2013-02-20T17:41:37Z</time>
      </trkpt>
      <trkpt lat="45.09089" lon="5.6178">
        <ele>1843.800048828</ele>
        <time>2013-02-20T17:41:38Z</time>
      </trkpt>
      <trkpt lat="45.09084" lon="5.61773">
        <ele>1841.599975586</ele>
        <time>2013-02-20T17:41:39Z</time>
      </trkpt>
      <trkpt lat="45.09066" lon="5.61761">
        <ele>1844</ele>
        <time>2013-02-20T17:41:42Z</time>
      </trkpt>
      <trkpt lat="45.09057" lon="5.61751">
        <ele>1843.400024414</ele>
        <time>2013-02-20T17:41:44Z</time>
      </trkpt>
      <trkpt lat="45.09061" lon="5.6174">
        <ele>1838.800048828</ele>
        <time>2013-02-20T17:41:46Z</time>
      </trkpt>
      <trkpt lat="45.09075" lon="5.61734">
        <ele>1832.599975586</ele>
        <time>2013-02-20T17:41:48Z</time>
      </trkpt>
      <trkpt lat="45.09071" lon="5.61708">
        <ele>1825.599975586</ele>
        <time>2013-02-20T17:41:51Z</time>
      </trkpt>
      <trkpt lat="45.09066" lon="5.6168">
        <ele>1818.599975586</ele>
        <time>2013-02-20T17:41:54Z</time>
      </trkpt>
      <trkpt lat="45.09074" lon="5.6168">
        <ele>1816.599975586</ele>
        <time>2013-02-20T17:41:56Z</time>
      </trkpt>
      <trkpt lat="45.09075" lon="5.61684">
        <ele>1817.199951172</ele>
        <time>2013-02-20T17:42:00Z</time>
      </trkpt>
      <trkpt lat="45.09077" lon="5.61682">
        <ele>1816.199951172</ele>
        <time>2013-02-20T17:42:08Z</time>
      </trkpt>
      <trkpt lat="45.09075" lon="5.61666">
        <ele>1811.800048828</ele>
        <time>2013-02-20T17:42:11Z</time>
      </trkpt>
      <trkpt lat="45.09079" lon="5.61649">
        <ele>1806.400024414</ele>
        <time>2013-02-20T17:42:13Z</time>
      </trkpt>
      <trkpt lat="45.09088" lon="5.61647">
        <ele>1805</ele>
        <time>2013-02-20T17:42:14Z</time>
      </trkpt>
      <trkpt lat="45.09108" lon="5.61645">
        <ele>1805</ele>
        <time>2013-02-20T17:42:17Z</time>
      </trkpt>
      <trkpt lat="45.09102" lon="5.61621">
        <ele>1799</ele>
        <time>2013-02-20T17:42:20Z</time>
      </trkpt>
      <trkpt lat="45.09087" lon="5.61599">
        <ele>1793.199951172</ele>
        <time>2013-02-20T17:42:22Z</time>
      </trkpt>
      <trkpt lat="45.09092" lon="5.61579">
        <ele>1788</ele>
        <time>2013-02-20T17:42:25Z</time>
      </trkpt>
      <trkpt lat="45.09088" lon="5.61554">
        <ele>1780.800048828</ele>
        <time>2013-02-20T17:42:28Z</time>
      </trkpt>
      <trkpt lat="45.09081" lon="5.61546">
        <ele>1779</ele>
        <time>2013-02-20T17:42:29Z</time>
      </trkpt>
      <trkpt lat="45.09076" lon="5.61539">
        <ele>1778.400024414</ele>
        <time>2013-02-20T17:42:30Z</time>
      </trkpt>
      <trkpt lat="45.09067" lon="5.61524">
        <ele>1776.599975586</ele>
        <time>2013-02-20T17:42:32Z</time>
      </trkpt>
      <trkpt lat="45.0906" lon="5.61507">
        <ele>1774.199951172</ele>
        <time>2013-02-20T17:42:34Z</time>
      </trkpt>
      <trkpt lat="45.09058" lon="5.61498">
        <ele>1772.199951172</ele>
        <time>2013-02-20T17:42:35Z</time>
      </trkpt>
      <trkpt lat="45.09062" lon="5.61484">
        <ele>1768</ele>
        <time>2013-02-20T17:42:37Z</time>
      </trkpt>
      <trkpt lat="45.09074" lon="5.6146">
        <ele>1760.199951172</ele>
        <time>2013-02-20T17:42:39Z</time>
      </trkpt>
      <trkpt lat="45.09087" lon="5.6143">
        <ele>1753.400024414</ele>
        <time>2013-02-20T17:42:41Z</time>
      </trkpt>
      <trkpt lat="45.09091" lon="5.61417">
        <ele>1751.400024414</ele>
        <time>2013-02-20T17:42:42Z</time>
      </trkpt>
      <trkpt lat="45.09094" lon="5.61404">
        <ele>1750</ele>
        <time>2013-02-20T17:42:43Z</time>
      </trkpt>
      <trkpt lat="45.09096" lon="5.61384">
        <ele>1747.599975586</ele>
        <time>2013-02-20T17:42:45Z</time>
      </trkpt>
      <trkpt lat="45.091" lon="5.61358">
        <ele>1744.400024414</ele>
        <time>2013-02-20T17:42:48Z</time>
      </trkpt>
      <trkpt lat="45.09102" lon="5.61336">
        <ele>1741.599975586</ele>
        <time>2013-02-20T17:42:50Z</time>
      </trkpt>
      <trkpt lat="45.09104" lon="5.61329">
        <ele>1740.599975586</ele>
        <time>2013-02-20T17:42:51Z</time>
      </trkpt>
      <trkpt lat="45.09104" lon="5.61324">
        <ele>1739.800048828</ele>
        <time>2013-02-20T17:42:52Z</time>
      </trkpt>
      <trkpt lat="45.09096" lon="5.61306">
        <ele>1736.800048828</ele>
        <time>2013-02-20T17:42:55Z</time>
      </trkpt>
      <trkpt lat="45.09087" lon="5.61283">
        <ele>1733.199951172</ele>
        <time>2013-02-20T17:42:58Z</time>
      </trkpt>
      <trkpt lat="45.09082" lon="5.61276">
        <ele>1732.400024414</ele>
        <time>2013-02-20T17:42:59Z</time>
      </trkpt>
      <trkpt lat="45.09071" lon="5.61249">
        <ele>1729.400024414</ele>
        <time>2013-02-20T17:43:02Z</time>
      </trkpt>
      <trkpt lat="45.09069" lon="5.61238">
        <ele>1727</ele>
        <time>2013-02-20T17:43:03Z</time>
      </trkpt>
      <trkpt lat="45.09068" lon="5.6123">
        <ele>1725</ele>
        <time>2013-02-20T17:43:04Z</time>
      </trkpt>
      <trkpt lat="45.09067" lon="5.61216">
        <ele>1721.599975586</ele>
        <time>2013-02-20T17:43:06Z</time>
      </trkpt>
      <trkpt lat="45.09066" lon="5.61194">
        <ele>1716</ele>
        <time>2013-02-20T17:43:10Z</time>
      </trkpt>
      <trkpt lat="45.09079" lon="5.6118">
        <ele>1711.599975586</ele>
        <time>2013-02-20T17:43:13Z</time>
      </trkpt>
      <trkpt lat="45.09079" lon="5.61183">
        <ele>1712.400024414</ele>
        <time>2013-02-20T17:43:15Z</time>
      </trkpt>
      <trkpt lat="45.09079" lon="5.61184">
        <ele>1712.400024414</ele>
        <time>2013-02-20T17:43:16Z</time>
      </trkpt>
      <trkpt lat="45.09084" lon="5.61179">
        <ele>1711</ele>
        <time>2013-02-20T17:43:29Z</time>
      </trkpt>
      <trkpt lat="45.09104" lon="5.61167">
        <ele>1706.400024414</ele>
        <time>2013-02-20T17:43:32Z</time>
      </trkpt>
      <trkpt lat="45.09122" lon="5.61162">
        <ele>1704.199951172</ele>
        <time>2013-02-20T17:43:34Z</time>
      </trkpt>
      <trkpt lat="45.09129" lon="5.61162">
        <ele>1703.599975586</ele>
        <time>2013-02-20T17:43:35Z</time>
      </trkpt>
      <trkpt lat="45.09141" lon="5.6116">
        <ele>1702.400024414</ele>
        <time>2013-02-20T17:43:37Z</time>
      </trkpt>
      <trkpt lat="45.09152" lon="5.61154">
        <ele>1700.599975586</ele>
        <time>2013-02-20T17:43:39Z</time>
      </trkpt>
      <trkpt lat="45.09174" lon="5.6114">
        <ele>1696.599975586</ele>
        <time>2013-02-20T17:43:42Z</time>
      </trkpt>
      <trkpt lat="45.0919" lon="5.6112">
        <ele>1691.800048828</ele>
        <time>2013-02-20T17:43:45Z</time>
      </trkpt>
      <trkpt lat="45.09192" lon="5.61114">
        <ele>1690.400024414</ele>
        <time>2013-02-20T17:43:46Z</time>
      </trkpt>
      <trkpt lat="45.09193" lon="5.61103">
        <ele>1687.599975586</ele>
        <time>2013-02-20T17:43:48Z</time>
      </trkpt>
      <trkpt lat="45.09194" lon="5.61089">
        <ele>1684.400024414</ele>
        <time>2013-02-20T17:43:50Z</time>
      </trkpt>
      <trkpt lat="45.09196" lon="5.61082">
        <ele>1682.400024414</ele>
        <time>2013-02-20T17:43:51Z</time>
      </trkpt>
      <trkpt lat="45.09198" lon="5.61079">
        <ele>1681.599975586</ele>
        <time>2013-02-20T17:43:52Z</time>
      </trkpt>
      <trkpt lat="45.09198" lon="5.61081">
        <ele>1682</ele>
        <time>2013-02-20T17:43:54Z</time>
      </trkpt>
      <trkpt lat="45.09197" lon="5.61077">
        <ele>1681</ele>
        <time>2013-02-20T17:44:01Z</time>
      </trkpt>
      <trkpt lat="45.09194" lon="5.61074">
        <ele>1680.599975586</ele>
        <time>2013-02-20T17:44:02Z</time>
      </trkpt>
      <trkpt lat="45.09181" lon="5.61071">
        <ele>1681.199951172</ele>
        <time>2013-02-20T17:44:05Z</time>
      </trkpt>
      <trkpt lat="45.09177" lon="5.61064">
        <ele>1679.800048828</ele>
        <time>2013-02-20T17:44:06Z</time>
      </trkpt>
      <trkpt lat="45.0918" lon="5.61054">
        <ele>1677</ele>
        <time>2013-02-20T17:44:07Z</time>
      </trkpt>
      <trkpt lat="45.09187" lon="5.61048">
        <ele>1674.599975586</ele>
        <time>2013-02-20T17:44:08Z</time>
      </trkpt>
      <trkpt lat="45.09196" lon="5.61048">
        <ele>1673.599975586</ele>
        <time>2013-02-20T17:44:10Z</time>
      </trkpt>
      <trkpt lat="45.09197" lon="5.61048">
        <ele>1673.599975586</ele>
        <time>2013-02-20T17:44:11Z</time>
      </trkpt>
      <trkpt lat="45.09197" lon="5.61049">
        <ele>1673.800048828</ele>
        <time>2013-02-20T17:44:13Z</time>
      </trkpt>
      <trkpt lat="45.09197" lon="5.61046">
        <ele>1673</ele>
        <time>2013-02-20T17:44:22Z</time>
      </trkpt>
      <trkpt lat="45.09195" lon="5.61042">
        <ele>1672.400024414</ele>
        <time>2013-02-20T17:44:23Z</time>
      </trkpt>
      <trkpt lat="45.09184" lon="5.61027">
        <ele>1669.599975586</ele>
        <time>2013-02-20T17:44:26Z</time>
      </trkpt>
      <trkpt lat="45.09183" lon="5.61008">
        <ele>1665</ele>
        <time>2013-02-20T17:44:29Z</time>
      </trkpt>
      <trkpt lat="45.09181" lon="5.60988">
        <ele>1661</ele>
        <time>2013-02-20T17:44:31Z</time>
      </trkpt>
      <trkpt lat="45.09184" lon="5.60981">
        <ele>1659</ele>
        <time>2013-02-20T17:44:32Z</time>
      </trkpt>
      <trkpt lat="45.09196" lon="5.60976">
        <ele>1657</ele>
        <time>2013-02-20T17:44:34Z</time>
      </trkpt>
      <trkpt lat="45.0921" lon="5.6096">
        <ele>1653.400024414</ele>
        <time>2013-02-20T17:44:37Z</time>
      </trkpt>
      <trkpt lat="45.09219" lon="5.60952">
        <ele>1651.599975586</ele>
        <time>2013-02-20T17:44:40Z</time>
      </trkpt>
      <trkpt lat="45.09219" lon="5.60954">
        <ele>1651.800048828</ele>
        <time>2013-02-20T17:44:42Z</time>
      </trkpt>
      <trkpt lat="45.09218" lon="5.60954">
        <ele>1652</ele>
        <time>2013-02-20T17:44:43Z</time>
      </trkpt>
      <trkpt lat="45.09216" lon="5.60948">
        <ele>1651</ele>
        <time>2013-02-20T17:44:49Z</time>
      </trkpt>
      <trkpt lat="45.09223" lon="5.60924">
        <ele>1647.199951172</ele>
        <time>2013-02-20T17:44:53Z</time>
      </trkpt>
      <trkpt lat="45.09239" lon="5.60904">
        <ele>1644.599975586</ele>
        <time>2013-02-20T17:44:56Z</time>
      </trkpt>
      <trkpt lat="45.0926" lon="5.60882">
        <ele>1641.199951172</ele>
        <time>2013-02-20T17:44:59Z</time>
      </trkpt>
      <trkpt lat="45.09267" lon="5.60878">
        <ele>1640</ele>
        <time>2013-02-20T17:45:00Z</time>
      </trkpt>
      <trkpt lat="45.09285" lon="5.60868">
        <ele>1637.199951172</ele>
        <time>2013-02-20T17:45:03Z</time>
      </trkpt>
      <trkpt lat="45.0929" lon="5.60867">
        <ele>1636.599975586</ele>
        <time>2013-02-20T17:45:04Z</time>
      </trkpt>
      <trkpt lat="45.09297" lon="5.60864">
        <ele>1635.400024414</ele>
        <time>2013-02-20T17:45:07Z</time>
      </trkpt>
      <trkpt lat="45.09299" lon="5.60863">
        <ele>1635.199951172</ele>
        <time>2013-02-20T17:45:08Z</time>
      </trkpt>
      <trkpt lat="45.09303" lon="5.60859">
        <ele>1634.199951172</ele>
        <time>2013-02-20T17:45:13Z</time>
      </trkpt>
      <trkpt lat="45.09308" lon="5.60856">
        <ele>1633.199951172</ele>
        <time>2013-02-20T17:45:16Z</time>
      </trkpt>
      <trkpt lat="45.0931" lon="5.60854">
        <ele>1632.599975586</ele>
        <time>2013-02-20T17:45:17Z</time>
      </trkpt>
      <trkpt lat="45.09324" lon="5.60849">
        <ele>1630.400024414</ele>
        <time>2013-02-20T17:45:21Z</time>
      </trkpt>
      <trkpt lat="45.09343" lon="5.60851">
        <ele>1628.400024414</ele>
        <time>2013-02-20T17:45:26Z</time>
      </trkpt>
      <trkpt lat="45.09356" lon="5.60848">
        <ele>1626.400024414</ele>
        <time>2013-02-20T17:45:30Z</time>
      </trkpt>
      <trkpt lat="45.09362" lon="5.60847">
        <ele>1625.400024414</ele>
        <time>2013-02-20T17:45:33Z</time>
      </trkpt>
      <trkpt lat="45.09362" lon="5.60847">
        <ele>1625.400024414</ele>
        <time>2013-02-20T17:45:34Z</time>
      </trkpt>
      <trkpt lat="45.09366" lon="5.60846">
        <ele>1624.800048828</ele>
        <time>2013-02-20T17:45:37Z</time>
      </trkpt>
      <trkpt lat="45.09373" lon="5.60845">
        <ele>1623.800048828</ele>
        <time>2013-02-20T17:45:39Z</time>
      </trkpt>
      <trkpt lat="45.09389" lon="5.60843">
        <ele>1621.599975586</ele>
        <time>2013-02-20T17:45:43Z</time>
      </trkpt>
      <trkpt lat="45.09408" lon="5.60842">
        <ele>1619</ele>
        <time>2013-02-20T17:45:49Z</time>
      </trkpt>
      <trkpt lat="45.09409" lon="5.6084">
        <ele>1618.599975586</ele>
        <time>2013-02-20T17:45:50Z</time>
      </trkpt>
      <trkpt lat="45.09408" lon="5.60832">
        <ele>1617.199951172</ele>
        <time>2013-02-20T17:45:52Z</time>
      </trkpt>
      <trkpt lat="45.09404" lon="5.60821">
        <ele>1613.199951172</ele>
        <time>2013-02-20T17:45:55Z</time>
      </trkpt>
      <trkpt lat="45.09403" lon="5.60815">
        <ele>1610.400024414</ele>
        <time>2013-02-20T17:45:59Z</time>
      </trkpt>
      <trkpt lat="45.09401" lon="5.60805">
        <ele>1606.400024414</ele>
        <time>2013-02-20T17:46:02Z</time>
      </trkpt>
      <trkpt lat="45.09408" lon="5.60801">
        <ele>1604.199951172</ele>
        <time>2013-02-20T17:46:05Z</time>
      </trkpt>
      <trkpt lat="45.09409" lon="5.60801">
        <ele>1604</ele>
        <time>2013-02-20T17:46:07Z</time>
      </trkpt>
      <trkpt lat="45.09409" lon="5.60801">
        <ele>1604</ele>
        <time>2013-02-20T17:46:08Z</time>
      </trkpt>
      <trkpt lat="45.09406" lon="5.60799">
        <ele>1603.400024414</ele>
        <time>2013-02-20T17:47:02Z</time>
      </trkpt>
      <trkpt lat="45.09408" lon="5.60798">
        <ele>1602.599975586</ele>
        <time>2013-02-20T17:47:03Z</time>
      </trkpt>
      <trkpt lat="45.09409" lon="5.60798">
        <ele>1602.400024414</ele>
        <time>2013-02-20T17:47:05Z</time>
      </trkpt>
      <trkpt lat="45.09402" lon="5.60794">
        <ele>1601.599975586</ele>
        <time>2013-02-20T17:47:25Z</time>
      </trkpt>
      <trkpt lat="45.09386" lon="5.60785">
        <ele>1598.599975586</ele>
        <time>2013-02-20T17:47:30Z</time>
      </trkpt>
      <trkpt lat="45.09387" lon="5.6077">
        <ele>1592</ele>
        <time>2013-02-20T17:47:33Z</time>
      </trkpt>
      <trkpt lat="45.09391" lon="5.60768">
        <ele>1590.800048828</ele>
        <time>2013-02-20T17:47:34Z</time>
      </trkpt>
      <trkpt lat="45.09393" lon="5.6076">
        <ele>1587.199951172</ele>
        <time>2013-02-20T17:47:37Z</time>
      </trkpt>
      <trkpt lat="45.09385" lon="5.60752">
        <ele>1584</ele>
        <time>2013-02-20T17:47:40Z</time>
      </trkpt>
      <trkpt lat="45.094" lon="5.60741">
        <ele>1578</ele>
        <time>2013-02-20T17:47:43Z</time>
      </trkpt>
      <trkpt lat="45.09407" lon="5.6074">
        <ele>1577.199951172</ele>
        <time>2013-02-20T17:47:46Z</time>
      </trkpt>
      <trkpt lat="45.09408" lon="5.60738">
        <ele>1576.599975586</ele>
        <time>2013-02-20T17:47:47Z</time>
      </trkpt>
      <trkpt lat="45.0941" lon="5.60737">
        <ele>1575.800048828</ele>
        <time>2013-02-20T17:47:50Z</time>
      </trkpt>
      <trkpt lat="45.0941" lon="5.60735">
        <ele>1574.800048828</ele>
        <time>2013-02-20T17:47:51Z</time>
      </trkpt>
      <trkpt lat="45.09404" lon="5.60727">
        <ele>1571.199951172</ele>
        <time>2013-02-20T17:47:54Z</time>
      </trkpt>
      <trkpt lat="45.09408" lon="5.60721">
        <ele>1568.199951172</ele>
        <time>2013-02-20T17:47:57Z</time>
      </trkpt>
      <trkpt lat="45.09413" lon="5.60721">
        <ele>1567.800048828</ele>
        <time>2013-02-20T17:48:00Z</time>
      </trkpt>
      <trkpt lat="45.0942" lon="5.60714">
        <ele>1564</ele>
        <time>2013-02-20T17:48:04Z</time>
      </trkpt>
      <trkpt lat="45.09428" lon="5.60713">
        <ele>1563</ele>
        <time>2013-02-20T17:48:08Z</time>
      </trkpt>
      <trkpt lat="45.09429" lon="5.60711">
        <ele>1562</ele>
        <time>2013-02-20T17:48:09Z</time>
      </trkpt>
      <trkpt lat="45.0942" lon="5.60706">
        <ele>1560.199951172</ele>
        <time>2013-02-20T17:48:12Z</time>
      </trkpt>
      <trkpt lat="45.09419" lon="5.60695">
        <ele>1554.800048828</ele>
        <time>2013-02-20T17:48:16Z</time>
      </trkpt>
      <trkpt lat="45.09423" lon="5.60691">
        <ele>1552.599975586</ele>
        <time>2013-02-20T17:48:18Z</time>
      </trkpt>
      <trkpt lat="45.09423" lon="5.60689">
        <ele>1551.400024414</ele>
        <time>2013-02-20T17:48:19Z</time>
      </trkpt>
      <trkpt lat="45.09425" lon="5.60684">
        <ele>1549</ele>
        <time>2013-02-20T17:48:20Z</time>
      </trkpt>
      <trkpt lat="45.0943" lon="5.60679">
        <ele>1546.400024414</ele>
        <time>2013-02-20T17:48:23Z</time>
      </trkpt>
      <trkpt lat="45.09431" lon="5.60676">
        <ele>1544.800048828</ele>
        <time>2013-02-20T17:48:31Z</time>
      </trkpt>
      <trkpt lat="45.09428" lon="5.6067">
        <ele>1542</ele>
        <time>2013-02-20T17:48:33Z</time>
      </trkpt>
      <trkpt lat="45.09424" lon="5.60666">
        <ele>1540.400024414</ele>
        <time>2013-02-20T17:48:36Z</time>
      </trkpt>
      <trkpt lat="45.09413" lon="5.60659">
        <ele>1538.400024414</ele>
        <time>2013-02-20T17:48:40Z</time>
      </trkpt>
      <trkpt lat="45.0941" lon="5.60654">
        <ele>1536.599975586</ele>
        <time>2013-02-20T17:48:42Z</time>
      </trkpt>
      <trkpt lat="45.09415" lon="5.60652">
        <ele>1536</ele>
        <time>2013-02-20T17:48:43Z</time>
      </trkpt>
      <trkpt lat="45.09419" lon="5.60648">
        <ele>1534.400024414</ele>
        <time>2013-02-20T17:48:46Z</time>
      </trkpt>
      <trkpt lat="45.09417" lon="5.60645">
        <ele>1533.400024414</ele>
        <time>2013-02-20T17:48:47Z</time>
      </trkpt>
      <trkpt lat="45.09407" lon="5.6064">
        <ele>1532.199951172</ele>
        <time>2013-02-20T17:48:51Z</time>
      </trkpt>
      <trkpt lat="45.09405" lon="5.60636">
        <ele>1530.800048828</ele>
        <time>2013-02-20T17:48:52Z</time>
      </trkpt>
      <trkpt lat="45.09407" lon="5.60626">
        <ele>1527.199951172</ele>
        <time>2013-02-20T17:48:54Z</time>
      </trkpt>
      <trkpt lat="45.09418" lon="5.60626">
        <ele>1526.599975586</ele>
        <time>2013-02-20T17:48:56Z</time>
      </trkpt>
      <trkpt lat="45.0942" lon="5.60623">
        <ele>1525.400024414</ele>
        <time>2013-02-20T17:48:59Z</time>
      </trkpt>
      <trkpt lat="45.09426" lon="5.6062">
        <ele>1524</ele>
        <time>2013-02-20T17:49:02Z</time>
      </trkpt>
      <trkpt lat="45.09432" lon="5.60617">
        <ele>1522.400024414</ele>
        <time>2013-02-20T17:49:06Z</time>
      </trkpt>
      <trkpt lat="45.09432" lon="5.60613">
        <ele>1521</ele>
        <time>2013-02-20T17:49:09Z</time>
      </trkpt>
      <trkpt lat="45.09426" lon="5.60605">
        <ele>1518.800048828</ele>
        <time>2013-02-20T17:49:12Z</time>
      </trkpt>
      <trkpt lat="45.09431" lon="5.60601">
        <ele>1517</ele>
        <time>2013-02-20T17:49:15Z</time>
      </trkpt>
      <trkpt lat="45.0943" lon="5.60596">
        <ele>1515.199951172</ele>
        <time>2013-02-20T17:49:18Z</time>
      </trkpt>
      <trkpt lat="45.09426" lon="5.60594">
        <ele>1514.599975586</ele>
        <time>2013-02-20T17:49:21Z</time>
      </trkpt>
      <trkpt lat="45.09423" lon="5.60589">
        <ele>1513.199951172</ele>
        <time>2013-02-20T17:49:23Z</time>
      </trkpt>
      <trkpt lat="45.09422" lon="5.60583">
        <ele>1511.400024414</ele>
        <time>2013-02-20T17:49:25Z</time>
      </trkpt>
      <trkpt lat="45.09416" lon="5.60577">
        <ele>1510.400024414</ele>
        <time>2013-02-20T17:49:29Z</time>
      </trkpt>
      <trkpt lat="45.09416" lon="5.60574">
        <ele>1509.800048828</ele>
        <time>2013-02-20T17:49:32Z</time>
      </trkpt>
      <trkpt lat="45.09417" lon="5.6057">
        <ele>1508.800048828</ele>
        <time>2013-02-20T17:49:36Z</time>
      </trkpt>
      <trkpt lat="45.09417" lon="5.60567">
        <ele>1508</ele>
        <time>2013-02-20T17:49:41Z</time>
      </trkpt>
      <trkpt lat="45.09417" lon="5.60559">
        <ele>1506</ele>
        <time>2013-02-20T17:49:47Z</time>
      </trkpt>
      <trkpt lat="45.09415" lon="5.60556">
        <ele>1505.599975586</ele>
        <time>2013-02-20T17:49:48Z</time>
      </trkpt>
      <trkpt lat="45.09417" lon="5.60557">
        <ele>1505.599975586</ele>
        <time>2013-02-20T17:49:51Z</time>
      </trkpt>
      <trkpt lat="45.09418" lon="5.60558">
        <ele>1505.599975586</ele>
        <time>2013-02-20T17:49:53Z</time>
      </trkpt>
      <trkpt lat="45.09422" lon="5.60558">
        <ele>1505.400024414</ele>
        <time>2013-02-20T17:49:57Z</time>
      </trkpt>
      <trkpt lat="45.09422" lon="5.60559">
        <ele>1505.400024414</ele>
        <time>2013-02-20T17:49:58Z</time>
      </trkpt>
      <trkpt lat="45.09422" lon="5.60558">
        <ele>1505.199951172</ele>
        <time>2013-02-20T17:50:05Z</time>
      </trkpt>
      <trkpt lat="45.09423" lon="5.60559">
        <ele>1505.400024414</ele>
        <time>2013-02-20T17:51:24Z</time>
      </trkpt>
      <trkpt lat="45.09421" lon="5.60555">
        <ele>1504.599975586</ele>
        <time>2013-02-20T17:52:11Z</time>
      </trkpt>
      <trkpt lat="45.09423" lon="5.60552">
        <ele>1503.800048828</ele>
        <time>2013-02-20T17:52:14Z</time>
      </trkpt>
      <trkpt lat="45.09429" lon="5.60552">
        <ele>1503.199951172</ele>
        <time>2013-02-20T17:52:16Z</time>
      </trkpt>
      <trkpt lat="45.09431" lon="5.60552">
        <ele>1502.800048828</ele>
        <time>2013-02-20T17:52:19Z</time>
      </trkpt>
      <trkpt lat="45.09433" lon="5.6055">
        <ele>1502.199951172</ele>
        <time>2013-02-20T17:52:20Z</time>
      </trkpt>
      <trkpt lat="45.09437" lon="5.60539">
        <ele>1499.199951172</ele>
        <time>2013-02-20T17:52:24Z</time>
      </trkpt>
      <trkpt lat="45.09441" lon="5.60536">
        <ele>1498</ele>
        <time>2013-02-20T17:52:26Z</time>
      </trkpt>
      <trkpt lat="45.09441" lon="5.60532">
        <ele>1497</ele>
        <time>2013-02-20T17:52:28Z</time>
      </trkpt>
      <trkpt lat="45.09449" lon="5.60521">
        <ele>1493.599975586</ele>
        <time>2013-02-20T17:52:32Z</time>
      </trkpt>
      <trkpt lat="45.09451" lon="5.60513">
        <ele>1491.199951172</ele>
        <time>2013-02-20T17:52:34Z</time>
      </trkpt>
      <trkpt lat="45.09452" lon="5.60512">
        <ele>1491</ele>
        <time>2013-02-20T17:52:35Z</time>
      </trkpt>
      <trkpt lat="45.09452" lon="5.60511">
        <ele>1490.800048828</ele>
        <time>2013-02-20T17:52:38Z</time>
      </trkpt>
      <trkpt lat="45.09457" lon="5.60499">
        <ele>1487.199951172</ele>
        <time>2013-02-20T17:52:43Z</time>
      </trkpt>
      <trkpt lat="45.09461" lon="5.6049">
        <ele>1484.800048828</ele>
        <time>2013-02-20T17:52:46Z</time>
      </trkpt>
      <trkpt lat="45.09462" lon="5.60488">
        <ele>1484</ele>
        <time>2013-02-20T17:52:47Z</time>
      </trkpt>
      <trkpt lat="45.09462" lon="5.60486">
        <ele>1483.599975586</ele>
        <time>2013-02-20T17:52:48Z</time>
      </trkpt>
      <trkpt lat="45.09465" lon="5.60473">
        <ele>1480.199951172</ele>
        <time>2013-02-20T17:52:52Z</time>
      </trkpt>
      <trkpt lat="45.09461" lon="5.60464">
        <ele>1478.400024414</ele>
        <time>2013-02-20T17:52:56Z</time>
      </trkpt>
      <trkpt lat="45.09455" lon="5.60445">
        <ele>1474.800048828</ele>
        <time>2013-02-20T17:53:00Z</time>
      </trkpt>
      <trkpt lat="45.09454" lon="5.60443">
        <ele>1474.199951172</ele>
        <time>2013-02-20T17:53:01Z</time>
      </trkpt>
      <trkpt lat="45.09442" lon="5.60424">
        <ele>1471.199951172</ele>
        <time>2013-02-20T17:53:06Z</time>
      </trkpt>
      <trkpt lat="45.0944" lon="5.60422">
        <ele>1471</ele>
        <time>2013-02-20T17:53:09Z</time>
      </trkpt>
      <trkpt lat="45.09442" lon="5.60422">
        <ele>1471</ele>
        <time>2013-02-20T17:53:12Z</time>
      </trkpt>
      <trkpt lat="45.09443" lon="5.60422">
        <ele>1470.800048828</ele>
        <time>2013-02-20T17:53:13Z</time>
      </trkpt>
      <trkpt lat="45.09452" lon="5.60422">
        <ele>1469.400024414</ele>
        <time>2013-02-20T17:53:18Z</time>
      </trkpt>
      <trkpt lat="45.09468" lon="5.60422">
        <ele>1467.599975586</ele>
        <time>2013-02-20T17:53:22Z</time>
      </trkpt>
      <trkpt lat="45.09473" lon="5.60424">
        <ele>1467.199951172</ele>
        <time>2013-02-20T17:53:23Z</time>
      </trkpt>
      <trkpt lat="45.09492" lon="5.6043">
        <ele>1466.199951172</ele>
        <time>2013-02-20T17:53:27Z</time>
      </trkpt>
      <trkpt lat="45.09502" lon="5.60428">
        <ele>1464.400024414</ele>
        <time>2013-02-20T17:53:29Z</time>
      </trkpt>
      <trkpt lat="45.09505" lon="5.60424">
        <ele>1462.599975586</ele>
        <time>2013-02-20T17:53:30Z</time>
      </trkpt>
      <trkpt lat="45.09502" lon="5.6041">
        <ele>1460</ele>
        <time>2013-02-20T17:53:33Z</time>
      </trkpt>
      <trkpt lat="45.095" lon="5.60409">
        <ele>1460.199951172</ele>
        <time>2013-02-20T17:53:36Z</time>
      </trkpt>
      <trkpt lat="45.09498" lon="5.60407">
        <ele>1460.199951172</ele>
        <time>2013-02-20T17:53:37Z</time>
      </trkpt>
      <trkpt lat="45.09482" lon="5.60399">
        <ele>1460.599975586</ele>
        <time>2013-02-20T17:53:41Z</time>
      </trkpt>
      <trkpt lat="45.09469" lon="5.60385">
        <ele>1459.800048828</ele>
        <time>2013-02-20T17:53:46Z</time>
      </trkpt>
      <trkpt lat="45.09453" lon="5.60363">
        <ele>1458.400024414</ele>
        <time>2013-02-20T17:53:51Z</time>
      </trkpt>
      <trkpt lat="45.09452" lon="5.60362">
        <ele>1458.400024414</ele>
        <time>2013-02-20T17:53:54Z</time>
      </trkpt>
      <trkpt lat="45.09456" lon="5.60365">
        <ele>1458.199951172</ele>
        <time>2013-02-20T17:53:59Z</time>
      </trkpt>
      <trkpt lat="45.09456" lon="5.60363">
        <ele>1457.800048828</ele>
        <time>2013-02-20T17:54:01Z</time>
      </trkpt>
      <trkpt lat="45.09458" lon="5.60354">
        <ele>1455.800048828</ele>
        <time>2013-02-20T17:54:03Z</time>
      </trkpt>
      <trkpt lat="45.09466" lon="5.60355">
        <ele>1454.400024414</ele>
        <time>2013-02-20T17:54:06Z</time>
      </trkpt>
      <trkpt lat="45.09473" lon="5.60355">
        <ele>1453.400024414</ele>
        <time>2013-02-20T17:54:10Z</time>
      </trkpt>
      <trkpt lat="45.09479" lon="5.6035">
        <ele>1451.199951172</ele>
        <time>2013-02-20T17:54:12Z</time>
      </trkpt>
      <trkpt lat="45.09488" lon="5.60346">
        <ele>1448.800048828</ele>
        <time>2013-02-20T17:54:14Z</time>
      </trkpt>
      <trkpt lat="45.09492" lon="5.60334">
        <ele>1445.800048828</ele>
        <time>2013-02-20T17:54:16Z</time>
      </trkpt>
      <trkpt lat="45.09493" lon="5.6033">
        <ele>1445.400024414</ele>
        <time>2013-02-20T17:54:17Z</time>
      </trkpt>
      <trkpt lat="45.09501" lon="5.60315">
        <ele>1444</ele>
        <time>2013-02-20T17:54:21Z</time>
      </trkpt>
      <trkpt lat="45.09504" lon="5.60313">
        <ele>1443.599975586</ele>
        <time>2013-02-20T17:54:22Z</time>
      </trkpt>
      <trkpt lat="45.09504" lon="5.6031">
        <ele>1443.400024414</ele>
        <time>2013-02-20T17:54:23Z</time>
      </trkpt>
      <trkpt lat="45.09506" lon="5.60303">
        <ele>1443.199951172</ele>
        <time>2013-02-20T17:54:25Z</time>
      </trkpt>
      <trkpt lat="45.09518" lon="5.60279">
        <ele>1441.800048828</ele>
        <time>2013-02-20T17:54:28Z</time>
      </trkpt>
      <trkpt lat="45.09523" lon="5.60276">
        <ele>1441</ele>
        <time>2013-02-20T17:54:29Z</time>
      </trkpt>
      <trkpt lat="45.09529" lon="5.60277">
        <ele>1440.199951172</ele>
        <time>2013-02-20T17:54:30Z</time>
      </trkpt>
      <trkpt lat="45.09548" lon="5.60277">
        <ele>1437</ele>
        <time>2013-02-20T17:54:33Z</time>
      </trkpt>
      <trkpt lat="45.09568" lon="5.6028">
        <ele>1433.800048828</ele>
        <time>2013-02-20T17:54:36Z</time>
      </trkpt>
      <trkpt lat="45.09574" lon="5.60283">
        <ele>1432.800048828</ele>
        <time>2013-02-20T17:54:37Z</time>
      </trkpt>
      <trkpt lat="45.09592" lon="5.60289">
        <ele>1430.599975586</ele>
        <time>2013-02-20T17:54:40Z</time>
      </trkpt>
      <trkpt lat="45.09611" lon="5.60294">
        <ele>1429.400024414</ele>
        <time>2013-02-20T17:54:43Z</time>
      </trkpt>
      <trkpt lat="45.09628" lon="5.60297">
        <ele>1428.400024414</ele>
        <time>2013-02-20T17:54:46Z</time>
      </trkpt>
      <trkpt lat="45.09645" lon="5.603">
        <ele>1427.199951172</ele>
        <time>2013-02-20T17:54:49Z</time>
      </trkpt>
      <trkpt lat="45.09662" lon="5.60304">
        <ele>1426</ele>
        <time>2013-02-20T17:54:52Z</time>
      </trkpt>
      <trkpt lat="45.09681" lon="5.60305">
        <ele>1424.400024414</ele>
        <time>2013-02-20T17:54:55Z</time>
      </trkpt>
      <trkpt lat="45.09699" lon="5.60308">
        <ele>1422.400024414</ele>
        <time>2013-02-20T17:54:58Z</time>
      </trkpt>
      <trkpt lat="45.09705" lon="5.60309">
        <ele>1421.599975586</ele>
        <time>2013-02-20T17:54:59Z</time>
      </trkpt>
      <trkpt lat="45.09711" lon="5.60306">
        <ele>1421.400024414</ele>
        <time>2013-02-20T17:55:00Z</time>
      </trkpt>
      <trkpt lat="45.09716" lon="5.60308">
        <ele>1420.599975586</ele>
        <time>2013-02-20T17:55:01Z</time>
      </trkpt>
      <trkpt lat="45.09739" lon="5.60306">
        <ele>1418.800048828</ele>
        <time>2013-02-20T17:55:05Z</time>
      </trkpt>
      <trkpt lat="45.09758" lon="5.60304">
        <ele>1416.199951172</ele>
        <time>2013-02-20T17:55:08Z</time>
      </trkpt>
      <trkpt lat="45.09779" lon="5.60301">
        <ele>1411.199951172</ele>
        <time>2013-02-20T17:55:11Z</time>
      </trkpt>
      <trkpt lat="45.09801" lon="5.60299">
        <ele>1406</ele>
        <time>2013-02-20T17:55:14Z</time>
      </trkpt>
      <trkpt lat="45.09821" lon="5.60298">
        <ele>1400.800048828</ele>
        <time>2013-02-20T17:55:17Z</time>
      </trkpt>
      <trkpt lat="45.09836" lon="5.60295">
        <ele>1397.599975586</ele>
        <time>2013-02-20T17:55:19Z</time>
      </trkpt>
      <trkpt lat="45.09843" lon="5.60295">
        <ele>1396.599975586</ele>
        <time>2013-02-20T17:55:20Z</time>
      </trkpt>
      <trkpt lat="45.0985" lon="5.60291">
        <ele>1396</ele>
        <time>2013-02-20T17:55:21Z</time>
      </trkpt>
      <trkpt lat="45.09863" lon="5.60287">
        <ele>1394.599975586</ele>
        <time>2013-02-20T17:55:23Z</time>
      </trkpt>
      <trkpt lat="45.09877" lon="5.60284">
        <ele>1392.800048828</ele>
        <time>2013-02-20T17:55:25Z</time>
      </trkpt>
      <trkpt lat="45.09885" lon="5.60283">
        <ele>1391.800048828</ele>
        <time>2013-02-20T17:55:26Z</time>
      </trkpt>
      <trkpt lat="45.09893" lon="5.60285">
        <ele>1390.599975586</ele>
        <time>2013-02-20T17:55:27Z</time>
      </trkpt>
      <trkpt lat="45.09907" lon="5.60286">
        <ele>1388.199951172</ele>
        <time>2013-02-20T17:55:29Z</time>
      </trkpt>
      <trkpt lat="45.0992" lon="5.60291">
        <ele>1386</ele>
        <time>2013-02-20T17:55:31Z</time>
      </trkpt>
      <trkpt lat="45.09929" lon="5.60291">
        <ele>1385.199951172</ele>
        <time>2013-02-20T17:55:32Z</time>
      </trkpt>
      <trkpt lat="45.09952" lon="5.60294">
        <ele>1382.599975586</ele>
        <time>2013-02-20T17:55:35Z</time>
      </trkpt>
      <trkpt lat="45.09958" lon="5.60297">
        <ele>1381.400024414</ele>
        <time>2013-02-20T17:55:36Z</time>
      </trkpt>
      <trkpt lat="45.09973" lon="5.60298">
        <ele>1380</ele>
        <time>2013-02-20T17:55:38Z</time>
      </trkpt>
      <trkpt lat="45.0998" lon="5.60301">
        <ele>1378.800048828</ele>
        <time>2013-02-20T17:55:39Z</time>
      </trkpt>
      <trkpt lat="45.09997" lon="5.603">
        <ele>1377</ele>
        <time>2013-02-20T17:55:41Z</time>
      </trkpt>
      <trkpt lat="45.10021" lon="5.60302">
        <ele>1372.400024414</ele>
        <time>2013-02-20T17:55:44Z</time>
      </trkpt>
      <trkpt lat="45.10029" lon="5.60303">
        <ele>1370.800048828</ele>
        <time>2013-02-20T17:55:45Z</time>
      </trkpt>
      <trkpt lat="45.10045" lon="5.60305">
        <ele>1367.400024414</ele>
        <time>2013-02-20T17:55:47Z</time>
      </trkpt>
      <trkpt lat="45.10069" lon="5.60306">
        <ele>1362.800048828</ele>
        <time>2013-02-20T17:55:50Z</time>
      </trkpt>
      <trkpt lat="45.10077" lon="5.60306">
        <ele>1361.400024414</ele>
        <time>2013-02-20T17:55:51Z</time>
      </trkpt>
      <trkpt lat="45.10083" lon="5.60307">
        <ele>1360</ele>
        <time>2013-02-20T17:55:52Z</time>
      </trkpt>
      <trkpt lat="45.101" lon="5.60309">
        <ele>1359.199951172</ele>
        <time>2013-02-20T17:55:54Z</time>
      </trkpt>
      <trkpt lat="45.10119" lon="5.6031">
        <ele>1358.599975586</ele>
        <time>2013-02-20T17:55:57Z</time>
      </trkpt>
      <trkpt lat="45.10137" lon="5.60308">
        <ele>1358.400024414</ele>
        <time>2013-02-20T17:56:00Z</time>
      </trkpt>
      <trkpt lat="45.10156" lon="5.60309">
        <ele>1357.400024414</ele>
        <time>2013-02-20T17:56:03Z</time>
      </trkpt>
      <trkpt lat="45.10162" lon="5.60309">
        <ele>1357.199951172</ele>
        <time>2013-02-20T17:56:04Z</time>
      </trkpt>
      <trkpt lat="45.10168" lon="5.60309">
        <ele>1357.199951172</ele>
        <time>2013-02-20T17:56:05Z</time>
      </trkpt>
      <trkpt lat="45.10179" lon="5.60307">
        <ele>1357</ele>
        <time>2013-02-20T17:56:07Z</time>
      </trkpt>
      <trkpt lat="45.10191" lon="5.60306">
        <ele>1356.800048828</ele>
        <time>2013-02-20T17:56:09Z</time>
      </trkpt>
      <trkpt lat="45.10198" lon="5.60305">
        <ele>1356.599975586</ele>
        <time>2013-02-20T17:56:10Z</time>
      </trkpt>
      <trkpt lat="45.10211" lon="5.60305">
        <ele>1356.199951172</ele>
        <time>2013-02-20T17:56:12Z</time>
      </trkpt>
      <trkpt lat="45.10218" lon="5.60308">
        <ele>1355.400024414</ele>
        <time>2013-02-20T17:56:13Z</time>
      </trkpt>
      <trkpt lat="45.10234" lon="5.60311">
        <ele>1354</ele>
        <time>2013-02-20T17:56:15Z</time>
      </trkpt>
      <trkpt lat="45.1025" lon="5.60313">
        <ele>1353</ele>
        <time>2013-02-20T17:56:17Z</time>
      </trkpt>
      <trkpt lat="45.10273" lon="5.60316">
        <ele>1349.400024414</ele>
        <time>2013-02-20T17:56:20Z</time>
      </trkpt>
      <trkpt lat="45.10292" lon="5.60321">
        <ele>1345.599975586</ele>
        <time>2013-02-20T17:56:23Z</time>
      </trkpt>
      <trkpt lat="45.10299" lon="5.60321">
        <ele>1344.599975586</ele>
        <time>2013-02-20T17:56:24Z</time>
      </trkpt>
      <trkpt lat="45.10321" lon="5.6032">
        <ele>1342</ele>
        <time>2013-02-20T17:56:27Z</time>
      </trkpt>
      <trkpt lat="45.10329" lon="5.60318">
        <ele>1341.400024414</ele>
        <time>2013-02-20T17:56:28Z</time>
      </trkpt>
      <trkpt lat="45.10346" lon="5.60322">
        <ele>1338.199951172</ele>
        <time>2013-02-20T17:56:31Z</time>
      </trkpt>
      <trkpt lat="45.10354" lon="5.60323">
        <ele>1336.800048828</ele>
        <time>2013-02-20T17:56:32Z</time>
      </trkpt>
      <trkpt lat="45.1036" lon="5.60325">
        <ele>1335.199951172</ele>
        <time>2013-02-20T17:56:33Z</time>
      </trkpt>
      <trkpt lat="45.10372" lon="5.60328">
        <ele>1332.800048828</ele>
        <time>2013-02-20T17:56:35Z</time>
      </trkpt>
      <trkpt lat="45.10391" lon="5.60339">
        <ele>1328.400024414</ele>
        <time>2013-02-20T17:56:39Z</time>
      </trkpt>
      <trkpt lat="45.1041" lon="5.60344">
        <ele>1325.599975586</ele>
        <time>2013-02-20T17:56:42Z</time>
      </trkpt>
      <trkpt lat="45.10416" lon="5.60344">
        <ele>1324.599975586</ele>
        <time>2013-02-20T17:56:43Z</time>
      </trkpt>
      <trkpt lat="45.10436" lon="5.60345">
        <ele>1323</ele>
        <time>2013-02-20T17:56:46Z</time>
      </trkpt>
      <trkpt lat="45.10447" lon="5.60344">
        <ele>1322.199951172</ele>
        <time>2013-02-20T17:56:48Z</time>
      </trkpt>
      <trkpt lat="45.10466" lon="5.60341">
        <ele>1320.800048828</ele>
        <time>2013-02-20T17:56:51Z</time>
      </trkpt>
      <trkpt lat="45.10485" lon="5.60341">
        <ele>1319.400024414</ele>
        <time>2013-02-20T17:56:54Z</time>
      </trkpt>
      <trkpt lat="45.10496" lon="5.60344">
        <ele>1318.400024414</ele>
        <time>2013-02-20T17:56:56Z</time>
      </trkpt>
      <trkpt lat="45.10508" lon="5.60347">
        <ele>1317.199951172</ele>
        <time>2013-02-20T17:56:58Z</time>
      </trkpt>
      <trkpt lat="45.1052" lon="5.60353">
        <ele>1315.800048828</ele>
        <time>2013-02-20T17:57:00Z</time>
      </trkpt>
      <trkpt lat="45.10539" lon="5.60361">
        <ele>1313.400024414</ele>
        <time>2013-02-20T17:57:03Z</time>
      </trkpt>
      <trkpt lat="45.10545" lon="5.60361">
        <ele>1312.800048828</ele>
        <time>2013-02-20T17:57:04Z</time>
      </trkpt>
      <trkpt lat="45.10552" lon="5.60361">
        <ele>1312.199951172</ele>
        <time>2013-02-20T17:57:05Z</time>
      </trkpt>
      <trkpt lat="45.10565" lon="5.60361">
        <ele>1311</ele>
        <time>2013-02-20T17:57:07Z</time>
      </trkpt>
      <trkpt lat="45.10578" lon="5.60363">
        <ele>1309.599975586</ele>
        <time>2013-02-20T17:57:09Z</time>
      </trkpt>
      <trkpt lat="45.10592" lon="5.60364">
        <ele>1308.599975586</ele>
        <time>2013-02-20T17:57:11Z</time>
      </trkpt>
      <trkpt lat="45.10612" lon="5.60369">
        <ele>1306.599975586</ele>
        <time>2013-02-20T17:57:14Z</time>
      </trkpt>
      <trkpt lat="45.10617" lon="5.6037">
        <ele>1306</ele>
        <time>2013-02-20T17:57:15Z</time>
      </trkpt>
      <trkpt lat="45.10624" lon="5.6037">
        <ele>1305.599975586</ele>
        <time>2013-02-20T17:57:16Z</time>
      </trkpt>
      <trkpt lat="45.10636" lon="5.60371">
        <ele>1304.800048828</ele>
        <time>2013-02-20T17:57:18Z</time>
      </trkpt>
      <trkpt lat="45.10642" lon="5.60369">
        <ele>1304.800048828</ele>
        <time>2013-02-20T17:57:19Z</time>
      </trkpt>
      <trkpt lat="45.10652" lon="5.60367">
        <ele>1304.400024414</ele>
        <time>2013-02-20T17:57:21Z</time>
      </trkpt>
      <trkpt lat="45.10662" lon="5.60365">
        <ele>1304</ele>
        <time>2013-02-20T17:57:23Z</time>
      </trkpt>
      <trkpt lat="45.10666" lon="5.60363">
        <ele>1304.199951172</ele>
        <time>2013-02-20T17:57:24Z</time>
      </trkpt>
      <trkpt lat="45.1067" lon="5.60361">
        <ele>1304.199951172</ele>
        <time>2013-02-20T17:57:25Z</time>
      </trkpt>
      <trkpt lat="45.10677" lon="5.6036">
        <ele>1303.400024414</ele>
        <time>2013-02-20T17:57:29Z</time>
      </trkpt>
      <trkpt lat="45.10674" lon="5.60364">
        <ele>1303.199951172</ele>
        <time>2013-02-20T17:57:35Z</time>
      </trkpt>
      <trkpt lat="45.10675" lon="5.60372">
        <ele>1301.599975586</ele>
        <time>2013-02-20T17:57:54Z</time>
      </trkpt>
      <trkpt lat="45.10677" lon="5.60374">
        <ele>1301</ele>
        <time>2013-02-20T17:57:59Z</time>
      </trkpt>
      <trkpt lat="45.10678" lon="5.60376">
        <ele>1300.599975586</ele>
        <time>2013-02-20T17:58:00Z</time>
      </trkpt>
      <trkpt lat="45.10684" lon="5.60377">
        <ele>1299.800048828</ele>
        <time>2013-02-20T17:58:05Z</time>
      </trkpt>
      <trkpt lat="45.10687" lon="5.60376">
        <ele>1299.599975586</ele>
        <time>2013-02-20T17:58:07Z</time>
      </trkpt>
      <trkpt lat="45.10689" lon="5.60377">
        <ele>1299.400024414</ele>
        <time>2013-02-20T17:58:09Z</time>
      </trkpt>
      <trkpt lat="45.10693" lon="5.60378">
        <ele>1298.800048828</ele>
        <time>2013-02-20T17:58:12Z</time>
      </trkpt>
      <trkpt lat="45.107" lon="5.60381">
        <ele>1297.599975586</ele>
        <time>2013-02-20T17:58:19Z</time>
      </trkpt>
      <trkpt lat="45.10704" lon="5.60388">
        <ele>1296.199951172</ele>
        <time>2013-02-20T17:58:26Z</time>
      </trkpt>
      <trkpt lat="45.10708" lon="5.60392">
        <ele>1295.400024414</ele>
        <time>2013-02-20T17:58:32Z</time>
      </trkpt>
      <trkpt lat="45.10708" lon="5.60392">
        <ele>1295.199951172</ele>
        <time>2013-02-20T17:58:37Z</time>
      </trkpt>
      <trkpt lat="45.10704" lon="5.60394">
        <ele>1295.400024414</ele>
        <time>2013-02-20T17:59:16Z</time>
      </trkpt>
      <trkpt lat="45.10708" lon="5.60389">
        <ele>1295.800048828</ele>
        <time>2013-02-20T17:59:28Z</time>
      </trkpt>
      <trkpt lat="45.10706" lon="5.60386">
        <ele>1296.199951172</ele>
        <time>2013-02-20T17:59:45Z</time>
      </trkpt>
      <trkpt lat="45.1071" lon="5.60388">
        <ele>1295.599975586</ele>
        <time>2013-02-20T17:59:49Z</time>
      </trkpt>
      <trkpt lat="45.1071" lon="5.60389">
        <ele>1295.599975586</ele>
        <time>2013-02-20T17:59:50Z</time>
      </trkpt>
      <trkpt lat="45.1071" lon="5.60388">
        <ele>1295.800048828</ele>
        <time>2013-02-20T17:59:57Z</time>
      </trkpt>
      <trkpt lat="45.10708" lon="5.60384">
        <ele>1296.400024414</ele>
        <time>2013-02-20T18:00:04Z</time>
      </trkpt>
      <trkpt lat="45.10707" lon="5.60387">
        <ele>1296</ele>
        <time>2013-02-20T18:00:08Z</time>
      </trkpt>
      <trkpt lat="45.10707" lon="5.60386">
        <ele>1296.199951172</ele>
        <time>2013-02-20T18:00:18Z</time>
      </trkpt>
      <trkpt lat="45.10707" lon="5.60388">
        <ele>1296</ele>
        <time>2013-02-20T18:00:47Z</time>
      </trkpt>
      <trkpt lat="45.10707" lon="5.60385">
        <ele>1296.400024414</ele>
        <time>2013-02-20T18:01:05Z</time>
      </trkpt>
      <trkpt lat="45.10708" lon="5.60378">
        <ele>1297.400024414</ele>
        <time>2013-02-20T18:01:20Z</time>
      </trkpt>
      <trkpt lat="45.10703" lon="5.60376">
        <ele>1298.199951172</ele>
        <time>2013-02-20T18:01:31Z</time>
      </trkpt>
      <trkpt lat="45.10701" lon="5.6038">
        <ele>1297.599975586</ele>
        <time>2013-02-20T18:01:36Z</time>
      </trkpt>
      <trkpt lat="45.10698" lon="5.60382">
        <ele>1297.800048828</ele>
        <time>2013-02-20T18:01:42Z</time>
      </trkpt>
      <trkpt lat="45.10696" lon="5.60376">
        <ele>1298.599975586</ele>
        <time>2013-02-20T18:01:50Z</time>
      </trkpt>
      <trkpt lat="45.10695" lon="5.60376">
        <ele>1299</ele>
        <time>2013-02-20T18:01:51Z</time>
      </trkpt>
      <trkpt lat="45.1069" lon="5.6037">
        <ele>1300.400024414</ele>
        <time>2013-02-20T18:01:57Z</time>
      </trkpt>
      <trkpt lat="45.10694" lon="5.60373">
        <ele>1299.400024414</ele>
        <time>2013-02-20T18:02:03Z</time>
      </trkpt>
      <trkpt lat="45.10696" lon="5.6038">
        <ele>1298.199951172</ele>
        <time>2013-02-20T18:02:06Z</time>
      </trkpt>
      <trkpt lat="45.10698" lon="5.6038">
        <ele>1297.800048828</ele>
        <time>2013-02-20T18:02:13Z</time>
      </trkpt>
      <trkpt lat="45.10699" lon="5.60381">
        <ele>1297.599975586</ele>
        <time>2013-02-20T18:02:14Z</time>
      </trkpt>
      <trkpt lat="45.10699" lon="5.6038">
        <ele>1297.800048828</ele>
        <time>2013-02-20T18:02:17Z</time>
      </trkpt>
      <trkpt lat="45.10703" lon="5.60377">
        <ele>1297.800048828</ele>
        <time>2013-02-20T18:02:26Z</time>
      </trkpt>
      <trkpt lat="45.10703" lon="5.60378">
        <ele>1297.599975586</ele>
        <time>2013-02-20T18:02:27Z</time>
      </trkpt>
      <trkpt lat="45.10707" lon="5.60384">
        <ele>1296.599975586</ele>
        <time>2013-02-20T18:02:35Z</time>
      </trkpt>
      <trkpt lat="45.10706" lon="5.60382">
        <ele>1296.800048828</ele>
        <time>2013-02-20T18:02:36Z</time>
      </trkpt>
      <trkpt lat="45.10707" lon="5.60387">
        <ele>1296.199951172</ele>
        <time>2013-02-20T18:02:40Z</time>
      </trkpt>
      <trkpt lat="45.10705" lon="5.60391">
        <ele>1295.599975586</ele>
        <time>2013-02-20T18:02:48Z</time>
      </trkpt>
      <trkpt lat="45.10703" lon="5.60387">
        <ele>1296.400024414</ele>
        <time>2013-02-20T18:02:52Z</time>
      </trkpt>
      <trkpt lat="45.10704" lon="5.6039">
        <ele>1295.800048828</ele>
        <time>2013-02-20T18:02:58Z</time>
      </trkpt>
      <trkpt lat="45.10705" lon="5.60395">
        <ele>1295</ele>
        <time>2013-02-20T18:03:01Z</time>
      </trkpt>
      <trkpt lat="45.10705" lon="5.60398">
        <ele>1294.800048828</ele>
        <time>2013-02-20T18:03:04Z</time>
      </trkpt>
      <trkpt lat="45.10706" lon="5.60404">
        <ele>1293.800048828</ele>
        <time>2013-02-20T18:03:07Z</time>
      </trkpt>
      <trkpt lat="45.10705" lon="5.60404">
        <ele>1294</ele>
        <time>2013-02-20T18:03:08Z</time>
      </trkpt>
      <trkpt lat="45.10704" lon="5.604">
        <ele>1294.599975586</ele>
        <time>2013-02-20T18:03:15Z</time>
      </trkpt>
      <trkpt lat="45.10699" lon="5.60391">
        <ele>1296.199951172</ele>
        <time>2013-02-20T18:03:20Z</time>
      </trkpt>
      <trkpt lat="45.10698" lon="5.60389">
        <ele>1296.599975586</ele>
        <time>2013-02-20T18:03:26Z</time>
      </trkpt>
      <trkpt lat="45.10697" lon="5.60385">
        <ele>1297.199951172</ele>
        <time>2013-02-20T18:03:34Z</time>
      </trkpt>
      <trkpt lat="45.10697" lon="5.60382">
        <ele>1297.800048828</ele>
        <time>2013-02-20T18:03:37Z</time>
      </trkpt>
      <trkpt lat="45.10697" lon="5.6038">
        <ele>1298</ele>
        <time>2013-02-20T18:03:38Z</time>
      </trkpt>
      <trkpt lat="45.10701" lon="5.60392">
        <ele>1295.800048828</ele>
        <time>2013-02-20T18:03:47Z</time>
      </trkpt>
      <trkpt lat="45.10699" lon="5.60396">
        <ele>1295.400024414</ele>
        <time>2013-02-20T18:03:52Z</time>
      </trkpt>
      <trkpt lat="45.10694" lon="5.60384">
        <ele>1297.800048828</ele>
        <time>2013-02-20T18:04:11Z</time>
      </trkpt>
      <trkpt lat="45.10693" lon="5.60379">
        <ele>1298.599975586</ele>
        <time>2013-02-20T18:04:14Z</time>
      </trkpt>
      <trkpt lat="45.10692" lon="5.60378">
        <ele>1298.800048828</ele>
        <time>2013-02-20T18:04:15Z</time>
      </trkpt>
      <trkpt lat="45.10691" lon="5.60379">
        <ele>1298.800048828</ele>
        <time>2013-02-20T18:04:21Z</time>
      </trkpt>
      <trkpt lat="45.10689" lon="5.60376">
        <ele>1299.400024414</ele>
        <time>2013-02-20T18:04:22Z</time>
      </trkpt>
      <trkpt lat="45.10693" lon="5.60377">
        <ele>1299</ele>
        <time>2013-02-20T18:04:25Z</time>
      </trkpt>
      <trkpt lat="45.10699" lon="5.60382">
        <ele>1297.400024414</ele>
        <time>2013-02-20T18:04:32Z</time>
      </trkpt>
      <trkpt lat="45.10701" lon="5.60384">
        <ele>1297</ele>
        <time>2013-02-20T18:04:37Z</time>
      </trkpt>
      <trkpt lat="45.10704" lon="5.60385">
        <ele>1296.800048828</ele>
        <time>2013-02-20T18:04:42Z</time>
      </trkpt>
      <trkpt lat="45.10706" lon="5.60384">
        <ele>1296.599975586</ele>
        <time>2013-02-20T18:04:47Z</time>
      </trkpt>
      <trkpt lat="45.10706" lon="5.60382">
        <ele>1296.800048828</ele>
        <time>2013-02-20T18:04:48Z</time>
      </trkpt>
      <trkpt lat="45.10703" lon="5.60378">
        <ele>1297.800048828</ele>
        <time>2013-02-20T18:04:56Z</time>
      </trkpt>
      <trkpt lat="45.10702" lon="5.60381">
        <ele>1297.599975586</ele>
        <time>2013-02-20T18:04:59Z</time>
      </trkpt>
      <trkpt lat="45.10704" lon="5.60384">
        <ele>1296.800048828</ele>
        <time>2013-02-20T18:05:02Z</time>
      </trkpt>
    </trkseg>
  </trk>
</gpx>